<?xml version="1.0" encoding="UTF-8" standalone="no" ?>
<gpx xmlns="http://www.topografix.com/GPX/1/1" xmlns:xsi="http://www.w3.org/2001/XMLSchema-instance" xsi:schemaLocation="http://www.topografix.com/GPX/1/1 http://www.topografix.com/GPX/1/1/gpx.xsd" version="1.1" creator="VisuGPX - https://www.visugpx.com">
  <metadata>
    <name>Seviscourt MARCHE ADEPS 2015 (Avril)</name>
    <desc><![CDATA[Petite marche sympa pour se ressourcer             ]]></desc>
  </metadata>
  <trk>
    <name><![CDATA[solo scooby]]></name>
    <cmt><![CDATA[AVG 15° MAX 23° MIN 13°]]></cmt>
    <trkseg>
      <trkpt lat="49.95687" lon="5.41227">
        <ele>391</ele>
        <time>2015-04-12T08:15:36Z</time>
      </trkpt>
      <trkpt lat="49.95684" lon="5.41222">
        <ele>392</ele>
        <time>2015-04-12T08:15:41Z</time>
      </trkpt>
      <trkpt lat="49.95689" lon="5.41226">
        <ele>392</ele>
        <time>2015-04-12T08:15:47Z</time>
      </trkpt>
      <trkpt lat="49.95689" lon="5.41226">
        <ele>392</ele>
        <time>2015-04-12T08:15:52Z</time>
      </trkpt>
      <trkpt lat="49.95691" lon="5.41228">
        <ele>392</ele>
        <time>2015-04-12T08:15:58Z</time>
      </trkpt>
      <trkpt lat="49.95697" lon="5.41224">
        <ele>391</ele>
        <time>2015-04-12T08:16:04Z</time>
      </trkpt>
      <trkpt lat="49.95696" lon="5.41221">
        <ele>391</ele>
        <time>2015-04-12T08:16:10Z</time>
      </trkpt>
      <trkpt lat="49.95695" lon="5.41215">
        <ele>391</ele>
        <time>2015-04-12T08:16:15Z</time>
      </trkpt>
      <trkpt lat="49.95691" lon="5.41208">
        <ele>391</ele>
        <time>2015-04-12T08:16:20Z</time>
      </trkpt>
      <trkpt lat="49.95688" lon="5.41203">
        <ele>391</ele>
        <time>2015-04-12T08:16:25Z</time>
      </trkpt>
      <trkpt lat="49.95684" lon="5.41196">
        <ele>391</ele>
        <time>2015-04-12T08:16:30Z</time>
      </trkpt>
      <trkpt lat="49.95676" lon="5.41185">
        <ele>391</ele>
        <time>2015-04-12T08:16:36Z</time>
      </trkpt>
      <trkpt lat="49.95672" lon="5.41181">
        <ele>391</ele>
        <time>2015-04-12T08:16:41Z</time>
      </trkpt>
      <trkpt lat="49.95669" lon="5.41175">
        <ele>391</ele>
        <time>2015-04-12T08:16:47Z</time>
      </trkpt>
      <trkpt lat="49.95665" lon="5.41169">
        <ele>391</ele>
        <time>2015-04-12T08:16:53Z</time>
      </trkpt>
      <trkpt lat="49.9566" lon="5.4116">
        <ele>391</ele>
        <time>2015-04-12T08:16:59Z</time>
      </trkpt>
      <trkpt lat="49.95655" lon="5.41155">
        <ele>391</ele>
        <time>2015-04-12T08:17:04Z</time>
      </trkpt>
      <trkpt lat="49.95649" lon="5.41147">
        <ele>391</ele>
        <time>2015-04-12T08:17:10Z</time>
      </trkpt>
      <trkpt lat="49.95644" lon="5.41141">
        <ele>391</ele>
        <time>2015-04-12T08:17:16Z</time>
      </trkpt>
      <trkpt lat="49.95639" lon="5.41135">
        <ele>391</ele>
        <time>2015-04-12T08:17:21Z</time>
      </trkpt>
      <trkpt lat="49.95634" lon="5.41129">
        <ele>391</ele>
        <time>2015-04-12T08:17:26Z</time>
      </trkpt>
      <trkpt lat="49.95629" lon="5.41123">
        <ele>392</ele>
        <time>2015-04-12T08:17:31Z</time>
      </trkpt>
      <trkpt lat="49.95624" lon="5.41116">
        <ele>392</ele>
        <time>2015-04-12T08:17:36Z</time>
      </trkpt>
      <trkpt lat="49.95618" lon="5.41105">
        <ele>392</ele>
        <time>2015-04-12T08:17:41Z</time>
      </trkpt>
      <trkpt lat="49.95611" lon="5.41094">
        <ele>392</ele>
        <time>2015-04-12T08:17:47Z</time>
      </trkpt>
      <trkpt lat="49.95604" lon="5.41083">
        <ele>392</ele>
        <time>2015-04-12T08:17:53Z</time>
      </trkpt>
      <trkpt lat="49.95596" lon="5.41072">
        <ele>392</ele>
        <time>2015-04-12T08:17:59Z</time>
      </trkpt>
      <trkpt lat="49.95589" lon="5.41062">
        <ele>393</ele>
        <time>2015-04-12T08:18:05Z</time>
      </trkpt>
      <trkpt lat="49.95584" lon="5.41055">
        <ele>393</ele>
        <time>2015-04-12T08:18:10Z</time>
      </trkpt>
      <trkpt lat="49.95579" lon="5.41048">
        <ele>393</ele>
        <time>2015-04-12T08:18:15Z</time>
      </trkpt>
      <trkpt lat="49.95574" lon="5.41041">
        <ele>393</ele>
        <time>2015-04-12T08:18:20Z</time>
      </trkpt>
      <trkpt lat="49.95569" lon="5.41034">
        <ele>393</ele>
        <time>2015-04-12T08:18:25Z</time>
      </trkpt>
      <trkpt lat="49.95563" lon="5.41026">
        <ele>393</ele>
        <time>2015-04-12T08:18:31Z</time>
      </trkpt>
      <trkpt lat="49.95557" lon="5.41017">
        <ele>393</ele>
        <time>2015-04-12T08:18:37Z</time>
      </trkpt>
      <trkpt lat="49.95551" lon="5.41006">
        <ele>393</ele>
        <time>2015-04-12T08:18:43Z</time>
      </trkpt>
      <trkpt lat="49.95546" lon="5.40996">
        <ele>393</ele>
        <time>2015-04-12T08:18:49Z</time>
      </trkpt>
      <trkpt lat="49.95541" lon="5.40985">
        <ele>393</ele>
        <time>2015-04-12T08:18:55Z</time>
      </trkpt>
      <trkpt lat="49.95537" lon="5.40976">
        <ele>394</ele>
        <time>2015-04-12T08:19:00Z</time>
      </trkpt>
      <trkpt lat="49.95535" lon="5.4097">
        <ele>394</ele>
        <time>2015-04-12T08:19:06Z</time>
      </trkpt>
      <trkpt lat="49.95533" lon="5.40967">
        <ele>394</ele>
        <time>2015-04-12T08:19:12Z</time>
      </trkpt>
      <trkpt lat="49.95531" lon="5.4096">
        <ele>394</ele>
        <time>2015-04-12T08:19:18Z</time>
      </trkpt>
      <trkpt lat="49.95528" lon="5.40953">
        <ele>394</ele>
        <time>2015-04-12T08:19:23Z</time>
      </trkpt>
      <trkpt lat="49.95523" lon="5.40944">
        <ele>394</ele>
        <time>2015-04-12T08:19:28Z</time>
      </trkpt>
      <trkpt lat="49.95518" lon="5.40935">
        <ele>394</ele>
        <time>2015-04-12T08:19:33Z</time>
      </trkpt>
      <trkpt lat="49.95514" lon="5.40926">
        <ele>394</ele>
        <time>2015-04-12T08:19:39Z</time>
      </trkpt>
      <trkpt lat="49.95512" lon="5.4092">
        <ele>395</ele>
        <time>2015-04-12T08:19:44Z</time>
      </trkpt>
      <trkpt lat="49.9551" lon="5.40913">
        <ele>395</ele>
        <time>2015-04-12T08:19:50Z</time>
      </trkpt>
      <trkpt lat="49.95508" lon="5.40906">
        <ele>395</ele>
        <time>2015-04-12T08:19:55Z</time>
      </trkpt>
      <trkpt lat="49.95505" lon="5.40897">
        <ele>395</ele>
        <time>2015-04-12T08:20:00Z</time>
      </trkpt>
      <trkpt lat="49.95504" lon="5.40889">
        <ele>394</ele>
        <time>2015-04-12T08:20:05Z</time>
      </trkpt>
      <trkpt lat="49.95503" lon="5.4088">
        <ele>395</ele>
        <time>2015-04-12T08:20:11Z</time>
      </trkpt>
      <trkpt lat="49.955" lon="5.40871">
        <ele>395</ele>
        <time>2015-04-12T08:20:16Z</time>
      </trkpt>
      <trkpt lat="49.95494" lon="5.40858">
        <ele>395</ele>
        <time>2015-04-12T08:20:22Z</time>
      </trkpt>
      <trkpt lat="49.95489" lon="5.40845">
        <ele>395</ele>
        <time>2015-04-12T08:20:28Z</time>
      </trkpt>
      <trkpt lat="49.95483" lon="5.40833">
        <ele>395</ele>
        <time>2015-04-12T08:20:34Z</time>
      </trkpt>
      <trkpt lat="49.95478" lon="5.40822">
        <ele>394</ele>
        <time>2015-04-12T08:20:39Z</time>
      </trkpt>
      <trkpt lat="49.95472" lon="5.4081">
        <ele>395</ele>
        <time>2015-04-12T08:20:45Z</time>
      </trkpt>
      <trkpt lat="49.95468" lon="5.40801">
        <ele>394</ele>
        <time>2015-04-12T08:20:50Z</time>
      </trkpt>
      <trkpt lat="49.95464" lon="5.4079">
        <ele>394</ele>
        <time>2015-04-12T08:20:56Z</time>
      </trkpt>
      <trkpt lat="49.9546" lon="5.4078">
        <ele>394</ele>
        <time>2015-04-12T08:21:01Z</time>
      </trkpt>
      <trkpt lat="49.95455" lon="5.4077">
        <ele>394</ele>
        <time>2015-04-12T08:21:06Z</time>
      </trkpt>
      <trkpt lat="49.95455" lon="5.40762">
        <ele>394</ele>
        <time>2015-04-12T08:21:11Z</time>
      </trkpt>
      <trkpt lat="49.95459" lon="5.40758">
        <ele>393</ele>
        <time>2015-04-12T08:21:16Z</time>
      </trkpt>
      <trkpt lat="49.95463" lon="5.40753">
        <ele>394</ele>
        <time>2015-04-12T08:21:22Z</time>
      </trkpt>
      <trkpt lat="49.95466" lon="5.40747">
        <ele>394</ele>
        <time>2015-04-12T08:21:27Z</time>
      </trkpt>
      <trkpt lat="49.95471" lon="5.40741">
        <ele>394</ele>
        <time>2015-04-12T08:21:33Z</time>
      </trkpt>
      <trkpt lat="49.95474" lon="5.40737">
        <ele>394</ele>
        <time>2015-04-12T08:21:38Z</time>
      </trkpt>
      <trkpt lat="49.9548" lon="5.4073">
        <ele>394</ele>
        <time>2015-04-12T08:21:44Z</time>
      </trkpt>
      <trkpt lat="49.95485" lon="5.40723">
        <ele>393</ele>
        <time>2015-04-12T08:21:49Z</time>
      </trkpt>
      <trkpt lat="49.9549" lon="5.40719">
        <ele>393</ele>
        <time>2015-04-12T08:21:54Z</time>
      </trkpt>
      <trkpt lat="49.95496" lon="5.40715">
        <ele>394</ele>
        <time>2015-04-12T08:21:59Z</time>
      </trkpt>
      <trkpt lat="49.95499" lon="5.40709">
        <ele>394</ele>
        <time>2015-04-12T08:22:04Z</time>
      </trkpt>
      <trkpt lat="49.95502" lon="5.40704">
        <ele>394</ele>
        <time>2015-04-12T08:22:09Z</time>
      </trkpt>
      <trkpt lat="49.95507" lon="5.407">
        <ele>394</ele>
        <time>2015-04-12T08:22:14Z</time>
      </trkpt>
      <trkpt lat="49.95512" lon="5.40695">
        <ele>394</ele>
        <time>2015-04-12T08:22:20Z</time>
      </trkpt>
      <trkpt lat="49.95516" lon="5.40691">
        <ele>394</ele>
        <time>2015-04-12T08:22:25Z</time>
      </trkpt>
      <trkpt lat="49.9552" lon="5.40685">
        <ele>393</ele>
        <time>2015-04-12T08:22:31Z</time>
      </trkpt>
      <trkpt lat="49.95525" lon="5.40681">
        <ele>393</ele>
        <time>2015-04-12T08:22:36Z</time>
      </trkpt>
      <trkpt lat="49.95531" lon="5.40676">
        <ele>393</ele>
        <time>2015-04-12T08:22:42Z</time>
      </trkpt>
      <trkpt lat="49.95538" lon="5.4067">
        <ele>393</ele>
        <time>2015-04-12T08:22:48Z</time>
      </trkpt>
      <trkpt lat="49.95544" lon="5.40663">
        <ele>393</ele>
        <time>2015-04-12T08:22:54Z</time>
      </trkpt>
      <trkpt lat="49.95548" lon="5.40659">
        <ele>393</ele>
        <time>2015-04-12T08:22:59Z</time>
      </trkpt>
      <trkpt lat="49.95552" lon="5.4065">
        <ele>393</ele>
        <time>2015-04-12T08:23:04Z</time>
      </trkpt>
      <trkpt lat="49.95557" lon="5.40644">
        <ele>393</ele>
        <time>2015-04-12T08:23:09Z</time>
      </trkpt>
      <trkpt lat="49.95562" lon="5.40635">
        <ele>393</ele>
        <time>2015-04-12T08:23:14Z</time>
      </trkpt>
      <trkpt lat="49.9557" lon="5.4063">
        <ele>392</ele>
        <time>2015-04-12T08:23:20Z</time>
      </trkpt>
      <trkpt lat="49.95576" lon="5.40625">
        <ele>392</ele>
        <time>2015-04-12T08:23:25Z</time>
      </trkpt>
      <trkpt lat="49.95581" lon="5.40619">
        <ele>392</ele>
        <time>2015-04-12T08:23:30Z</time>
      </trkpt>
      <trkpt lat="49.95586" lon="5.40614">
        <ele>392</ele>
        <time>2015-04-12T08:23:35Z</time>
      </trkpt>
      <trkpt lat="49.95591" lon="5.40609">
        <ele>392</ele>
        <time>2015-04-12T08:23:40Z</time>
      </trkpt>
      <trkpt lat="49.95597" lon="5.40605">
        <ele>392</ele>
        <time>2015-04-12T08:23:46Z</time>
      </trkpt>
      <trkpt lat="49.95602" lon="5.40603">
        <ele>392</ele>
        <time>2015-04-12T08:23:51Z</time>
      </trkpt>
      <trkpt lat="49.95608" lon="5.40599">
        <ele>391</ele>
        <time>2015-04-12T08:23:57Z</time>
      </trkpt>
      <trkpt lat="49.95612" lon="5.40596">
        <ele>391</ele>
        <time>2015-04-12T08:24:02Z</time>
      </trkpt>
      <trkpt lat="49.95615" lon="5.40592">
        <ele>392</ele>
        <time>2015-04-12T08:24:07Z</time>
      </trkpt>
      <trkpt lat="49.95622" lon="5.40586">
        <ele>392</ele>
        <time>2015-04-12T08:24:13Z</time>
      </trkpt>
      <trkpt lat="49.95626" lon="5.4058">
        <ele>391</ele>
        <time>2015-04-12T08:24:18Z</time>
      </trkpt>
      <trkpt lat="49.95634" lon="5.40578">
        <ele>392</ele>
        <time>2015-04-12T08:24:24Z</time>
      </trkpt>
      <trkpt lat="49.95643" lon="5.40577">
        <ele>392</ele>
        <time>2015-04-12T08:24:29Z</time>
      </trkpt>
      <trkpt lat="49.95653" lon="5.40576">
        <ele>392</ele>
        <time>2015-04-12T08:24:35Z</time>
      </trkpt>
      <trkpt lat="49.95663" lon="5.40574">
        <ele>392</ele>
        <time>2015-04-12T08:24:41Z</time>
      </trkpt>
      <trkpt lat="49.95671" lon="5.4057">
        <ele>392</ele>
        <time>2015-04-12T08:24:47Z</time>
      </trkpt>
      <trkpt lat="49.95677" lon="5.40567">
        <ele>391</ele>
        <time>2015-04-12T08:24:52Z</time>
      </trkpt>
      <trkpt lat="49.95684" lon="5.4056">
        <ele>391</ele>
        <time>2015-04-12T08:24:58Z</time>
      </trkpt>
      <trkpt lat="49.95688" lon="5.40556">
        <ele>391</ele>
        <time>2015-04-12T08:25:03Z</time>
      </trkpt>
      <trkpt lat="49.95689" lon="5.40554">
        <ele>391</ele>
        <time>2015-04-12T08:25:09Z</time>
      </trkpt>
      <trkpt lat="49.95689" lon="5.40552">
        <ele>391</ele>
        <time>2015-04-12T08:25:15Z</time>
      </trkpt>
      <trkpt lat="49.9569" lon="5.40552">
        <ele>391</ele>
        <time>2015-04-12T08:25:20Z</time>
      </trkpt>
      <trkpt lat="49.95693" lon="5.40549">
        <ele>391</ele>
        <time>2015-04-12T08:25:26Z</time>
      </trkpt>
      <trkpt lat="49.95699" lon="5.40547">
        <ele>391</ele>
        <time>2015-04-12T08:25:32Z</time>
      </trkpt>
      <trkpt lat="49.95705" lon="5.40545">
        <ele>391</ele>
        <time>2015-04-12T08:25:37Z</time>
      </trkpt>
      <trkpt lat="49.9571" lon="5.40543">
        <ele>391</ele>
        <time>2015-04-12T08:25:42Z</time>
      </trkpt>
      <trkpt lat="49.95715" lon="5.4054">
        <ele>391</ele>
        <time>2015-04-12T08:25:47Z</time>
      </trkpt>
      <trkpt lat="49.95718" lon="5.40534">
        <ele>391</ele>
        <time>2015-04-12T08:25:52Z</time>
      </trkpt>
      <trkpt lat="49.95723" lon="5.4053">
        <ele>391</ele>
        <time>2015-04-12T08:25:58Z</time>
      </trkpt>
      <trkpt lat="49.9573" lon="5.40529">
        <ele>390</ele>
        <time>2015-04-12T08:26:03Z</time>
      </trkpt>
      <trkpt lat="49.95737" lon="5.40528">
        <ele>390</ele>
        <time>2015-04-12T08:26:09Z</time>
      </trkpt>
      <trkpt lat="49.95744" lon="5.40526">
        <ele>390</ele>
        <time>2015-04-12T08:26:14Z</time>
      </trkpt>
      <trkpt lat="49.95752" lon="5.40524">
        <ele>390</ele>
        <time>2015-04-12T08:26:19Z</time>
      </trkpt>
      <trkpt lat="49.9576" lon="5.40522">
        <ele>390</ele>
        <time>2015-04-12T08:26:25Z</time>
      </trkpt>
      <trkpt lat="49.95768" lon="5.4052">
        <ele>390</ele>
        <time>2015-04-12T08:26:30Z</time>
      </trkpt>
      <trkpt lat="49.95774" lon="5.40514">
        <ele>390</ele>
        <time>2015-04-12T08:26:36Z</time>
      </trkpt>
      <trkpt lat="49.95778" lon="5.40506">
        <ele>389</ele>
        <time>2015-04-12T08:26:41Z</time>
      </trkpt>
      <trkpt lat="49.9578" lon="5.40494">
        <ele>389</ele>
        <time>2015-04-12T08:26:47Z</time>
      </trkpt>
      <trkpt lat="49.95778" lon="5.40483">
        <ele>388</ele>
        <time>2015-04-12T08:26:52Z</time>
      </trkpt>
      <trkpt lat="49.95773" lon="5.40473">
        <ele>388</ele>
        <time>2015-04-12T08:26:57Z</time>
      </trkpt>
      <trkpt lat="49.95771" lon="5.40459">
        <ele>388</ele>
        <time>2015-04-12T08:27:03Z</time>
      </trkpt>
      <trkpt lat="49.95775" lon="5.40457">
        <ele>388</ele>
        <time>2015-04-12T08:27:09Z</time>
      </trkpt>
      <trkpt lat="49.9578" lon="5.40454">
        <ele>388</ele>
        <time>2015-04-12T08:27:15Z</time>
      </trkpt>
      <trkpt lat="49.95789" lon="5.40451">
        <ele>388</ele>
        <time>2015-04-12T08:27:21Z</time>
      </trkpt>
      <trkpt lat="49.95796" lon="5.40446">
        <ele>388</ele>
        <time>2015-04-12T08:27:27Z</time>
      </trkpt>
      <trkpt lat="49.95801" lon="5.40439">
        <ele>388</ele>
        <time>2015-04-12T08:27:33Z</time>
      </trkpt>
      <trkpt lat="49.95806" lon="5.40432">
        <ele>388</ele>
        <time>2015-04-12T08:27:39Z</time>
      </trkpt>
      <trkpt lat="49.95811" lon="5.40423">
        <ele>389</ele>
        <time>2015-04-12T08:27:45Z</time>
      </trkpt>
      <trkpt lat="49.95815" lon="5.40417">
        <ele>389</ele>
        <time>2015-04-12T08:27:50Z</time>
      </trkpt>
      <trkpt lat="49.9582" lon="5.40408">
        <ele>388</ele>
        <time>2015-04-12T08:27:56Z</time>
      </trkpt>
      <trkpt lat="49.95825" lon="5.40403">
        <ele>389</ele>
        <time>2015-04-12T08:28:01Z</time>
      </trkpt>
      <trkpt lat="49.95831" lon="5.40396">
        <ele>388</ele>
        <time>2015-04-12T08:28:07Z</time>
      </trkpt>
      <trkpt lat="49.95837" lon="5.40392">
        <ele>388</ele>
        <time>2015-04-12T08:28:12Z</time>
      </trkpt>
      <trkpt lat="49.95843" lon="5.40385">
        <ele>389</ele>
        <time>2015-04-12T08:28:18Z</time>
      </trkpt>
      <trkpt lat="49.95849" lon="5.40381">
        <ele>389</ele>
        <time>2015-04-12T08:28:23Z</time>
      </trkpt>
      <trkpt lat="49.95855" lon="5.40375">
        <ele>388</ele>
        <time>2015-04-12T08:28:29Z</time>
      </trkpt>
      <trkpt lat="49.95861" lon="5.40369">
        <ele>389</ele>
        <time>2015-04-12T08:28:34Z</time>
      </trkpt>
      <trkpt lat="49.95868" lon="5.40363">
        <ele>389</ele>
        <time>2015-04-12T08:28:40Z</time>
      </trkpt>
      <trkpt lat="49.95874" lon="5.40359">
        <ele>389</ele>
        <time>2015-04-12T08:28:45Z</time>
      </trkpt>
      <trkpt lat="49.95881" lon="5.40355">
        <ele>389</ele>
        <time>2015-04-12T08:28:50Z</time>
      </trkpt>
      <trkpt lat="49.95888" lon="5.40352">
        <ele>389</ele>
        <time>2015-04-12T08:28:56Z</time>
      </trkpt>
      <trkpt lat="49.95895" lon="5.40347">
        <ele>389</ele>
        <time>2015-04-12T08:29:02Z</time>
      </trkpt>
      <trkpt lat="49.959" lon="5.40344">
        <ele>390</ele>
        <time>2015-04-12T08:29:07Z</time>
      </trkpt>
      <trkpt lat="49.95901" lon="5.40343">
        <ele>390</ele>
        <time>2015-04-12T08:29:13Z</time>
      </trkpt>
      <trkpt lat="49.95899" lon="5.40339">
        <ele>390</ele>
        <time>2015-04-12T08:29:19Z</time>
      </trkpt>
      <trkpt lat="49.95905" lon="5.40334">
        <ele>390</ele>
        <time>2015-04-12T08:29:25Z</time>
      </trkpt>
      <trkpt lat="49.95912" lon="5.4033">
        <ele>389</ele>
        <time>2015-04-12T08:29:31Z</time>
      </trkpt>
      <trkpt lat="49.95919" lon="5.40328">
        <ele>390</ele>
        <time>2015-04-12T08:29:36Z</time>
      </trkpt>
      <trkpt lat="49.95927" lon="5.40324">
        <ele>390</ele>
        <time>2015-04-12T08:29:42Z</time>
      </trkpt>
      <trkpt lat="49.95935" lon="5.40321">
        <ele>389</ele>
        <time>2015-04-12T08:29:48Z</time>
      </trkpt>
      <trkpt lat="49.95942" lon="5.40319">
        <ele>390</ele>
        <time>2015-04-12T08:29:53Z</time>
      </trkpt>
      <trkpt lat="49.9595" lon="5.40317">
        <ele>390</ele>
        <time>2015-04-12T08:29:59Z</time>
      </trkpt>
      <trkpt lat="49.95959" lon="5.40313">
        <ele>391</ele>
        <time>2015-04-12T08:30:05Z</time>
      </trkpt>
      <trkpt lat="49.95969" lon="5.40308">
        <ele>391</ele>
        <time>2015-04-12T08:30:11Z</time>
      </trkpt>
      <trkpt lat="49.95975" lon="5.403">
        <ele>391</ele>
        <time>2015-04-12T08:30:16Z</time>
      </trkpt>
      <trkpt lat="49.95975" lon="5.40289">
        <ele>392</ele>
        <time>2015-04-12T08:30:21Z</time>
      </trkpt>
      <trkpt lat="49.95971" lon="5.40274">
        <ele>393</ele>
        <time>2015-04-12T08:30:27Z</time>
      </trkpt>
      <trkpt lat="49.9597" lon="5.40262">
        <ele>392</ele>
        <time>2015-04-12T08:30:33Z</time>
      </trkpt>
      <trkpt lat="49.95969" lon="5.40253">
        <ele>392</ele>
        <time>2015-04-12T08:30:38Z</time>
      </trkpt>
      <trkpt lat="49.95969" lon="5.40248">
        <ele>392</ele>
        <time>2015-04-12T08:30:43Z</time>
      </trkpt>
      <trkpt lat="49.95967" lon="5.40239">
        <ele>392</ele>
        <time>2015-04-12T08:30:48Z</time>
      </trkpt>
      <trkpt lat="49.95966" lon="5.40229">
        <ele>393</ele>
        <time>2015-04-12T08:30:53Z</time>
      </trkpt>
      <trkpt lat="49.95965" lon="5.40218">
        <ele>392</ele>
        <time>2015-04-12T08:30:59Z</time>
      </trkpt>
      <trkpt lat="49.95964" lon="5.40207">
        <ele>392</ele>
        <time>2015-04-12T08:31:05Z</time>
      </trkpt>
      <trkpt lat="49.95962" lon="5.40197">
        <ele>392</ele>
        <time>2015-04-12T08:31:10Z</time>
      </trkpt>
      <trkpt lat="49.95961" lon="5.40187">
        <ele>392</ele>
        <time>2015-04-12T08:31:15Z</time>
      </trkpt>
      <trkpt lat="49.95961" lon="5.40176">
        <ele>392</ele>
        <time>2015-04-12T08:31:20Z</time>
      </trkpt>
      <trkpt lat="49.95961" lon="5.40168">
        <ele>392</ele>
        <time>2015-04-12T08:31:25Z</time>
      </trkpt>
      <trkpt lat="49.9596" lon="5.40159">
        <ele>392</ele>
        <time>2015-04-12T08:31:30Z</time>
      </trkpt>
      <trkpt lat="49.9596" lon="5.40154">
        <ele>392</ele>
        <time>2015-04-12T08:31:35Z</time>
      </trkpt>
      <trkpt lat="49.95961" lon="5.40146">
        <ele>391</ele>
        <time>2015-04-12T08:31:40Z</time>
      </trkpt>
      <trkpt lat="49.95963" lon="5.40138">
        <ele>391</ele>
        <time>2015-04-12T08:31:45Z</time>
      </trkpt>
      <trkpt lat="49.95964" lon="5.40131">
        <ele>390</ele>
        <time>2015-04-12T08:31:50Z</time>
      </trkpt>
      <trkpt lat="49.95964" lon="5.40122">
        <ele>390</ele>
        <time>2015-04-12T08:31:55Z</time>
      </trkpt>
      <trkpt lat="49.95965" lon="5.40111">
        <ele>391</ele>
        <time>2015-04-12T08:32:01Z</time>
      </trkpt>
      <trkpt lat="49.95965" lon="5.40102">
        <ele>390</ele>
        <time>2015-04-12T08:32:06Z</time>
      </trkpt>
      <trkpt lat="49.95964" lon="5.40088">
        <ele>390</ele>
        <time>2015-04-12T08:32:12Z</time>
      </trkpt>
      <trkpt lat="49.95963" lon="5.40083">
        <ele>390</ele>
        <time>2015-04-12T08:32:17Z</time>
      </trkpt>
      <trkpt lat="49.95961" lon="5.40068">
        <ele>391</ele>
        <time>2015-04-12T08:32:23Z</time>
      </trkpt>
      <trkpt lat="49.95959" lon="5.40056">
        <ele>391</ele>
        <time>2015-04-12T08:32:28Z</time>
      </trkpt>
      <trkpt lat="49.95957" lon="5.40041">
        <ele>390</ele>
        <time>2015-04-12T08:32:34Z</time>
      </trkpt>
      <trkpt lat="49.95954" lon="5.40031">
        <ele>390</ele>
        <time>2015-04-12T08:32:39Z</time>
      </trkpt>
      <trkpt lat="49.95952" lon="5.40018">
        <ele>390</ele>
        <time>2015-04-12T08:32:45Z</time>
      </trkpt>
      <trkpt lat="49.9595" lon="5.40006">
        <ele>390</ele>
        <time>2015-04-12T08:32:51Z</time>
      </trkpt>
      <trkpt lat="49.95948" lon="5.39998">
        <ele>389</ele>
        <time>2015-04-12T08:32:56Z</time>
      </trkpt>
      <trkpt lat="49.95947" lon="5.39985">
        <ele>389</ele>
        <time>2015-04-12T08:33:02Z</time>
      </trkpt>
      <trkpt lat="49.95945" lon="5.39973">
        <ele>389</ele>
        <time>2015-04-12T08:33:07Z</time>
      </trkpt>
      <trkpt lat="49.95943" lon="5.3996">
        <ele>389</ele>
        <time>2015-04-12T08:33:13Z</time>
      </trkpt>
      <trkpt lat="49.95941" lon="5.39949">
        <ele>389</ele>
        <time>2015-04-12T08:33:18Z</time>
      </trkpt>
      <trkpt lat="49.9594" lon="5.39938">
        <ele>388</ele>
        <time>2015-04-12T08:33:23Z</time>
      </trkpt>
      <trkpt lat="49.9594" lon="5.39928">
        <ele>388</ele>
        <time>2015-04-12T08:33:28Z</time>
      </trkpt>
      <trkpt lat="49.9594" lon="5.39918">
        <ele>388</ele>
        <time>2015-04-12T08:33:33Z</time>
      </trkpt>
      <trkpt lat="49.9594" lon="5.39909">
        <ele>388</ele>
        <time>2015-04-12T08:33:38Z</time>
      </trkpt>
      <trkpt lat="49.9594" lon="5.39898">
        <ele>388</ele>
        <time>2015-04-12T08:33:43Z</time>
      </trkpt>
      <trkpt lat="49.95941" lon="5.39887">
        <ele>388</ele>
        <time>2015-04-12T08:33:49Z</time>
      </trkpt>
      <trkpt lat="49.95942" lon="5.39879">
        <ele>388</ele>
        <time>2015-04-12T08:33:54Z</time>
      </trkpt>
      <trkpt lat="49.95942" lon="5.39868">
        <ele>388</ele>
        <time>2015-04-12T08:34:00Z</time>
      </trkpt>
      <trkpt lat="49.95943" lon="5.39858">
        <ele>387</ele>
        <time>2015-04-12T08:34:05Z</time>
      </trkpt>
      <trkpt lat="49.95942" lon="5.39845">
        <ele>387</ele>
        <time>2015-04-12T08:34:11Z</time>
      </trkpt>
      <trkpt lat="49.9594" lon="5.39832">
        <ele>387</ele>
        <time>2015-04-12T08:34:17Z</time>
      </trkpt>
      <trkpt lat="49.95938" lon="5.3982">
        <ele>387</ele>
        <time>2015-04-12T08:34:22Z</time>
      </trkpt>
      <trkpt lat="49.95936" lon="5.39808">
        <ele>387</ele>
        <time>2015-04-12T08:34:28Z</time>
      </trkpt>
      <trkpt lat="49.95935" lon="5.39794">
        <ele>386</ele>
        <time>2015-04-12T08:34:34Z</time>
      </trkpt>
      <trkpt lat="49.95934" lon="5.39783">
        <ele>386</ele>
        <time>2015-04-12T08:34:39Z</time>
      </trkpt>
      <trkpt lat="49.95933" lon="5.39772">
        <ele>385</ele>
        <time>2015-04-12T08:34:44Z</time>
      </trkpt>
      <trkpt lat="49.95932" lon="5.39759">
        <ele>384</ele>
        <time>2015-04-12T08:34:50Z</time>
      </trkpt>
      <trkpt lat="49.95931" lon="5.39749">
        <ele>384</ele>
        <time>2015-04-12T08:34:55Z</time>
      </trkpt>
      <trkpt lat="49.95931" lon="5.39739">
        <ele>385</ele>
        <time>2015-04-12T08:35:00Z</time>
      </trkpt>
      <trkpt lat="49.9593" lon="5.39726">
        <ele>384</ele>
        <time>2015-04-12T08:35:06Z</time>
      </trkpt>
      <trkpt lat="49.95929" lon="5.39716">
        <ele>383</ele>
        <time>2015-04-12T08:35:11Z</time>
      </trkpt>
      <trkpt lat="49.95928" lon="5.39705">
        <ele>383</ele>
        <time>2015-04-12T08:35:16Z</time>
      </trkpt>
      <trkpt lat="49.95927" lon="5.39694">
        <ele>382</ele>
        <time>2015-04-12T08:35:21Z</time>
      </trkpt>
      <trkpt lat="49.95926" lon="5.39685">
        <ele>382</ele>
        <time>2015-04-12T08:35:26Z</time>
      </trkpt>
      <trkpt lat="49.95925" lon="5.39673">
        <ele>383</ele>
        <time>2015-04-12T08:35:32Z</time>
      </trkpt>
      <trkpt lat="49.95924" lon="5.39663">
        <ele>383</ele>
        <time>2015-04-12T08:35:37Z</time>
      </trkpt>
      <trkpt lat="49.95922" lon="5.39649">
        <ele>382</ele>
        <time>2015-04-12T08:35:43Z</time>
      </trkpt>
      <trkpt lat="49.95921" lon="5.39638">
        <ele>382</ele>
        <time>2015-04-12T08:35:48Z</time>
      </trkpt>
      <trkpt lat="49.9592" lon="5.39625">
        <ele>382</ele>
        <time>2015-04-12T08:35:54Z</time>
      </trkpt>
      <trkpt lat="49.95919" lon="5.39612">
        <ele>381</ele>
        <time>2015-04-12T08:36:00Z</time>
      </trkpt>
      <trkpt lat="49.95918" lon="5.39599">
        <ele>381</ele>
        <time>2015-04-12T08:36:06Z</time>
      </trkpt>
      <trkpt lat="49.95918" lon="5.39589">
        <ele>380</ele>
        <time>2015-04-12T08:36:11Z</time>
      </trkpt>
      <trkpt lat="49.95917" lon="5.39577">
        <ele>380</ele>
        <time>2015-04-12T08:36:17Z</time>
      </trkpt>
      <trkpt lat="49.95917" lon="5.39567">
        <ele>380</ele>
        <time>2015-04-12T08:36:22Z</time>
      </trkpt>
      <trkpt lat="49.95916" lon="5.39555">
        <ele>380</ele>
        <time>2015-04-12T08:36:28Z</time>
      </trkpt>
      <trkpt lat="49.95918" lon="5.39546">
        <ele>380</ele>
        <time>2015-04-12T08:36:33Z</time>
      </trkpt>
      <trkpt lat="49.95919" lon="5.39536">
        <ele>379</ele>
        <time>2015-04-12T08:36:39Z</time>
      </trkpt>
      <trkpt lat="49.95921" lon="5.39526">
        <ele>378</ele>
        <time>2015-04-12T08:36:45Z</time>
      </trkpt>
      <trkpt lat="49.95922" lon="5.39517">
        <ele>379</ele>
        <time>2015-04-12T08:36:50Z</time>
      </trkpt>
      <trkpt lat="49.95922" lon="5.39508">
        <ele>379</ele>
        <time>2015-04-12T08:36:55Z</time>
      </trkpt>
      <trkpt lat="49.95923" lon="5.39499">
        <ele>378</ele>
        <time>2015-04-12T08:37:00Z</time>
      </trkpt>
      <trkpt lat="49.95922" lon="5.39487">
        <ele>377</ele>
        <time>2015-04-12T08:37:06Z</time>
      </trkpt>
      <trkpt lat="49.95921" lon="5.39476">
        <ele>378</ele>
        <time>2015-04-12T08:37:11Z</time>
      </trkpt>
      <trkpt lat="49.9592" lon="5.39464">
        <ele>378</ele>
        <time>2015-04-12T08:37:17Z</time>
      </trkpt>
      <trkpt lat="49.9592" lon="5.39453">
        <ele>377</ele>
        <time>2015-04-12T08:37:22Z</time>
      </trkpt>
      <trkpt lat="49.95919" lon="5.39443">
        <ele>377</ele>
        <time>2015-04-12T08:37:27Z</time>
      </trkpt>
      <trkpt lat="49.95919" lon="5.39434">
        <ele>377</ele>
        <time>2015-04-12T08:37:32Z</time>
      </trkpt>
      <trkpt lat="49.95919" lon="5.39424">
        <ele>376</ele>
        <time>2015-04-12T08:37:37Z</time>
      </trkpt>
      <trkpt lat="49.95919" lon="5.39412">
        <ele>376</ele>
        <time>2015-04-12T08:37:43Z</time>
      </trkpt>
      <trkpt lat="49.95918" lon="5.39401">
        <ele>375</ele>
        <time>2015-04-12T08:37:48Z</time>
      </trkpt>
      <trkpt lat="49.95918" lon="5.3939">
        <ele>375</ele>
        <time>2015-04-12T08:37:54Z</time>
      </trkpt>
      <trkpt lat="49.95917" lon="5.39381">
        <ele>374</ele>
        <time>2015-04-12T08:37:59Z</time>
      </trkpt>
      <trkpt lat="49.95918" lon="5.3937">
        <ele>373</ele>
        <time>2015-04-12T08:38:04Z</time>
      </trkpt>
      <trkpt lat="49.95923" lon="5.39362">
        <ele>372</ele>
        <time>2015-04-12T08:38:10Z</time>
      </trkpt>
      <trkpt lat="49.95929" lon="5.39359">
        <ele>373</ele>
        <time>2015-04-12T08:38:15Z</time>
      </trkpt>
      <trkpt lat="49.95932" lon="5.39357">
        <ele>374</ele>
        <time>2015-04-12T08:38:21Z</time>
      </trkpt>
      <trkpt lat="49.95935" lon="5.39356">
        <ele>374</ele>
        <time>2015-04-12T08:38:26Z</time>
      </trkpt>
      <trkpt lat="49.95941" lon="5.39357">
        <ele>374</ele>
        <time>2015-04-12T08:38:31Z</time>
      </trkpt>
      <trkpt lat="49.95948" lon="5.39358">
        <ele>375</ele>
        <time>2015-04-12T08:38:37Z</time>
      </trkpt>
      <trkpt lat="49.95955" lon="5.39361">
        <ele>376</ele>
        <time>2015-04-12T08:38:43Z</time>
      </trkpt>
      <trkpt lat="49.95961" lon="5.39362">
        <ele>375</ele>
        <time>2015-04-12T08:38:49Z</time>
      </trkpt>
      <trkpt lat="49.95968" lon="5.39365">
        <ele>375</ele>
        <time>2015-04-12T08:38:54Z</time>
      </trkpt>
      <trkpt lat="49.95973" lon="5.39368">
        <ele>376</ele>
        <time>2015-04-12T08:38:59Z</time>
      </trkpt>
      <trkpt lat="49.95979" lon="5.39371">
        <ele>376</ele>
        <time>2015-04-12T08:39:05Z</time>
      </trkpt>
      <trkpt lat="49.95983" lon="5.39373">
        <ele>377</ele>
        <time>2015-04-12T08:39:10Z</time>
      </trkpt>
      <trkpt lat="49.95989" lon="5.39376">
        <ele>378</ele>
        <time>2015-04-12T08:39:15Z</time>
      </trkpt>
      <trkpt lat="49.95995" lon="5.39379">
        <ele>378</ele>
        <time>2015-04-12T08:39:20Z</time>
      </trkpt>
      <trkpt lat="49.96003" lon="5.39382">
        <ele>378</ele>
        <time>2015-04-12T08:39:26Z</time>
      </trkpt>
      <trkpt lat="49.96011" lon="5.39386">
        <ele>379</ele>
        <time>2015-04-12T08:39:32Z</time>
      </trkpt>
      <trkpt lat="49.9602" lon="5.39385">
        <ele>378</ele>
        <time>2015-04-12T08:39:38Z</time>
      </trkpt>
      <trkpt lat="49.96023" lon="5.39376">
        <ele>377</ele>
        <time>2015-04-12T08:39:43Z</time>
      </trkpt>
      <trkpt lat="49.96024" lon="5.39366">
        <ele>377</ele>
        <time>2015-04-12T08:39:49Z</time>
      </trkpt>
      <trkpt lat="49.96025" lon="5.39355">
        <ele>377</ele>
        <time>2015-04-12T08:39:55Z</time>
      </trkpt>
      <trkpt lat="49.96027" lon="5.39346">
        <ele>376</ele>
        <time>2015-04-12T08:40:00Z</time>
      </trkpt>
      <trkpt lat="49.96029" lon="5.3934">
        <ele>377</ele>
        <time>2015-04-12T08:40:05Z</time>
      </trkpt>
      <trkpt lat="49.96028" lon="5.39339">
        <ele>377</ele>
        <time>2015-04-12T08:40:10Z</time>
      </trkpt>
      <trkpt lat="49.96028" lon="5.39339">
        <ele>376</ele>
        <time>2015-04-12T08:40:15Z</time>
      </trkpt>
      <trkpt lat="49.96029" lon="5.39338">
        <ele>375</ele>
        <time>2015-04-12T08:40:20Z</time>
      </trkpt>
      <trkpt lat="49.96029" lon="5.39339">
        <ele>375</ele>
        <time>2015-04-12T08:40:26Z</time>
      </trkpt>
      <trkpt lat="49.96031" lon="5.39336">
        <ele>376</ele>
        <time>2015-04-12T08:40:32Z</time>
      </trkpt>
      <trkpt lat="49.96029" lon="5.39338">
        <ele>376</ele>
        <time>2015-04-12T08:40:37Z</time>
      </trkpt>
      <trkpt lat="49.96028" lon="5.39337">
        <ele>376</ele>
        <time>2015-04-12T08:40:42Z</time>
      </trkpt>
      <trkpt lat="49.96028" lon="5.39335">
        <ele>376</ele>
        <time>2015-04-12T08:40:47Z</time>
      </trkpt>
      <trkpt lat="49.96029" lon="5.39336">
        <ele>377</ele>
        <time>2015-04-12T08:40:53Z</time>
      </trkpt>
      <trkpt lat="49.96029" lon="5.39338">
        <ele>377</ele>
        <time>2015-04-12T08:40:58Z</time>
      </trkpt>
      <trkpt lat="49.9603" lon="5.3934">
        <ele>377</ele>
        <time>2015-04-12T08:41:03Z</time>
      </trkpt>
      <trkpt lat="49.96029" lon="5.39337">
        <ele>377</ele>
        <time>2015-04-12T08:41:08Z</time>
      </trkpt>
      <trkpt lat="49.9603" lon="5.39333">
        <ele>377</ele>
        <time>2015-04-12T08:41:14Z</time>
      </trkpt>
      <trkpt lat="49.96031" lon="5.39335">
        <ele>377</ele>
        <time>2015-04-12T08:41:20Z</time>
      </trkpt>
      <trkpt lat="49.96032" lon="5.39335">
        <ele>377</ele>
        <time>2015-04-12T08:41:26Z</time>
      </trkpt>
      <trkpt lat="49.96031" lon="5.39334">
        <ele>377</ele>
        <time>2015-04-12T08:41:31Z</time>
      </trkpt>
      <trkpt lat="49.9603" lon="5.39333">
        <ele>377</ele>
        <time>2015-04-12T08:41:36Z</time>
      </trkpt>
      <trkpt lat="49.9603" lon="5.39333">
        <ele>377</ele>
        <time>2015-04-12T08:41:42Z</time>
      </trkpt>
      <trkpt lat="49.96029" lon="5.39332">
        <ele>378</ele>
        <time>2015-04-12T08:41:49Z</time>
      </trkpt>
      <trkpt lat="49.96029" lon="5.39333">
        <ele>378</ele>
        <time>2015-04-12T08:41:55Z</time>
      </trkpt>
      <trkpt lat="49.96029" lon="5.39333">
        <ele>378</ele>
        <time>2015-04-12T08:42:01Z</time>
      </trkpt>
      <trkpt lat="49.9603" lon="5.39333">
        <ele>377</ele>
        <time>2015-04-12T08:42:06Z</time>
      </trkpt>
      <trkpt lat="49.96031" lon="5.39338">
        <ele>377</ele>
        <time>2015-04-12T08:42:11Z</time>
      </trkpt>
      <trkpt lat="49.9603" lon="5.39335">
        <ele>377</ele>
        <time>2015-04-12T08:42:17Z</time>
      </trkpt>
      <trkpt lat="49.96029" lon="5.39331">
        <ele>377</ele>
        <time>2015-04-12T08:42:23Z</time>
      </trkpt>
      <trkpt lat="49.96029" lon="5.39331">
        <ele>377</ele>
        <time>2015-04-12T08:42:30Z</time>
      </trkpt>
      <trkpt lat="49.96029" lon="5.39332">
        <ele>378</ele>
        <time>2015-04-12T08:42:36Z</time>
      </trkpt>
      <trkpt lat="49.96029" lon="5.39332">
        <ele>378</ele>
        <time>2015-04-12T08:42:41Z</time>
      </trkpt>
      <trkpt lat="49.9603" lon="5.39332">
        <ele>378</ele>
        <time>2015-04-12T08:42:48Z</time>
      </trkpt>
      <trkpt lat="49.9603" lon="5.39332">
        <ele>377</ele>
        <time>2015-04-12T08:42:53Z</time>
      </trkpt>
      <trkpt lat="49.9603" lon="5.39344">
        <ele>377</ele>
        <time>2015-04-12T08:42:58Z</time>
      </trkpt>
      <trkpt lat="49.96029" lon="5.39341">
        <ele>377</ele>
        <time>2015-04-12T08:43:03Z</time>
      </trkpt>
      <trkpt lat="49.9603" lon="5.39336">
        <ele>376</ele>
        <time>2015-04-12T08:43:08Z</time>
      </trkpt>
      <trkpt lat="49.9603" lon="5.39331">
        <ele>376</ele>
        <time>2015-04-12T08:43:14Z</time>
      </trkpt>
      <trkpt lat="49.96031" lon="5.39322">
        <ele>376</ele>
        <time>2015-04-12T08:43:19Z</time>
      </trkpt>
      <trkpt lat="49.96032" lon="5.3931">
        <ele>375</ele>
        <time>2015-04-12T08:43:25Z</time>
      </trkpt>
      <trkpt lat="49.96033" lon="5.39297">
        <ele>375</ele>
        <time>2015-04-12T08:43:31Z</time>
      </trkpt>
      <trkpt lat="49.96035" lon="5.39287">
        <ele>375</ele>
        <time>2015-04-12T08:43:36Z</time>
      </trkpt>
      <trkpt lat="49.96036" lon="5.39274">
        <ele>375</ele>
        <time>2015-04-12T08:43:42Z</time>
      </trkpt>
      <trkpt lat="49.96037" lon="5.39263">
        <ele>375</ele>
        <time>2015-04-12T08:43:47Z</time>
      </trkpt>
      <trkpt lat="49.96038" lon="5.39254">
        <ele>375</ele>
        <time>2015-04-12T08:43:52Z</time>
      </trkpt>
      <trkpt lat="49.9604" lon="5.39242">
        <ele>375</ele>
        <time>2015-04-12T08:43:58Z</time>
      </trkpt>
      <trkpt lat="49.96041" lon="5.39233">
        <ele>374</ele>
        <time>2015-04-12T08:44:03Z</time>
      </trkpt>
      <trkpt lat="49.96042" lon="5.39224">
        <ele>374</ele>
        <time>2015-04-12T08:44:08Z</time>
      </trkpt>
      <trkpt lat="49.96043" lon="5.39213">
        <ele>374</ele>
        <time>2015-04-12T08:44:14Z</time>
      </trkpt>
      <trkpt lat="49.96045" lon="5.39205">
        <ele>375</ele>
        <time>2015-04-12T08:44:19Z</time>
      </trkpt>
      <trkpt lat="49.96045" lon="5.39201">
        <ele>375</ele>
        <time>2015-04-12T08:44:25Z</time>
      </trkpt>
      <trkpt lat="49.96046" lon="5.392">
        <ele>375</ele>
        <time>2015-04-12T08:44:31Z</time>
      </trkpt>
      <trkpt lat="49.96047" lon="5.39197">
        <ele>375</ele>
        <time>2015-04-12T08:44:36Z</time>
      </trkpt>
      <trkpt lat="49.96047" lon="5.39193">
        <ele>374</ele>
        <time>2015-04-12T08:44:41Z</time>
      </trkpt>
      <trkpt lat="49.96048" lon="5.3919">
        <ele>375</ele>
        <time>2015-04-12T08:44:48Z</time>
      </trkpt>
      <trkpt lat="49.96048" lon="5.3919">
        <ele>375</ele>
        <time>2015-04-12T08:44:53Z</time>
      </trkpt>
      <trkpt lat="49.96049" lon="5.3918">
        <ele>374</ele>
        <time>2015-04-12T08:44:59Z</time>
      </trkpt>
      <trkpt lat="49.9605" lon="5.39171">
        <ele>374</ele>
        <time>2015-04-12T08:45:04Z</time>
      </trkpt>
      <trkpt lat="49.96052" lon="5.39159">
        <ele>373</ele>
        <time>2015-04-12T08:45:10Z</time>
      </trkpt>
      <trkpt lat="49.96053" lon="5.39149">
        <ele>373</ele>
        <time>2015-04-12T08:45:15Z</time>
      </trkpt>
      <trkpt lat="49.96055" lon="5.39137">
        <ele>373</ele>
        <time>2015-04-12T08:45:21Z</time>
      </trkpt>
      <trkpt lat="49.96057" lon="5.39126">
        <ele>373</ele>
        <time>2015-04-12T08:45:26Z</time>
      </trkpt>
      <trkpt lat="49.96059" lon="5.39113">
        <ele>374</ele>
        <time>2015-04-12T08:45:32Z</time>
      </trkpt>
      <trkpt lat="49.96061" lon="5.39101">
        <ele>373</ele>
        <time>2015-04-12T08:45:38Z</time>
      </trkpt>
      <trkpt lat="49.96061" lon="5.39096">
        <ele>373</ele>
        <time>2015-04-12T08:45:44Z</time>
      </trkpt>
      <trkpt lat="49.96061" lon="5.39095">
        <ele>373</ele>
        <time>2015-04-12T08:45:50Z</time>
      </trkpt>
      <trkpt lat="49.96061" lon="5.39094">
        <ele>374</ele>
        <time>2015-04-12T08:45:56Z</time>
      </trkpt>
      <trkpt lat="49.96063" lon="5.39085">
        <ele>374</ele>
        <time>2015-04-12T08:46:02Z</time>
      </trkpt>
      <trkpt lat="49.96065" lon="5.39074">
        <ele>373</ele>
        <time>2015-04-12T08:46:08Z</time>
      </trkpt>
      <trkpt lat="49.96067" lon="5.39062">
        <ele>373</ele>
        <time>2015-04-12T08:46:14Z</time>
      </trkpt>
      <trkpt lat="49.96069" lon="5.39051">
        <ele>373</ele>
        <time>2015-04-12T08:46:19Z</time>
      </trkpt>
      <trkpt lat="49.9607" lon="5.39041">
        <ele>373</ele>
        <time>2015-04-12T08:46:24Z</time>
      </trkpt>
      <trkpt lat="49.96073" lon="5.39028">
        <ele>373</ele>
        <time>2015-04-12T08:46:30Z</time>
      </trkpt>
      <trkpt lat="49.96075" lon="5.39017">
        <ele>372</ele>
        <time>2015-04-12T08:46:35Z</time>
      </trkpt>
      <trkpt lat="49.96077" lon="5.39004">
        <ele>372</ele>
        <time>2015-04-12T08:46:41Z</time>
      </trkpt>
      <trkpt lat="49.96078" lon="5.38993">
        <ele>373</ele>
        <time>2015-04-12T08:46:46Z</time>
      </trkpt>
      <trkpt lat="49.96079" lon="5.38982">
        <ele>372</ele>
        <time>2015-04-12T08:46:51Z</time>
      </trkpt>
      <trkpt lat="49.96075" lon="5.38973">
        <ele>372</ele>
        <time>2015-04-12T08:46:56Z</time>
      </trkpt>
      <trkpt lat="49.96067" lon="5.38967">
        <ele>372</ele>
        <time>2015-04-12T08:47:02Z</time>
      </trkpt>
      <trkpt lat="49.9606" lon="5.38962">
        <ele>371</ele>
        <time>2015-04-12T08:47:08Z</time>
      </trkpt>
      <trkpt lat="49.96053" lon="5.38959">
        <ele>371</ele>
        <time>2015-04-12T08:47:13Z</time>
      </trkpt>
      <trkpt lat="49.96046" lon="5.38955">
        <ele>370</ele>
        <time>2015-04-12T08:47:19Z</time>
      </trkpt>
      <trkpt lat="49.96039" lon="5.38951">
        <ele>369</ele>
        <time>2015-04-12T08:47:25Z</time>
      </trkpt>
      <trkpt lat="49.96033" lon="5.38948">
        <ele>368</ele>
        <time>2015-04-12T08:47:30Z</time>
      </trkpt>
      <trkpt lat="49.96027" lon="5.38945">
        <ele>367</ele>
        <time>2015-04-12T08:47:35Z</time>
      </trkpt>
      <trkpt lat="49.96022" lon="5.38941">
        <ele>367</ele>
        <time>2015-04-12T08:47:40Z</time>
      </trkpt>
      <trkpt lat="49.96016" lon="5.38938">
        <ele>366</ele>
        <time>2015-04-12T08:47:45Z</time>
      </trkpt>
      <trkpt lat="49.96011" lon="5.38935">
        <ele>366</ele>
        <time>2015-04-12T08:47:50Z</time>
      </trkpt>
      <trkpt lat="49.96005" lon="5.38931">
        <ele>365</ele>
        <time>2015-04-12T08:47:55Z</time>
      </trkpt>
      <trkpt lat="49.96" lon="5.38928">
        <ele>364</ele>
        <time>2015-04-12T08:48:00Z</time>
      </trkpt>
      <trkpt lat="49.95994" lon="5.38925">
        <ele>363</ele>
        <time>2015-04-12T08:48:05Z</time>
      </trkpt>
      <trkpt lat="49.95989" lon="5.38921">
        <ele>363</ele>
        <time>2015-04-12T08:48:10Z</time>
      </trkpt>
      <trkpt lat="49.95983" lon="5.38919">
        <ele>363</ele>
        <time>2015-04-12T08:48:15Z</time>
      </trkpt>
      <trkpt lat="49.95976" lon="5.38915">
        <ele>362</ele>
        <time>2015-04-12T08:48:21Z</time>
      </trkpt>
      <trkpt lat="49.95968" lon="5.38911">
        <ele>361</ele>
        <time>2015-04-12T08:48:27Z</time>
      </trkpt>
      <trkpt lat="49.95962" lon="5.38907">
        <ele>361</ele>
        <time>2015-04-12T08:48:32Z</time>
      </trkpt>
      <trkpt lat="49.95955" lon="5.38904">
        <ele>360</ele>
        <time>2015-04-12T08:48:38Z</time>
      </trkpt>
      <trkpt lat="49.95949" lon="5.38901">
        <ele>359</ele>
        <time>2015-04-12T08:48:43Z</time>
      </trkpt>
      <trkpt lat="49.95943" lon="5.38898">
        <ele>359</ele>
        <time>2015-04-12T08:48:48Z</time>
      </trkpt>
      <trkpt lat="49.95936" lon="5.38895">
        <ele>359</ele>
        <time>2015-04-12T08:48:54Z</time>
      </trkpt>
      <trkpt lat="49.9593" lon="5.38893">
        <ele>359</ele>
        <time>2015-04-12T08:48:59Z</time>
      </trkpt>
      <trkpt lat="49.95923" lon="5.38889">
        <ele>358</ele>
        <time>2015-04-12T08:49:05Z</time>
      </trkpt>
      <trkpt lat="49.95918" lon="5.38887">
        <ele>358</ele>
        <time>2015-04-12T08:49:10Z</time>
      </trkpt>
      <trkpt lat="49.9591" lon="5.38883">
        <ele>358</ele>
        <time>2015-04-12T08:49:16Z</time>
      </trkpt>
      <trkpt lat="49.95903" lon="5.3888">
        <ele>358</ele>
        <time>2015-04-12T08:49:21Z</time>
      </trkpt>
      <trkpt lat="49.95896" lon="5.38877">
        <ele>358</ele>
        <time>2015-04-12T08:49:26Z</time>
      </trkpt>
      <trkpt lat="49.95891" lon="5.38875">
        <ele>358</ele>
        <time>2015-04-12T08:49:31Z</time>
      </trkpt>
      <trkpt lat="49.95885" lon="5.38872">
        <ele>358</ele>
        <time>2015-04-12T08:49:36Z</time>
      </trkpt>
      <trkpt lat="49.95877" lon="5.38866">
        <ele>357</ele>
        <time>2015-04-12T08:49:42Z</time>
      </trkpt>
      <trkpt lat="49.95869" lon="5.38862">
        <ele>358</ele>
        <time>2015-04-12T08:49:47Z</time>
      </trkpt>
      <trkpt lat="49.95861" lon="5.38859">
        <ele>358</ele>
        <time>2015-04-12T08:49:53Z</time>
      </trkpt>
      <trkpt lat="49.95853" lon="5.38854">
        <ele>358</ele>
        <time>2015-04-12T08:49:59Z</time>
      </trkpt>
      <trkpt lat="49.95845" lon="5.3885">
        <ele>359</ele>
        <time>2015-04-12T08:50:05Z</time>
      </trkpt>
      <trkpt lat="49.95839" lon="5.38847">
        <ele>358</ele>
        <time>2015-04-12T08:50:10Z</time>
      </trkpt>
      <trkpt lat="49.95833" lon="5.38846">
        <ele>359</ele>
        <time>2015-04-12T08:50:15Z</time>
      </trkpt>
      <trkpt lat="49.95827" lon="5.38844">
        <ele>359</ele>
        <time>2015-04-12T08:50:20Z</time>
      </trkpt>
      <trkpt lat="49.95822" lon="5.38843">
        <ele>359</ele>
        <time>2015-04-12T08:50:25Z</time>
      </trkpt>
      <trkpt lat="49.95816" lon="5.38843">
        <ele>360</ele>
        <time>2015-04-12T08:50:31Z</time>
      </trkpt>
      <trkpt lat="49.9581" lon="5.38843">
        <ele>360</ele>
        <time>2015-04-12T08:50:36Z</time>
      </trkpt>
      <trkpt lat="49.95804" lon="5.38844">
        <ele>361</ele>
        <time>2015-04-12T08:50:41Z</time>
      </trkpt>
      <trkpt lat="49.95797" lon="5.38844">
        <ele>361</ele>
        <time>2015-04-12T08:50:47Z</time>
      </trkpt>
      <trkpt lat="49.95789" lon="5.38843">
        <ele>362</ele>
        <time>2015-04-12T08:50:53Z</time>
      </trkpt>
      <trkpt lat="49.95781" lon="5.38843">
        <ele>362</ele>
        <time>2015-04-12T08:50:58Z</time>
      </trkpt>
      <trkpt lat="49.95774" lon="5.38841">
        <ele>363</ele>
        <time>2015-04-12T08:51:04Z</time>
      </trkpt>
      <trkpt lat="49.95768" lon="5.38839">
        <ele>363</ele>
        <time>2015-04-12T08:51:09Z</time>
      </trkpt>
      <trkpt lat="49.95763" lon="5.38837">
        <ele>363</ele>
        <time>2015-04-12T08:51:14Z</time>
      </trkpt>
      <trkpt lat="49.9576" lon="5.38837">
        <ele>363</ele>
        <time>2015-04-12T08:51:19Z</time>
      </trkpt>
      <trkpt lat="49.95755" lon="5.38835">
        <ele>363</ele>
        <time>2015-04-12T08:51:25Z</time>
      </trkpt>
      <trkpt lat="49.95749" lon="5.38833">
        <ele>364</ele>
        <time>2015-04-12T08:51:30Z</time>
      </trkpt>
      <trkpt lat="49.95745" lon="5.38832">
        <ele>364</ele>
        <time>2015-04-12T08:51:36Z</time>
      </trkpt>
      <trkpt lat="49.95743" lon="5.38832">
        <ele>364</ele>
        <time>2015-04-12T08:51:41Z</time>
      </trkpt>
      <trkpt lat="49.95738" lon="5.38832">
        <ele>364</ele>
        <time>2015-04-12T08:51:47Z</time>
      </trkpt>
      <trkpt lat="49.95734" lon="5.38831">
        <ele>365</ele>
        <time>2015-04-12T08:51:52Z</time>
      </trkpt>
      <trkpt lat="49.95729" lon="5.3883">
        <ele>365</ele>
        <time>2015-04-12T08:51:57Z</time>
      </trkpt>
      <trkpt lat="49.95724" lon="5.38828">
        <ele>365</ele>
        <time>2015-04-12T08:52:02Z</time>
      </trkpt>
      <trkpt lat="49.95719" lon="5.38824">
        <ele>365</ele>
        <time>2015-04-12T08:52:07Z</time>
      </trkpt>
      <trkpt lat="49.95713" lon="5.38821">
        <ele>366</ele>
        <time>2015-04-12T08:52:13Z</time>
      </trkpt>
      <trkpt lat="49.95708" lon="5.38818">
        <ele>366</ele>
        <time>2015-04-12T08:52:19Z</time>
      </trkpt>
      <trkpt lat="49.95702" lon="5.38815">
        <ele>367</ele>
        <time>2015-04-12T08:52:25Z</time>
      </trkpt>
      <trkpt lat="49.95697" lon="5.38812">
        <ele>367</ele>
        <time>2015-04-12T08:52:30Z</time>
      </trkpt>
      <trkpt lat="49.95692" lon="5.38809">
        <ele>367</ele>
        <time>2015-04-12T08:52:36Z</time>
      </trkpt>
      <trkpt lat="49.95686" lon="5.38807">
        <ele>368</ele>
        <time>2015-04-12T08:52:41Z</time>
      </trkpt>
      <trkpt lat="49.95678" lon="5.38803">
        <ele>369</ele>
        <time>2015-04-12T08:52:47Z</time>
      </trkpt>
      <trkpt lat="49.95671" lon="5.38801">
        <ele>369</ele>
        <time>2015-04-12T08:52:52Z</time>
      </trkpt>
      <trkpt lat="49.95663" lon="5.38797">
        <ele>369</ele>
        <time>2015-04-12T08:52:58Z</time>
      </trkpt>
      <trkpt lat="49.95656" lon="5.38793">
        <ele>370</ele>
        <time>2015-04-12T08:53:03Z</time>
      </trkpt>
      <trkpt lat="49.95648" lon="5.38789">
        <ele>370</ele>
        <time>2015-04-12T08:53:09Z</time>
      </trkpt>
      <trkpt lat="49.95642" lon="5.38786">
        <ele>370</ele>
        <time>2015-04-12T08:53:14Z</time>
      </trkpt>
      <trkpt lat="49.95634" lon="5.38782">
        <ele>371</ele>
        <time>2015-04-12T08:53:20Z</time>
      </trkpt>
      <trkpt lat="49.95628" lon="5.38779">
        <ele>372</ele>
        <time>2015-04-12T08:53:25Z</time>
      </trkpt>
      <trkpt lat="49.9562" lon="5.38775">
        <ele>372</ele>
        <time>2015-04-12T08:53:31Z</time>
      </trkpt>
      <trkpt lat="49.95614" lon="5.38772">
        <ele>373</ele>
        <time>2015-04-12T08:53:37Z</time>
      </trkpt>
      <trkpt lat="49.95608" lon="5.38769">
        <ele>373</ele>
        <time>2015-04-12T08:53:42Z</time>
      </trkpt>
      <trkpt lat="49.95601" lon="5.38765">
        <ele>374</ele>
        <time>2015-04-12T08:53:48Z</time>
      </trkpt>
      <trkpt lat="49.95595" lon="5.38763">
        <ele>374</ele>
        <time>2015-04-12T08:53:53Z</time>
      </trkpt>
      <trkpt lat="49.95589" lon="5.3876">
        <ele>374</ele>
        <time>2015-04-12T08:53:58Z</time>
      </trkpt>
      <trkpt lat="49.95581" lon="5.38758">
        <ele>375</ele>
        <time>2015-04-12T08:54:04Z</time>
      </trkpt>
      <trkpt lat="49.95576" lon="5.38755">
        <ele>376</ele>
        <time>2015-04-12T08:54:09Z</time>
      </trkpt>
      <trkpt lat="49.95568" lon="5.38752">
        <ele>377</ele>
        <time>2015-04-12T08:54:15Z</time>
      </trkpt>
      <trkpt lat="49.95562" lon="5.3875">
        <ele>377</ele>
        <time>2015-04-12T08:54:20Z</time>
      </trkpt>
      <trkpt lat="49.95555" lon="5.38746">
        <ele>377</ele>
        <time>2015-04-12T08:54:25Z</time>
      </trkpt>
      <trkpt lat="49.95548" lon="5.38744">
        <ele>378</ele>
        <time>2015-04-12T08:54:31Z</time>
      </trkpt>
      <trkpt lat="49.95542" lon="5.38741">
        <ele>378</ele>
        <time>2015-04-12T08:54:36Z</time>
      </trkpt>
      <trkpt lat="49.9554" lon="5.38741">
        <ele>379</ele>
        <time>2015-04-12T08:54:41Z</time>
      </trkpt>
      <trkpt lat="49.95534" lon="5.38738">
        <ele>379</ele>
        <time>2015-04-12T08:54:47Z</time>
      </trkpt>
      <trkpt lat="49.95528" lon="5.38736">
        <ele>380</ele>
        <time>2015-04-12T08:54:53Z</time>
      </trkpt>
      <trkpt lat="49.95523" lon="5.38734">
        <ele>380</ele>
        <time>2015-04-12T08:54:58Z</time>
      </trkpt>
      <trkpt lat="49.95519" lon="5.38732">
        <ele>381</ele>
        <time>2015-04-12T08:55:04Z</time>
      </trkpt>
      <trkpt lat="49.95514" lon="5.38729">
        <ele>382</ele>
        <time>2015-04-12T08:55:09Z</time>
      </trkpt>
      <trkpt lat="49.95508" lon="5.38726">
        <ele>382</ele>
        <time>2015-04-12T08:55:14Z</time>
      </trkpt>
      <trkpt lat="49.95504" lon="5.38724">
        <ele>383</ele>
        <time>2015-04-12T08:55:19Z</time>
      </trkpt>
      <trkpt lat="49.95497" lon="5.38721">
        <ele>384</ele>
        <time>2015-04-12T08:55:25Z</time>
      </trkpt>
      <trkpt lat="49.95491" lon="5.38719">
        <ele>385</ele>
        <time>2015-04-12T08:55:30Z</time>
      </trkpt>
      <trkpt lat="49.95485" lon="5.38716">
        <ele>385</ele>
        <time>2015-04-12T08:55:36Z</time>
      </trkpt>
      <trkpt lat="49.95478" lon="5.38716">
        <ele>386</ele>
        <time>2015-04-12T08:55:42Z</time>
      </trkpt>
      <trkpt lat="49.95472" lon="5.38714">
        <ele>386</ele>
        <time>2015-04-12T08:55:48Z</time>
      </trkpt>
      <trkpt lat="49.95466" lon="5.38713">
        <ele>387</ele>
        <time>2015-04-12T08:55:53Z</time>
      </trkpt>
      <trkpt lat="49.95459" lon="5.3871">
        <ele>388</ele>
        <time>2015-04-12T08:55:58Z</time>
      </trkpt>
      <trkpt lat="49.95452" lon="5.38704">
        <ele>389</ele>
        <time>2015-04-12T08:56:04Z</time>
      </trkpt>
      <trkpt lat="49.95448" lon="5.38693">
        <ele>389</ele>
        <time>2015-04-12T08:56:10Z</time>
      </trkpt>
      <trkpt lat="49.95446" lon="5.38679">
        <ele>389</ele>
        <time>2015-04-12T08:56:16Z</time>
      </trkpt>
      <trkpt lat="49.95445" lon="5.38669">
        <ele>389</ele>
        <time>2015-04-12T08:56:21Z</time>
      </trkpt>
      <trkpt lat="49.95444" lon="5.38665">
        <ele>390</ele>
        <time>2015-04-12T08:56:26Z</time>
      </trkpt>
      <trkpt lat="49.95444" lon="5.38656">
        <ele>390</ele>
        <time>2015-04-12T08:56:32Z</time>
      </trkpt>
      <trkpt lat="49.95445" lon="5.38644">
        <ele>389</ele>
        <time>2015-04-12T08:56:38Z</time>
      </trkpt>
      <trkpt lat="49.95445" lon="5.38633">
        <ele>389</ele>
        <time>2015-04-12T08:56:43Z</time>
      </trkpt>
      <trkpt lat="49.95446" lon="5.3862">
        <ele>390</ele>
        <time>2015-04-12T08:56:49Z</time>
      </trkpt>
      <trkpt lat="49.95446" lon="5.3861">
        <ele>390</ele>
        <time>2015-04-12T08:56:54Z</time>
      </trkpt>
      <trkpt lat="49.95447" lon="5.38597">
        <ele>389</ele>
        <time>2015-04-12T08:57:00Z</time>
      </trkpt>
      <trkpt lat="49.95448" lon="5.38587">
        <ele>390</ele>
        <time>2015-04-12T08:57:05Z</time>
      </trkpt>
      <trkpt lat="49.95449" lon="5.38574">
        <ele>390</ele>
        <time>2015-04-12T08:57:11Z</time>
      </trkpt>
      <trkpt lat="49.95451" lon="5.38566">
        <ele>390</ele>
        <time>2015-04-12T08:57:16Z</time>
      </trkpt>
      <trkpt lat="49.95451" lon="5.38555">
        <ele>390</ele>
        <time>2015-04-12T08:57:22Z</time>
      </trkpt>
      <trkpt lat="49.95452" lon="5.38544">
        <ele>390</ele>
        <time>2015-04-12T08:57:27Z</time>
      </trkpt>
      <trkpt lat="49.95452" lon="5.38534">
        <ele>391</ele>
        <time>2015-04-12T08:57:32Z</time>
      </trkpt>
      <trkpt lat="49.95452" lon="5.38524">
        <ele>391</ele>
        <time>2015-04-12T08:57:37Z</time>
      </trkpt>
      <trkpt lat="49.95453" lon="5.38514">
        <ele>391</ele>
        <time>2015-04-12T08:57:42Z</time>
      </trkpt>
      <trkpt lat="49.95454" lon="5.38502">
        <ele>390</ele>
        <time>2015-04-12T08:57:48Z</time>
      </trkpt>
      <trkpt lat="49.95456" lon="5.38492">
        <ele>391</ele>
        <time>2015-04-12T08:57:53Z</time>
      </trkpt>
      <trkpt lat="49.95456" lon="5.38483">
        <ele>391</ele>
        <time>2015-04-12T08:57:58Z</time>
      </trkpt>
      <trkpt lat="49.95457" lon="5.38474">
        <ele>391</ele>
        <time>2015-04-12T08:58:03Z</time>
      </trkpt>
      <trkpt lat="49.95458" lon="5.38462">
        <ele>391</ele>
        <time>2015-04-12T08:58:09Z</time>
      </trkpt>
      <trkpt lat="49.95459" lon="5.3845">
        <ele>391</ele>
        <time>2015-04-12T08:58:15Z</time>
      </trkpt>
      <trkpt lat="49.9546" lon="5.38438">
        <ele>391</ele>
        <time>2015-04-12T08:58:21Z</time>
      </trkpt>
      <trkpt lat="49.95461" lon="5.38426">
        <ele>391</ele>
        <time>2015-04-12T08:58:27Z</time>
      </trkpt>
      <trkpt lat="49.95461" lon="5.38413">
        <ele>391</ele>
        <time>2015-04-12T08:58:33Z</time>
      </trkpt>
      <trkpt lat="49.95461" lon="5.38401">
        <ele>392</ele>
        <time>2015-04-12T08:58:39Z</time>
      </trkpt>
      <trkpt lat="49.95462" lon="5.38399">
        <ele>392</ele>
        <time>2015-04-12T08:58:44Z</time>
      </trkpt>
      <trkpt lat="49.95461" lon="5.38397">
        <ele>392</ele>
        <time>2015-04-12T08:58:49Z</time>
      </trkpt>
      <trkpt lat="49.95462" lon="5.38398">
        <ele>392</ele>
        <time>2015-04-12T08:58:55Z</time>
      </trkpt>
      <trkpt lat="49.95462" lon="5.38399">
        <ele>392</ele>
        <time>2015-04-12T08:59:00Z</time>
      </trkpt>
      <trkpt lat="49.95462" lon="5.38399">
        <ele>392</ele>
        <time>2015-04-12T08:59:06Z</time>
      </trkpt>
      <trkpt lat="49.95462" lon="5.38399">
        <ele>392</ele>
        <time>2015-04-12T08:59:13Z</time>
      </trkpt>
      <trkpt lat="49.95461" lon="5.38399">
        <ele>392</ele>
        <time>2015-04-12T08:59:19Z</time>
      </trkpt>
      <trkpt lat="49.9546" lon="5.38398">
        <ele>392</ele>
        <time>2015-04-12T08:59:24Z</time>
      </trkpt>
      <trkpt lat="49.9546" lon="5.38399">
        <ele>392</ele>
        <time>2015-04-12T08:59:30Z</time>
      </trkpt>
      <trkpt lat="49.95461" lon="5.384">
        <ele>392</ele>
        <time>2015-04-12T08:59:36Z</time>
      </trkpt>
      <trkpt lat="49.95461" lon="5.38401">
        <ele>392</ele>
        <time>2015-04-12T08:59:43Z</time>
      </trkpt>
      <trkpt lat="49.95461" lon="5.38396">
        <ele>392</ele>
        <time>2015-04-12T08:59:48Z</time>
      </trkpt>
      <trkpt lat="49.95462" lon="5.38392">
        <ele>391</ele>
        <time>2015-04-12T08:59:53Z</time>
      </trkpt>
      <trkpt lat="49.95463" lon="5.38382">
        <ele>391</ele>
        <time>2015-04-12T08:59:58Z</time>
      </trkpt>
      <trkpt lat="49.95464" lon="5.38371">
        <ele>391</ele>
        <time>2015-04-12T09:00:04Z</time>
      </trkpt>
      <trkpt lat="49.95465" lon="5.38358">
        <ele>392</ele>
        <time>2015-04-12T09:00:10Z</time>
      </trkpt>
      <trkpt lat="49.95466" lon="5.38348">
        <ele>392</ele>
        <time>2015-04-12T09:00:15Z</time>
      </trkpt>
      <trkpt lat="49.95466" lon="5.38338">
        <ele>392</ele>
        <time>2015-04-12T09:00:20Z</time>
      </trkpt>
      <trkpt lat="49.95467" lon="5.38325">
        <ele>391</ele>
        <time>2015-04-12T09:00:26Z</time>
      </trkpt>
      <trkpt lat="49.95468" lon="5.38315">
        <ele>391</ele>
        <time>2015-04-12T09:00:31Z</time>
      </trkpt>
      <trkpt lat="49.95468" lon="5.38302">
        <ele>391</ele>
        <time>2015-04-12T09:00:37Z</time>
      </trkpt>
      <trkpt lat="49.95468" lon="5.38289">
        <ele>391</ele>
        <time>2015-04-12T09:00:42Z</time>
      </trkpt>
      <trkpt lat="49.9547" lon="5.38278">
        <ele>390</ele>
        <time>2015-04-12T09:00:47Z</time>
      </trkpt>
      <trkpt lat="49.95471" lon="5.38265">
        <ele>391</ele>
        <time>2015-04-12T09:00:53Z</time>
      </trkpt>
      <trkpt lat="49.95474" lon="5.38255">
        <ele>391</ele>
        <time>2015-04-12T09:00:58Z</time>
      </trkpt>
      <trkpt lat="49.95477" lon="5.38245">
        <ele>392</ele>
        <time>2015-04-12T09:01:03Z</time>
      </trkpt>
      <trkpt lat="49.95479" lon="5.38235">
        <ele>392</ele>
        <time>2015-04-12T09:01:09Z</time>
      </trkpt>
      <trkpt lat="49.95479" lon="5.38226">
        <ele>392</ele>
        <time>2015-04-12T09:01:14Z</time>
      </trkpt>
      <trkpt lat="49.9548" lon="5.38214">
        <ele>392</ele>
        <time>2015-04-12T09:01:20Z</time>
      </trkpt>
      <trkpt lat="49.9548" lon="5.38205">
        <ele>392</ele>
        <time>2015-04-12T09:01:25Z</time>
      </trkpt>
      <trkpt lat="49.95481" lon="5.38195">
        <ele>392</ele>
        <time>2015-04-12T09:01:31Z</time>
      </trkpt>
      <trkpt lat="49.95482" lon="5.38186">
        <ele>392</ele>
        <time>2015-04-12T09:01:36Z</time>
      </trkpt>
      <trkpt lat="49.95484" lon="5.38177">
        <ele>392</ele>
        <time>2015-04-12T09:01:41Z</time>
      </trkpt>
      <trkpt lat="49.95485" lon="5.38166">
        <ele>393</ele>
        <time>2015-04-12T09:01:47Z</time>
      </trkpt>
      <trkpt lat="49.95486" lon="5.38155">
        <ele>392</ele>
        <time>2015-04-12T09:01:53Z</time>
      </trkpt>
      <trkpt lat="49.95488" lon="5.38143">
        <ele>393</ele>
        <time>2015-04-12T09:01:59Z</time>
      </trkpt>
      <trkpt lat="49.95488" lon="5.38133">
        <ele>392</ele>
        <time>2015-04-12T09:02:04Z</time>
      </trkpt>
      <trkpt lat="49.9549" lon="5.3812">
        <ele>392</ele>
        <time>2015-04-12T09:02:10Z</time>
      </trkpt>
      <trkpt lat="49.95491" lon="5.38107">
        <ele>392</ele>
        <time>2015-04-12T09:02:16Z</time>
      </trkpt>
      <trkpt lat="49.95493" lon="5.38097">
        <ele>393</ele>
        <time>2015-04-12T09:02:21Z</time>
      </trkpt>
      <trkpt lat="49.95495" lon="5.38087">
        <ele>393</ele>
        <time>2015-04-12T09:02:26Z</time>
      </trkpt>
      <trkpt lat="49.95497" lon="5.38077">
        <ele>393</ele>
        <time>2015-04-12T09:02:31Z</time>
      </trkpt>
      <trkpt lat="49.95499" lon="5.38067">
        <ele>394</ele>
        <time>2015-04-12T09:02:37Z</time>
      </trkpt>
      <trkpt lat="49.95501" lon="5.38055">
        <ele>394</ele>
        <time>2015-04-12T09:02:43Z</time>
      </trkpt>
      <trkpt lat="49.95503" lon="5.38044">
        <ele>394</ele>
        <time>2015-04-12T09:02:48Z</time>
      </trkpt>
      <trkpt lat="49.95505" lon="5.38033">
        <ele>394</ele>
        <time>2015-04-12T09:02:53Z</time>
      </trkpt>
      <trkpt lat="49.95507" lon="5.38022">
        <ele>394</ele>
        <time>2015-04-12T09:02:58Z</time>
      </trkpt>
      <trkpt lat="49.95509" lon="5.38011">
        <ele>393</ele>
        <time>2015-04-12T09:03:03Z</time>
      </trkpt>
      <trkpt lat="49.95511" lon="5.37998">
        <ele>393</ele>
        <time>2015-04-12T09:03:09Z</time>
      </trkpt>
      <trkpt lat="49.95513" lon="5.37988">
        <ele>393</ele>
        <time>2015-04-12T09:03:14Z</time>
      </trkpt>
      <trkpt lat="49.95515" lon="5.37975">
        <ele>394</ele>
        <time>2015-04-12T09:03:20Z</time>
      </trkpt>
      <trkpt lat="49.95517" lon="5.37966">
        <ele>395</ele>
        <time>2015-04-12T09:03:25Z</time>
      </trkpt>
      <trkpt lat="49.9552" lon="5.37954">
        <ele>395</ele>
        <time>2015-04-12T09:03:31Z</time>
      </trkpt>
      <trkpt lat="49.95521" lon="5.37944">
        <ele>395</ele>
        <time>2015-04-12T09:03:36Z</time>
      </trkpt>
      <trkpt lat="49.95523" lon="5.37933">
        <ele>395</ele>
        <time>2015-04-12T09:03:41Z</time>
      </trkpt>
      <trkpt lat="49.95525" lon="5.37924">
        <ele>396</ele>
        <time>2015-04-12T09:03:46Z</time>
      </trkpt>
      <trkpt lat="49.95528" lon="5.37912">
        <ele>396</ele>
        <time>2015-04-12T09:03:52Z</time>
      </trkpt>
      <trkpt lat="49.95529" lon="5.37903">
        <ele>396</ele>
        <time>2015-04-12T09:03:57Z</time>
      </trkpt>
      <trkpt lat="49.95531" lon="5.37891">
        <ele>396</ele>
        <time>2015-04-12T09:04:03Z</time>
      </trkpt>
      <trkpt lat="49.95533" lon="5.3788">
        <ele>395</ele>
        <time>2015-04-12T09:04:09Z</time>
      </trkpt>
      <trkpt lat="49.95536" lon="5.37869">
        <ele>396</ele>
        <time>2015-04-12T09:04:15Z</time>
      </trkpt>
      <trkpt lat="49.95537" lon="5.37859">
        <ele>396</ele>
        <time>2015-04-12T09:04:20Z</time>
      </trkpt>
      <trkpt lat="49.95538" lon="5.37846">
        <ele>396</ele>
        <time>2015-04-12T09:04:26Z</time>
      </trkpt>
      <trkpt lat="49.9554" lon="5.37837">
        <ele>396</ele>
        <time>2015-04-12T09:04:31Z</time>
      </trkpt>
      <trkpt lat="49.95541" lon="5.37828">
        <ele>396</ele>
        <time>2015-04-12T09:04:36Z</time>
      </trkpt>
      <trkpt lat="49.95543" lon="5.37816">
        <ele>397</ele>
        <time>2015-04-12T09:04:42Z</time>
      </trkpt>
      <trkpt lat="49.95545" lon="5.37808">
        <ele>397</ele>
        <time>2015-04-12T09:04:48Z</time>
      </trkpt>
      <trkpt lat="49.95547" lon="5.37796">
        <ele>397</ele>
        <time>2015-04-12T09:04:54Z</time>
      </trkpt>
      <trkpt lat="49.95548" lon="5.37786">
        <ele>396</ele>
        <time>2015-04-12T09:04:59Z</time>
      </trkpt>
      <trkpt lat="49.95549" lon="5.37775">
        <ele>397</ele>
        <time>2015-04-12T09:05:05Z</time>
      </trkpt>
      <trkpt lat="49.95552" lon="5.37764">
        <ele>397</ele>
        <time>2015-04-12T09:05:11Z</time>
      </trkpt>
      <trkpt lat="49.95553" lon="5.37755">
        <ele>397</ele>
        <time>2015-04-12T09:05:16Z</time>
      </trkpt>
      <trkpt lat="49.95552" lon="5.37752">
        <ele>397</ele>
        <time>2015-04-12T09:05:21Z</time>
      </trkpt>
      <trkpt lat="49.95553" lon="5.37746">
        <ele>397</ele>
        <time>2015-04-12T09:05:27Z</time>
      </trkpt>
      <trkpt lat="49.95552" lon="5.37743">
        <ele>397</ele>
        <time>2015-04-12T09:05:32Z</time>
      </trkpt>
      <trkpt lat="49.95551" lon="5.37736">
        <ele>397</ele>
        <time>2015-04-12T09:05:38Z</time>
      </trkpt>
      <trkpt lat="49.95551" lon="5.37732">
        <ele>397</ele>
        <time>2015-04-12T09:05:43Z</time>
      </trkpt>
      <trkpt lat="49.95551" lon="5.37725">
        <ele>397</ele>
        <time>2015-04-12T09:05:49Z</time>
      </trkpt>
      <trkpt lat="49.95552" lon="5.3772">
        <ele>397</ele>
        <time>2015-04-12T09:05:54Z</time>
      </trkpt>
      <trkpt lat="49.95551" lon="5.37716">
        <ele>397</ele>
        <time>2015-04-12T09:05:59Z</time>
      </trkpt>
      <trkpt lat="49.95549" lon="5.37712">
        <ele>398</ele>
        <time>2015-04-12T09:06:04Z</time>
      </trkpt>
      <trkpt lat="49.95547" lon="5.3771">
        <ele>397</ele>
        <time>2015-04-12T09:06:10Z</time>
      </trkpt>
      <trkpt lat="49.95546" lon="5.37708">
        <ele>397</ele>
        <time>2015-04-12T09:06:15Z</time>
      </trkpt>
      <trkpt lat="49.95546" lon="5.37709">
        <ele>397</ele>
        <time>2015-04-12T09:06:21Z</time>
      </trkpt>
      <trkpt lat="49.95547" lon="5.3771">
        <ele>396</ele>
        <time>2015-04-12T09:06:26Z</time>
      </trkpt>
      <trkpt lat="49.95549" lon="5.37708">
        <ele>397</ele>
        <time>2015-04-12T09:06:32Z</time>
      </trkpt>
      <trkpt lat="49.95552" lon="5.37703">
        <ele>396</ele>
        <time>2015-04-12T09:06:37Z</time>
      </trkpt>
      <trkpt lat="49.95554" lon="5.37698">
        <ele>397</ele>
        <time>2015-04-12T09:06:43Z</time>
      </trkpt>
      <trkpt lat="49.95555" lon="5.37695">
        <ele>397</ele>
        <time>2015-04-12T09:06:48Z</time>
      </trkpt>
      <trkpt lat="49.95555" lon="5.3769">
        <ele>398</ele>
        <time>2015-04-12T09:06:53Z</time>
      </trkpt>
      <trkpt lat="49.95552" lon="5.37684">
        <ele>398</ele>
        <time>2015-04-12T09:06:59Z</time>
      </trkpt>
      <trkpt lat="49.9555" lon="5.37677">
        <ele>398</ele>
        <time>2015-04-12T09:07:05Z</time>
      </trkpt>
      <trkpt lat="49.95549" lon="5.37676">
        <ele>398</ele>
        <time>2015-04-12T09:07:11Z</time>
      </trkpt>
      <trkpt lat="49.95546" lon="5.37674">
        <ele>398</ele>
        <time>2015-04-12T09:07:16Z</time>
      </trkpt>
      <trkpt lat="49.95541" lon="5.37668">
        <ele>399</ele>
        <time>2015-04-12T09:07:22Z</time>
      </trkpt>
      <trkpt lat="49.95538" lon="5.37663">
        <ele>399</ele>
        <time>2015-04-12T09:07:27Z</time>
      </trkpt>
      <trkpt lat="49.95533" lon="5.37657">
        <ele>399</ele>
        <time>2015-04-12T09:07:32Z</time>
      </trkpt>
      <trkpt lat="49.9553" lon="5.37651">
        <ele>400</ele>
        <time>2015-04-12T09:07:38Z</time>
      </trkpt>
      <trkpt lat="49.95525" lon="5.37646">
        <ele>401</ele>
        <time>2015-04-12T09:07:43Z</time>
      </trkpt>
      <trkpt lat="49.95522" lon="5.37641">
        <ele>401</ele>
        <time>2015-04-12T09:07:49Z</time>
      </trkpt>
      <trkpt lat="49.95518" lon="5.37637">
        <ele>401</ele>
        <time>2015-04-12T09:07:54Z</time>
      </trkpt>
      <trkpt lat="49.95515" lon="5.37632">
        <ele>402</ele>
        <time>2015-04-12T09:08:00Z</time>
      </trkpt>
      <trkpt lat="49.9551" lon="5.37627">
        <ele>402</ele>
        <time>2015-04-12T09:08:05Z</time>
      </trkpt>
      <trkpt lat="49.95505" lon="5.37619">
        <ele>403</ele>
        <time>2015-04-12T09:08:11Z</time>
      </trkpt>
      <trkpt lat="49.955" lon="5.37612">
        <ele>403</ele>
        <time>2015-04-12T09:08:17Z</time>
      </trkpt>
      <trkpt lat="49.95494" lon="5.37605">
        <ele>404</ele>
        <time>2015-04-12T09:08:23Z</time>
      </trkpt>
      <trkpt lat="49.95488" lon="5.37597">
        <ele>405</ele>
        <time>2015-04-12T09:08:29Z</time>
      </trkpt>
      <trkpt lat="49.95482" lon="5.3759">
        <ele>405</ele>
        <time>2015-04-12T09:08:34Z</time>
      </trkpt>
      <trkpt lat="49.95475" lon="5.37583">
        <ele>406</ele>
        <time>2015-04-12T09:08:40Z</time>
      </trkpt>
      <trkpt lat="49.9547" lon="5.37577">
        <ele>406</ele>
        <time>2015-04-12T09:08:46Z</time>
      </trkpt>
      <trkpt lat="49.95465" lon="5.37572">
        <ele>406</ele>
        <time>2015-04-12T09:08:51Z</time>
      </trkpt>
      <trkpt lat="49.9546" lon="5.37568">
        <ele>407</ele>
        <time>2015-04-12T09:08:56Z</time>
      </trkpt>
      <trkpt lat="49.95455" lon="5.37565">
        <ele>408</ele>
        <time>2015-04-12T09:09:02Z</time>
      </trkpt>
      <trkpt lat="49.9545" lon="5.37561">
        <ele>408</ele>
        <time>2015-04-12T09:09:07Z</time>
      </trkpt>
      <trkpt lat="49.95445" lon="5.37558">
        <ele>409</ele>
        <time>2015-04-12T09:09:12Z</time>
      </trkpt>
      <trkpt lat="49.95439" lon="5.37552">
        <ele>410</ele>
        <time>2015-04-12T09:09:18Z</time>
      </trkpt>
      <trkpt lat="49.95434" lon="5.37548">
        <ele>411</ele>
        <time>2015-04-12T09:09:24Z</time>
      </trkpt>
      <trkpt lat="49.95428" lon="5.37543">
        <ele>411</ele>
        <time>2015-04-12T09:09:30Z</time>
      </trkpt>
      <trkpt lat="49.95425" lon="5.3754">
        <ele>411</ele>
        <time>2015-04-12T09:09:35Z</time>
      </trkpt>
      <trkpt lat="49.9542" lon="5.37539">
        <ele>411</ele>
        <time>2015-04-12T09:09:41Z</time>
      </trkpt>
      <trkpt lat="49.95418" lon="5.37535">
        <ele>411</ele>
        <time>2015-04-12T09:09:46Z</time>
      </trkpt>
      <trkpt lat="49.95417" lon="5.37532">
        <ele>411</ele>
        <time>2015-04-12T09:09:52Z</time>
      </trkpt>
      <trkpt lat="49.95414" lon="5.37529">
        <ele>410</ele>
        <time>2015-04-12T09:09:58Z</time>
      </trkpt>
      <trkpt lat="49.95409" lon="5.37528">
        <ele>411</ele>
        <time>2015-04-12T09:10:03Z</time>
      </trkpt>
      <trkpt lat="49.95404" lon="5.37526">
        <ele>412</ele>
        <time>2015-04-12T09:10:09Z</time>
      </trkpt>
      <trkpt lat="49.954" lon="5.37525">
        <ele>413</ele>
        <time>2015-04-12T09:10:14Z</time>
      </trkpt>
      <trkpt lat="49.95395" lon="5.37521">
        <ele>413</ele>
        <time>2015-04-12T09:10:20Z</time>
      </trkpt>
      <trkpt lat="49.95389" lon="5.37517">
        <ele>414</ele>
        <time>2015-04-12T09:10:26Z</time>
      </trkpt>
      <trkpt lat="49.95385" lon="5.37514">
        <ele>414</ele>
        <time>2015-04-12T09:10:31Z</time>
      </trkpt>
      <trkpt lat="49.95381" lon="5.3751">
        <ele>415</ele>
        <time>2015-04-12T09:10:36Z</time>
      </trkpt>
      <trkpt lat="49.95375" lon="5.37505">
        <ele>416</ele>
        <time>2015-04-12T09:10:42Z</time>
      </trkpt>
      <trkpt lat="49.95369" lon="5.37501">
        <ele>416</ele>
        <time>2015-04-12T09:10:48Z</time>
      </trkpt>
      <trkpt lat="49.95364" lon="5.37496">
        <ele>417</ele>
        <time>2015-04-12T09:10:53Z</time>
      </trkpt>
      <trkpt lat="49.95357" lon="5.37489">
        <ele>418</ele>
        <time>2015-04-12T09:10:59Z</time>
      </trkpt>
      <trkpt lat="49.95351" lon="5.37482">
        <ele>419</ele>
        <time>2015-04-12T09:11:05Z</time>
      </trkpt>
      <trkpt lat="49.95346" lon="5.37475">
        <ele>420</ele>
        <time>2015-04-12T09:11:11Z</time>
      </trkpt>
      <trkpt lat="49.95341" lon="5.37469">
        <ele>420</ele>
        <time>2015-04-12T09:11:16Z</time>
      </trkpt>
      <trkpt lat="49.95335" lon="5.37464">
        <ele>421</ele>
        <time>2015-04-12T09:11:22Z</time>
      </trkpt>
      <trkpt lat="49.95331" lon="5.3746">
        <ele>422</ele>
        <time>2015-04-12T09:11:27Z</time>
      </trkpt>
      <trkpt lat="49.95327" lon="5.37455">
        <ele>422</ele>
        <time>2015-04-12T09:11:32Z</time>
      </trkpt>
      <trkpt lat="49.95322" lon="5.3745">
        <ele>422</ele>
        <time>2015-04-12T09:11:37Z</time>
      </trkpt>
      <trkpt lat="49.95317" lon="5.37445">
        <ele>422</ele>
        <time>2015-04-12T09:11:42Z</time>
      </trkpt>
      <trkpt lat="49.95311" lon="5.3744">
        <ele>423</ele>
        <time>2015-04-12T09:11:48Z</time>
      </trkpt>
      <trkpt lat="49.95305" lon="5.37436">
        <ele>423</ele>
        <time>2015-04-12T09:11:54Z</time>
      </trkpt>
      <trkpt lat="49.953" lon="5.37433">
        <ele>424</ele>
        <time>2015-04-12T09:12:00Z</time>
      </trkpt>
      <trkpt lat="49.95295" lon="5.37431">
        <ele>424</ele>
        <time>2015-04-12T09:12:06Z</time>
      </trkpt>
      <trkpt lat="49.95292" lon="5.3743">
        <ele>424</ele>
        <time>2015-04-12T09:12:11Z</time>
      </trkpt>
      <trkpt lat="49.95288" lon="5.37431">
        <ele>425</ele>
        <time>2015-04-12T09:12:17Z</time>
      </trkpt>
      <trkpt lat="49.95285" lon="5.37429">
        <ele>425</ele>
        <time>2015-04-12T09:12:22Z</time>
      </trkpt>
      <trkpt lat="49.9528" lon="5.37428">
        <ele>425</ele>
        <time>2015-04-12T09:12:27Z</time>
      </trkpt>
      <trkpt lat="49.95275" lon="5.37428">
        <ele>425</ele>
        <time>2015-04-12T09:12:33Z</time>
      </trkpt>
      <trkpt lat="49.95274" lon="5.3743">
        <ele>426</ele>
        <time>2015-04-12T09:12:38Z</time>
      </trkpt>
      <trkpt lat="49.95272" lon="5.3743">
        <ele>426</ele>
        <time>2015-04-12T09:12:44Z</time>
      </trkpt>
      <trkpt lat="49.95267" lon="5.37431">
        <ele>426</ele>
        <time>2015-04-12T09:12:49Z</time>
      </trkpt>
      <trkpt lat="49.95263" lon="5.37432">
        <ele>426</ele>
        <time>2015-04-12T09:12:55Z</time>
      </trkpt>
      <trkpt lat="49.95259" lon="5.37435">
        <ele>427</ele>
        <time>2015-04-12T09:13:00Z</time>
      </trkpt>
      <trkpt lat="49.95254" lon="5.37438">
        <ele>427</ele>
        <time>2015-04-12T09:13:06Z</time>
      </trkpt>
      <trkpt lat="49.9525" lon="5.3744">
        <ele>428</ele>
        <time>2015-04-12T09:13:11Z</time>
      </trkpt>
      <trkpt lat="49.95246" lon="5.37443">
        <ele>428</ele>
        <time>2015-04-12T09:13:16Z</time>
      </trkpt>
      <trkpt lat="49.95242" lon="5.37445">
        <ele>429</ele>
        <time>2015-04-12T09:13:21Z</time>
      </trkpt>
      <trkpt lat="49.95236" lon="5.37447">
        <ele>429</ele>
        <time>2015-04-12T09:13:27Z</time>
      </trkpt>
      <trkpt lat="49.95231" lon="5.37449">
        <ele>429</ele>
        <time>2015-04-12T09:13:33Z</time>
      </trkpt>
      <trkpt lat="49.95227" lon="5.37452">
        <ele>430</ele>
        <time>2015-04-12T09:13:38Z</time>
      </trkpt>
      <trkpt lat="49.95222" lon="5.37454">
        <ele>430</ele>
        <time>2015-04-12T09:13:44Z</time>
      </trkpt>
      <trkpt lat="49.95217" lon="5.37456">
        <ele>430</ele>
        <time>2015-04-12T09:13:50Z</time>
      </trkpt>
      <trkpt lat="49.95213" lon="5.37459">
        <ele>431</ele>
        <time>2015-04-12T09:13:55Z</time>
      </trkpt>
      <trkpt lat="49.95208" lon="5.37461">
        <ele>431</ele>
        <time>2015-04-12T09:14:00Z</time>
      </trkpt>
      <trkpt lat="49.95203" lon="5.37464">
        <ele>432</ele>
        <time>2015-04-12T09:14:05Z</time>
      </trkpt>
      <trkpt lat="49.95198" lon="5.37468">
        <ele>432</ele>
        <time>2015-04-12T09:14:11Z</time>
      </trkpt>
      <trkpt lat="49.95195" lon="5.37471">
        <ele>433</ele>
        <time>2015-04-12T09:14:16Z</time>
      </trkpt>
      <trkpt lat="49.95192" lon="5.37474">
        <ele>433</ele>
        <time>2015-04-12T09:14:21Z</time>
      </trkpt>
      <trkpt lat="49.95187" lon="5.37477">
        <ele>433</ele>
        <time>2015-04-12T09:14:27Z</time>
      </trkpt>
      <trkpt lat="49.95185" lon="5.37478">
        <ele>433</ele>
        <time>2015-04-12T09:14:32Z</time>
      </trkpt>
      <trkpt lat="49.95183" lon="5.37476">
        <ele>433</ele>
        <time>2015-04-12T09:14:38Z</time>
      </trkpt>
      <trkpt lat="49.95181" lon="5.37472">
        <ele>433</ele>
        <time>2015-04-12T09:14:44Z</time>
      </trkpt>
      <trkpt lat="49.95179" lon="5.3747">
        <ele>433</ele>
        <time>2015-04-12T09:14:49Z</time>
      </trkpt>
      <trkpt lat="49.95179" lon="5.37469">
        <ele>433</ele>
        <time>2015-04-12T09:14:54Z</time>
      </trkpt>
      <trkpt lat="49.95182" lon="5.3747">
        <ele>433</ele>
        <time>2015-04-12T09:14:59Z</time>
      </trkpt>
      <trkpt lat="49.95186" lon="5.37468">
        <ele>433</ele>
        <time>2015-04-12T09:15:05Z</time>
      </trkpt>
      <trkpt lat="49.95185" lon="5.37467">
        <ele>433</ele>
        <time>2015-04-12T09:15:10Z</time>
      </trkpt>
      <trkpt lat="49.95184" lon="5.37469">
        <ele>433</ele>
        <time>2015-04-12T09:15:15Z</time>
      </trkpt>
      <trkpt lat="49.95184" lon="5.37471">
        <ele>433</ele>
        <time>2015-04-12T09:15:21Z</time>
      </trkpt>
      <trkpt lat="49.95186" lon="5.37471">
        <ele>433</ele>
        <time>2015-04-12T09:15:26Z</time>
      </trkpt>
      <trkpt lat="49.95187" lon="5.3747">
        <ele>433</ele>
        <time>2015-04-12T09:15:31Z</time>
      </trkpt>
      <trkpt lat="49.95191" lon="5.37469">
        <ele>433</ele>
        <time>2015-04-12T09:15:37Z</time>
      </trkpt>
      <trkpt lat="49.9519" lon="5.37468">
        <ele>433</ele>
        <time>2015-04-12T09:15:42Z</time>
      </trkpt>
      <trkpt lat="49.95187" lon="5.3747">
        <ele>433</ele>
        <time>2015-04-12T09:15:47Z</time>
      </trkpt>
      <trkpt lat="49.95185" lon="5.37471">
        <ele>433</ele>
        <time>2015-04-12T09:15:53Z</time>
      </trkpt>
      <trkpt lat="49.9518" lon="5.37475">
        <ele>434</ele>
        <time>2015-04-12T09:15:59Z</time>
      </trkpt>
      <trkpt lat="49.95175" lon="5.37478">
        <ele>434</ele>
        <time>2015-04-12T09:16:04Z</time>
      </trkpt>
      <trkpt lat="49.9517" lon="5.37483">
        <ele>434</ele>
        <time>2015-04-12T09:16:09Z</time>
      </trkpt>
      <trkpt lat="49.95163" lon="5.37487">
        <ele>435</ele>
        <time>2015-04-12T09:16:15Z</time>
      </trkpt>
      <trkpt lat="49.95157" lon="5.37491">
        <ele>435</ele>
        <time>2015-04-12T09:16:20Z</time>
      </trkpt>
      <trkpt lat="49.95152" lon="5.37497">
        <ele>435</ele>
        <time>2015-04-12T09:16:26Z</time>
      </trkpt>
      <trkpt lat="49.95148" lon="5.375">
        <ele>435</ele>
        <time>2015-04-12T09:16:31Z</time>
      </trkpt>
      <trkpt lat="49.95142" lon="5.37502">
        <ele>435</ele>
        <time>2015-04-12T09:16:36Z</time>
      </trkpt>
      <trkpt lat="49.95137" lon="5.37506">
        <ele>435</ele>
        <time>2015-04-12T09:16:42Z</time>
      </trkpt>
      <trkpt lat="49.95133" lon="5.37509">
        <ele>436</ele>
        <time>2015-04-12T09:16:47Z</time>
      </trkpt>
      <trkpt lat="49.95126" lon="5.37513">
        <ele>436</ele>
        <time>2015-04-12T09:16:53Z</time>
      </trkpt>
      <trkpt lat="49.95121" lon="5.37517">
        <ele>436</ele>
        <time>2015-04-12T09:16:58Z</time>
      </trkpt>
      <trkpt lat="49.95117" lon="5.37522">
        <ele>436</ele>
        <time>2015-04-12T09:17:04Z</time>
      </trkpt>
      <trkpt lat="49.95115" lon="5.37524">
        <ele>436</ele>
        <time>2015-04-12T09:17:09Z</time>
      </trkpt>
      <trkpt lat="49.95111" lon="5.37527">
        <ele>437</ele>
        <time>2015-04-12T09:17:15Z</time>
      </trkpt>
      <trkpt lat="49.95108" lon="5.37528">
        <ele>436</ele>
        <time>2015-04-12T09:17:20Z</time>
      </trkpt>
      <trkpt lat="49.95103" lon="5.37529">
        <ele>436</ele>
        <time>2015-04-12T09:17:26Z</time>
      </trkpt>
      <trkpt lat="49.95098" lon="5.37531">
        <ele>436</ele>
        <time>2015-04-12T09:17:31Z</time>
      </trkpt>
      <trkpt lat="49.95094" lon="5.37535">
        <ele>437</ele>
        <time>2015-04-12T09:17:37Z</time>
      </trkpt>
      <trkpt lat="49.95089" lon="5.37542">
        <ele>437</ele>
        <time>2015-04-12T09:17:43Z</time>
      </trkpt>
      <trkpt lat="49.95086" lon="5.37547">
        <ele>437</ele>
        <time>2015-04-12T09:17:49Z</time>
      </trkpt>
      <trkpt lat="49.95085" lon="5.37548">
        <ele>437</ele>
        <time>2015-04-12T09:17:54Z</time>
      </trkpt>
      <trkpt lat="49.95084" lon="5.37548">
        <ele>437</ele>
        <time>2015-04-12T09:18:00Z</time>
      </trkpt>
      <trkpt lat="49.95082" lon="5.3755">
        <ele>437</ele>
        <time>2015-04-12T09:18:06Z</time>
      </trkpt>
      <trkpt lat="49.95079" lon="5.37554">
        <ele>438</ele>
        <time>2015-04-12T09:18:11Z</time>
      </trkpt>
      <trkpt lat="49.95075" lon="5.37559">
        <ele>438</ele>
        <time>2015-04-12T09:18:16Z</time>
      </trkpt>
      <trkpt lat="49.95072" lon="5.37564">
        <ele>438</ele>
        <time>2015-04-12T09:18:21Z</time>
      </trkpt>
      <trkpt lat="49.95068" lon="5.3757">
        <ele>438</ele>
        <time>2015-04-12T09:18:27Z</time>
      </trkpt>
      <trkpt lat="49.95066" lon="5.37575">
        <ele>439</ele>
        <time>2015-04-12T09:18:32Z</time>
      </trkpt>
      <trkpt lat="49.95063" lon="5.37581">
        <ele>439</ele>
        <time>2015-04-12T09:18:37Z</time>
      </trkpt>
      <trkpt lat="49.95059" lon="5.37589">
        <ele>439</ele>
        <time>2015-04-12T09:18:43Z</time>
      </trkpt>
      <trkpt lat="49.95056" lon="5.37595">
        <ele>439</ele>
        <time>2015-04-12T09:18:48Z</time>
      </trkpt>
      <trkpt lat="49.95054" lon="5.37602">
        <ele>439</ele>
        <time>2015-04-12T09:18:54Z</time>
      </trkpt>
      <trkpt lat="49.95052" lon="5.37605">
        <ele>439</ele>
        <time>2015-04-12T09:18:59Z</time>
      </trkpt>
      <trkpt lat="49.9505" lon="5.37609">
        <ele>439</ele>
        <time>2015-04-12T09:19:04Z</time>
      </trkpt>
      <trkpt lat="49.95047" lon="5.37613">
        <ele>439</ele>
        <time>2015-04-12T09:19:10Z</time>
      </trkpt>
      <trkpt lat="49.95045" lon="5.37619">
        <ele>440</ele>
        <time>2015-04-12T09:19:15Z</time>
      </trkpt>
      <trkpt lat="49.95043" lon="5.37626">
        <ele>440</ele>
        <time>2015-04-12T09:19:20Z</time>
      </trkpt>
      <trkpt lat="49.95041" lon="5.37635">
        <ele>440</ele>
        <time>2015-04-12T09:19:26Z</time>
      </trkpt>
      <trkpt lat="49.95039" lon="5.37644">
        <ele>440</ele>
        <time>2015-04-12T09:19:32Z</time>
      </trkpt>
      <trkpt lat="49.95037" lon="5.37652">
        <ele>441</ele>
        <time>2015-04-12T09:19:37Z</time>
      </trkpt>
      <trkpt lat="49.95036" lon="5.37662">
        <ele>442</ele>
        <time>2015-04-12T09:19:43Z</time>
      </trkpt>
      <trkpt lat="49.95034" lon="5.37671">
        <ele>442</ele>
        <time>2015-04-12T09:19:49Z</time>
      </trkpt>
      <trkpt lat="49.95031" lon="5.3768">
        <ele>443</ele>
        <time>2015-04-12T09:19:54Z</time>
      </trkpt>
      <trkpt lat="49.95029" lon="5.37689">
        <ele>443</ele>
        <time>2015-04-12T09:20:00Z</time>
      </trkpt>
      <trkpt lat="49.95027" lon="5.37696">
        <ele>443</ele>
        <time>2015-04-12T09:20:05Z</time>
      </trkpt>
      <trkpt lat="49.95026" lon="5.37705">
        <ele>444</ele>
        <time>2015-04-12T09:20:10Z</time>
      </trkpt>
      <trkpt lat="49.95023" lon="5.37715">
        <ele>444</ele>
        <time>2015-04-12T09:20:16Z</time>
      </trkpt>
      <trkpt lat="49.95021" lon="5.37725">
        <ele>444</ele>
        <time>2015-04-12T09:20:21Z</time>
      </trkpt>
      <trkpt lat="49.9502" lon="5.37734">
        <ele>444</ele>
        <time>2015-04-12T09:20:26Z</time>
      </trkpt>
      <trkpt lat="49.95018" lon="5.3774">
        <ele>444</ele>
        <time>2015-04-12T09:20:31Z</time>
      </trkpt>
      <trkpt lat="49.95016" lon="5.37748">
        <ele>444</ele>
        <time>2015-04-12T09:20:36Z</time>
      </trkpt>
      <trkpt lat="49.95014" lon="5.37758">
        <ele>445</ele>
        <time>2015-04-12T09:20:42Z</time>
      </trkpt>
      <trkpt lat="49.95012" lon="5.37767">
        <ele>445</ele>
        <time>2015-04-12T09:20:47Z</time>
      </trkpt>
      <trkpt lat="49.9501" lon="5.37776">
        <ele>446</ele>
        <time>2015-04-12T09:20:52Z</time>
      </trkpt>
      <trkpt lat="49.95008" lon="5.37784">
        <ele>446</ele>
        <time>2015-04-12T09:20:57Z</time>
      </trkpt>
      <trkpt lat="49.95005" lon="5.37795">
        <ele>446</ele>
        <time>2015-04-12T09:21:03Z</time>
      </trkpt>
      <trkpt lat="49.95002" lon="5.37805">
        <ele>447</ele>
        <time>2015-04-12T09:21:08Z</time>
      </trkpt>
      <trkpt lat="49.95" lon="5.37813">
        <ele>447</ele>
        <time>2015-04-12T09:21:13Z</time>
      </trkpt>
      <trkpt lat="49.94999" lon="5.37822">
        <ele>447</ele>
        <time>2015-04-12T09:21:18Z</time>
      </trkpt>
      <trkpt lat="49.94995" lon="5.37834">
        <ele>447</ele>
        <time>2015-04-12T09:21:24Z</time>
      </trkpt>
      <trkpt lat="49.94994" lon="5.37842">
        <ele>448</ele>
        <time>2015-04-12T09:21:29Z</time>
      </trkpt>
      <trkpt lat="49.94993" lon="5.37851">
        <ele>448</ele>
        <time>2015-04-12T09:21:35Z</time>
      </trkpt>
      <trkpt lat="49.94991" lon="5.37862">
        <ele>448</ele>
        <time>2015-04-12T09:21:41Z</time>
      </trkpt>
      <trkpt lat="49.94988" lon="5.37874">
        <ele>449</ele>
        <time>2015-04-12T09:21:47Z</time>
      </trkpt>
      <trkpt lat="49.94986" lon="5.37884">
        <ele>449</ele>
        <time>2015-04-12T09:21:53Z</time>
      </trkpt>
      <trkpt lat="49.94983" lon="5.37893">
        <ele>449</ele>
        <time>2015-04-12T09:21:59Z</time>
      </trkpt>
      <trkpt lat="49.94981" lon="5.37901">
        <ele>449</ele>
        <time>2015-04-12T09:22:05Z</time>
      </trkpt>
      <trkpt lat="49.94981" lon="5.37907">
        <ele>449</ele>
        <time>2015-04-12T09:22:11Z</time>
      </trkpt>
      <trkpt lat="49.94979" lon="5.37913">
        <ele>450</ele>
        <time>2015-04-12T09:22:17Z</time>
      </trkpt>
      <trkpt lat="49.94978" lon="5.37918">
        <ele>450</ele>
        <time>2015-04-12T09:22:22Z</time>
      </trkpt>
      <trkpt lat="49.94977" lon="5.37923">
        <ele>450</ele>
        <time>2015-04-12T09:22:28Z</time>
      </trkpt>
      <trkpt lat="49.94976" lon="5.37928">
        <ele>450</ele>
        <time>2015-04-12T09:22:33Z</time>
      </trkpt>
      <trkpt lat="49.94975" lon="5.37933">
        <ele>450</ele>
        <time>2015-04-12T09:22:38Z</time>
      </trkpt>
      <trkpt lat="49.94973" lon="5.3794">
        <ele>450</ele>
        <time>2015-04-12T09:22:44Z</time>
      </trkpt>
      <trkpt lat="49.9497" lon="5.37945">
        <ele>450</ele>
        <time>2015-04-12T09:22:49Z</time>
      </trkpt>
      <trkpt lat="49.94967" lon="5.37952">
        <ele>451</ele>
        <time>2015-04-12T09:22:55Z</time>
      </trkpt>
      <trkpt lat="49.94964" lon="5.37956">
        <ele>451</ele>
        <time>2015-04-12T09:23:00Z</time>
      </trkpt>
      <trkpt lat="49.94962" lon="5.37961">
        <ele>450</ele>
        <time>2015-04-12T09:23:06Z</time>
      </trkpt>
      <trkpt lat="49.94962" lon="5.37963">
        <ele>450</ele>
        <time>2015-04-12T09:23:12Z</time>
      </trkpt>
      <trkpt lat="49.94962" lon="5.3797">
        <ele>450</ele>
        <time>2015-04-12T09:23:18Z</time>
      </trkpt>
      <trkpt lat="49.94963" lon="5.37977">
        <ele>450</ele>
        <time>2015-04-12T09:23:23Z</time>
      </trkpt>
      <trkpt lat="49.94966" lon="5.37983">
        <ele>451</ele>
        <time>2015-04-12T09:23:28Z</time>
      </trkpt>
      <trkpt lat="49.94969" lon="5.3799">
        <ele>451</ele>
        <time>2015-04-12T09:23:34Z</time>
      </trkpt>
      <trkpt lat="49.94973" lon="5.37995">
        <ele>451</ele>
        <time>2015-04-12T09:23:39Z</time>
      </trkpt>
      <trkpt lat="49.94976" lon="5.38002">
        <ele>452</ele>
        <time>2015-04-12T09:23:45Z</time>
      </trkpt>
      <trkpt lat="49.9498" lon="5.38008">
        <ele>452</ele>
        <time>2015-04-12T09:23:50Z</time>
      </trkpt>
      <trkpt lat="49.94983" lon="5.38016">
        <ele>452</ele>
        <time>2015-04-12T09:23:55Z</time>
      </trkpt>
      <trkpt lat="49.94987" lon="5.38023">
        <ele>453</ele>
        <time>2015-04-12T09:24:00Z</time>
      </trkpt>
      <trkpt lat="49.94991" lon="5.38032">
        <ele>453</ele>
        <time>2015-04-12T09:24:06Z</time>
      </trkpt>
      <trkpt lat="49.94995" lon="5.3804">
        <ele>454</ele>
        <time>2015-04-12T09:24:12Z</time>
      </trkpt>
      <trkpt lat="49.94999" lon="5.38049">
        <ele>454</ele>
        <time>2015-04-12T09:24:18Z</time>
      </trkpt>
      <trkpt lat="49.95002" lon="5.38056">
        <ele>455</ele>
        <time>2015-04-12T09:24:23Z</time>
      </trkpt>
      <trkpt lat="49.95006" lon="5.38065">
        <ele>455</ele>
        <time>2015-04-12T09:24:29Z</time>
      </trkpt>
      <trkpt lat="49.9501" lon="5.38072">
        <ele>455</ele>
        <time>2015-04-12T09:24:34Z</time>
      </trkpt>
      <trkpt lat="49.95012" lon="5.38075">
        <ele>455</ele>
        <time>2015-04-12T09:24:39Z</time>
      </trkpt>
      <trkpt lat="49.95015" lon="5.38081">
        <ele>455</ele>
        <time>2015-04-12T09:24:45Z</time>
      </trkpt>
      <trkpt lat="49.95019" lon="5.38089">
        <ele>455</ele>
        <time>2015-04-12T09:24:50Z</time>
      </trkpt>
      <trkpt lat="49.95022" lon="5.38097">
        <ele>455</ele>
        <time>2015-04-12T09:24:55Z</time>
      </trkpt>
      <trkpt lat="49.95026" lon="5.38106">
        <ele>456</ele>
        <time>2015-04-12T09:25:01Z</time>
      </trkpt>
      <trkpt lat="49.95029" lon="5.38113">
        <ele>456</ele>
        <time>2015-04-12T09:25:06Z</time>
      </trkpt>
      <trkpt lat="49.95033" lon="5.3812">
        <ele>456</ele>
        <time>2015-04-12T09:25:11Z</time>
      </trkpt>
      <trkpt lat="49.95037" lon="5.38129">
        <ele>456</ele>
        <time>2015-04-12T09:25:17Z</time>
      </trkpt>
      <trkpt lat="49.95039" lon="5.38137">
        <ele>456</ele>
        <time>2015-04-12T09:25:22Z</time>
      </trkpt>
      <trkpt lat="49.95044" lon="5.38146">
        <ele>456</ele>
        <time>2015-04-12T09:25:28Z</time>
      </trkpt>
      <trkpt lat="49.95047" lon="5.38154">
        <ele>456</ele>
        <time>2015-04-12T09:25:34Z</time>
      </trkpt>
      <trkpt lat="49.95052" lon="5.38164">
        <ele>456</ele>
        <time>2015-04-12T09:25:40Z</time>
      </trkpt>
      <trkpt lat="49.95055" lon="5.38172">
        <ele>457</ele>
        <time>2015-04-12T09:25:46Z</time>
      </trkpt>
      <trkpt lat="49.95057" lon="5.38173">
        <ele>456</ele>
        <time>2015-04-12T09:25:52Z</time>
      </trkpt>
      <trkpt lat="49.95059" lon="5.38174">
        <ele>457</ele>
        <time>2015-04-12T09:25:57Z</time>
      </trkpt>
      <trkpt lat="49.9506" lon="5.38178">
        <ele>457</ele>
        <time>2015-04-12T09:26:03Z</time>
      </trkpt>
      <trkpt lat="49.9506" lon="5.38186">
        <ele>457</ele>
        <time>2015-04-12T09:26:08Z</time>
      </trkpt>
      <trkpt lat="49.95059" lon="5.38195">
        <ele>457</ele>
        <time>2015-04-12T09:26:13Z</time>
      </trkpt>
      <trkpt lat="49.95055" lon="5.38205">
        <ele>457</ele>
        <time>2015-04-12T09:26:19Z</time>
      </trkpt>
      <trkpt lat="49.9505" lon="5.38211">
        <ele>456</ele>
        <time>2015-04-12T09:26:24Z</time>
      </trkpt>
      <trkpt lat="49.95043" lon="5.38218">
        <ele>457</ele>
        <time>2015-04-12T09:26:30Z</time>
      </trkpt>
      <trkpt lat="49.95036" lon="5.38223">
        <ele>457</ele>
        <time>2015-04-12T09:26:36Z</time>
      </trkpt>
      <trkpt lat="49.9503" lon="5.38228">
        <ele>457</ele>
        <time>2015-04-12T09:26:42Z</time>
      </trkpt>
      <trkpt lat="49.95028" lon="5.3823">
        <ele>457</ele>
        <time>2015-04-12T09:26:47Z</time>
      </trkpt>
      <trkpt lat="49.95029" lon="5.3823">
        <ele>457</ele>
        <time>2015-04-12T09:26:53Z</time>
      </trkpt>
      <trkpt lat="49.95029" lon="5.38229">
        <ele>457</ele>
        <time>2015-04-12T09:26:59Z</time>
      </trkpt>
      <trkpt lat="49.95029" lon="5.38227">
        <ele>457</ele>
        <time>2015-04-12T09:27:04Z</time>
      </trkpt>
      <trkpt lat="49.9503" lon="5.38223">
        <ele>457</ele>
        <time>2015-04-12T09:27:10Z</time>
      </trkpt>
      <trkpt lat="49.95029" lon="5.38221">
        <ele>457</ele>
        <time>2015-04-12T09:27:15Z</time>
      </trkpt>
      <trkpt lat="49.95029" lon="5.38222">
        <ele>457</ele>
        <time>2015-04-12T09:27:21Z</time>
      </trkpt>
      <trkpt lat="49.95031" lon="5.38224">
        <ele>457</ele>
        <time>2015-04-12T09:27:27Z</time>
      </trkpt>
      <trkpt lat="49.95033" lon="5.38223">
        <ele>457</ele>
        <time>2015-04-12T09:27:32Z</time>
      </trkpt>
      <trkpt lat="49.95032" lon="5.38224">
        <ele>457</ele>
        <time>2015-04-12T09:27:38Z</time>
      </trkpt>
      <trkpt lat="49.9503" lon="5.3822">
        <ele>457</ele>
        <time>2015-04-12T09:27:43Z</time>
      </trkpt>
      <trkpt lat="49.95029" lon="5.38219">
        <ele>457</ele>
        <time>2015-04-12T09:27:48Z</time>
      </trkpt>
      <trkpt lat="49.95029" lon="5.38223">
        <ele>457</ele>
        <time>2015-04-12T09:27:53Z</time>
      </trkpt>
      <trkpt lat="49.95027" lon="5.38225">
        <ele>457</ele>
        <time>2015-04-12T09:27:59Z</time>
      </trkpt>
      <trkpt lat="49.95025" lon="5.38226">
        <ele>457</ele>
        <time>2015-04-12T09:28:04Z</time>
      </trkpt>
      <trkpt lat="49.9502" lon="5.38229">
        <ele>457</ele>
        <time>2015-04-12T09:28:10Z</time>
      </trkpt>
      <trkpt lat="49.95015" lon="5.38233">
        <ele>458</ele>
        <time>2015-04-12T09:28:15Z</time>
      </trkpt>
      <trkpt lat="49.95011" lon="5.38236">
        <ele>458</ele>
        <time>2015-04-12T09:28:20Z</time>
      </trkpt>
      <trkpt lat="49.95006" lon="5.38239">
        <ele>458</ele>
        <time>2015-04-12T09:28:25Z</time>
      </trkpt>
      <trkpt lat="49.95" lon="5.38244">
        <ele>458</ele>
        <time>2015-04-12T09:28:31Z</time>
      </trkpt>
      <trkpt lat="49.94994" lon="5.38249">
        <ele>458</ele>
        <time>2015-04-12T09:28:37Z</time>
      </trkpt>
      <trkpt lat="49.94989" lon="5.38254">
        <ele>458</ele>
        <time>2015-04-12T09:28:42Z</time>
      </trkpt>
      <trkpt lat="49.94983" lon="5.3826">
        <ele>458</ele>
        <time>2015-04-12T09:28:47Z</time>
      </trkpt>
      <trkpt lat="49.94978" lon="5.38265">
        <ele>458</ele>
        <time>2015-04-12T09:28:52Z</time>
      </trkpt>
      <trkpt lat="49.94971" lon="5.38272">
        <ele>458</ele>
        <time>2015-04-12T09:28:58Z</time>
      </trkpt>
      <trkpt lat="49.94966" lon="5.38277">
        <ele>458</ele>
        <time>2015-04-12T09:29:03Z</time>
      </trkpt>
      <trkpt lat="49.94963" lon="5.38283">
        <ele>459</ele>
        <time>2015-04-12T09:29:08Z</time>
      </trkpt>
      <trkpt lat="49.9496" lon="5.38289">
        <ele>459</ele>
        <time>2015-04-12T09:29:14Z</time>
      </trkpt>
      <trkpt lat="49.94955" lon="5.38294">
        <ele>459</ele>
        <time>2015-04-12T09:29:19Z</time>
      </trkpt>
      <trkpt lat="49.94949" lon="5.38299">
        <ele>459</ele>
        <time>2015-04-12T09:29:25Z</time>
      </trkpt>
      <trkpt lat="49.94944" lon="5.38304">
        <ele>459</ele>
        <time>2015-04-12T09:29:30Z</time>
      </trkpt>
      <trkpt lat="49.94939" lon="5.3831">
        <ele>459</ele>
        <time>2015-04-12T09:29:36Z</time>
      </trkpt>
      <trkpt lat="49.94935" lon="5.38313">
        <ele>459</ele>
        <time>2015-04-12T09:29:41Z</time>
      </trkpt>
      <trkpt lat="49.9493" lon="5.38318">
        <ele>459</ele>
        <time>2015-04-12T09:29:47Z</time>
      </trkpt>
      <trkpt lat="49.94926" lon="5.38323">
        <ele>459</ele>
        <time>2015-04-12T09:29:52Z</time>
      </trkpt>
      <trkpt lat="49.94922" lon="5.38329">
        <ele>459</ele>
        <time>2015-04-12T09:29:58Z</time>
      </trkpt>
      <trkpt lat="49.94917" lon="5.38334">
        <ele>459</ele>
        <time>2015-04-12T09:30:04Z</time>
      </trkpt>
      <trkpt lat="49.94911" lon="5.3834">
        <ele>459</ele>
        <time>2015-04-12T09:30:10Z</time>
      </trkpt>
      <trkpt lat="49.94906" lon="5.38345">
        <ele>459</ele>
        <time>2015-04-12T09:30:15Z</time>
      </trkpt>
      <trkpt lat="49.94901" lon="5.38352">
        <ele>460</ele>
        <time>2015-04-12T09:30:21Z</time>
      </trkpt>
      <trkpt lat="49.94896" lon="5.38357">
        <ele>460</ele>
        <time>2015-04-12T09:30:26Z</time>
      </trkpt>
      <trkpt lat="49.9489" lon="5.38362">
        <ele>460</ele>
        <time>2015-04-12T09:30:32Z</time>
      </trkpt>
      <trkpt lat="49.94884" lon="5.38368">
        <ele>460</ele>
        <time>2015-04-12T09:30:38Z</time>
      </trkpt>
      <trkpt lat="49.94878" lon="5.38374">
        <ele>460</ele>
        <time>2015-04-12T09:30:44Z</time>
      </trkpt>
      <trkpt lat="49.94873" lon="5.38379">
        <ele>460</ele>
        <time>2015-04-12T09:30:50Z</time>
      </trkpt>
      <trkpt lat="49.94868" lon="5.38385">
        <ele>460</ele>
        <time>2015-04-12T09:30:55Z</time>
      </trkpt>
      <trkpt lat="49.94864" lon="5.3839">
        <ele>460</ele>
        <time>2015-04-12T09:31:00Z</time>
      </trkpt>
      <trkpt lat="49.94857" lon="5.38395">
        <ele>460</ele>
        <time>2015-04-12T09:31:06Z</time>
      </trkpt>
      <trkpt lat="49.94853" lon="5.38399">
        <ele>461</ele>
        <time>2015-04-12T09:31:11Z</time>
      </trkpt>
      <trkpt lat="49.94847" lon="5.38405">
        <ele>461</ele>
        <time>2015-04-12T09:31:17Z</time>
      </trkpt>
      <trkpt lat="49.94841" lon="5.38411">
        <ele>461</ele>
        <time>2015-04-12T09:31:23Z</time>
      </trkpt>
      <trkpt lat="49.94836" lon="5.38416">
        <ele>461</ele>
        <time>2015-04-12T09:31:28Z</time>
      </trkpt>
      <trkpt lat="49.94831" lon="5.3842">
        <ele>461</ele>
        <time>2015-04-12T09:31:33Z</time>
      </trkpt>
      <trkpt lat="49.94826" lon="5.38424">
        <ele>461</ele>
        <time>2015-04-12T09:31:38Z</time>
      </trkpt>
      <trkpt lat="49.9482" lon="5.38429">
        <ele>462</ele>
        <time>2015-04-12T09:31:43Z</time>
      </trkpt>
      <trkpt lat="49.94815" lon="5.38433">
        <ele>462</ele>
        <time>2015-04-12T09:31:48Z</time>
      </trkpt>
      <trkpt lat="49.94808" lon="5.38439">
        <ele>462</ele>
        <time>2015-04-12T09:31:54Z</time>
      </trkpt>
      <trkpt lat="49.94801" lon="5.38445">
        <ele>462</ele>
        <time>2015-04-12T09:32:00Z</time>
      </trkpt>
      <trkpt lat="49.94795" lon="5.3845">
        <ele>463</ele>
        <time>2015-04-12T09:32:05Z</time>
      </trkpt>
      <trkpt lat="49.94789" lon="5.38454">
        <ele>463</ele>
        <time>2015-04-12T09:32:10Z</time>
      </trkpt>
      <trkpt lat="49.94782" lon="5.38458">
        <ele>462</ele>
        <time>2015-04-12T09:32:16Z</time>
      </trkpt>
      <trkpt lat="49.94775" lon="5.38462">
        <ele>463</ele>
        <time>2015-04-12T09:32:22Z</time>
      </trkpt>
      <trkpt lat="49.9477" lon="5.38469">
        <ele>463</ele>
        <time>2015-04-12T09:32:27Z</time>
      </trkpt>
      <trkpt lat="49.94765" lon="5.38475">
        <ele>463</ele>
        <time>2015-04-12T09:32:32Z</time>
      </trkpt>
      <trkpt lat="49.9476" lon="5.38483">
        <ele>463</ele>
        <time>2015-04-12T09:32:38Z</time>
      </trkpt>
      <trkpt lat="49.94756" lon="5.38489">
        <ele>463</ele>
        <time>2015-04-12T09:32:43Z</time>
      </trkpt>
      <trkpt lat="49.94752" lon="5.38496">
        <ele>464</ele>
        <time>2015-04-12T09:32:49Z</time>
      </trkpt>
      <trkpt lat="49.94748" lon="5.38503">
        <ele>464</ele>
        <time>2015-04-12T09:32:55Z</time>
      </trkpt>
      <trkpt lat="49.94744" lon="5.38508">
        <ele>464</ele>
        <time>2015-04-12T09:33:00Z</time>
      </trkpt>
      <trkpt lat="49.9474" lon="5.38514">
        <ele>465</ele>
        <time>2015-04-12T09:33:05Z</time>
      </trkpt>
      <trkpt lat="49.94735" lon="5.38525">
        <ele>465</ele>
        <time>2015-04-12T09:33:11Z</time>
      </trkpt>
      <trkpt lat="49.94736" lon="5.38535">
        <ele>465</ele>
        <time>2015-04-12T09:33:17Z</time>
      </trkpt>
      <trkpt lat="49.94736" lon="5.38538">
        <ele>465</ele>
        <time>2015-04-12T09:33:22Z</time>
      </trkpt>
      <trkpt lat="49.94737" lon="5.3854">
        <ele>465</ele>
        <time>2015-04-12T09:33:27Z</time>
      </trkpt>
      <trkpt lat="49.94739" lon="5.38542">
        <ele>465</ele>
        <time>2015-04-12T09:33:33Z</time>
      </trkpt>
      <trkpt lat="49.94739" lon="5.38545">
        <ele>465</ele>
        <time>2015-04-12T09:33:38Z</time>
      </trkpt>
      <trkpt lat="49.94735" lon="5.38551">
        <ele>466</ele>
        <time>2015-04-12T09:33:44Z</time>
      </trkpt>
      <trkpt lat="49.94734" lon="5.38557">
        <ele>466</ele>
        <time>2015-04-12T09:33:49Z</time>
      </trkpt>
      <trkpt lat="49.94733" lon="5.38563">
        <ele>466</ele>
        <time>2015-04-12T09:33:54Z</time>
      </trkpt>
      <trkpt lat="49.94732" lon="5.38566">
        <ele>466</ele>
        <time>2015-04-12T09:33:59Z</time>
      </trkpt>
      <trkpt lat="49.94732" lon="5.38568">
        <ele>466</ele>
        <time>2015-04-12T09:34:05Z</time>
      </trkpt>
      <trkpt lat="49.94729" lon="5.38575">
        <ele>466</ele>
        <time>2015-04-12T09:34:10Z</time>
      </trkpt>
      <trkpt lat="49.94727" lon="5.3858">
        <ele>466</ele>
        <time>2015-04-12T09:34:15Z</time>
      </trkpt>
      <trkpt lat="49.94725" lon="5.38587">
        <ele>466</ele>
        <time>2015-04-12T09:34:21Z</time>
      </trkpt>
      <trkpt lat="49.94725" lon="5.38595">
        <ele>466</ele>
        <time>2015-04-12T09:34:27Z</time>
      </trkpt>
      <trkpt lat="49.94726" lon="5.38601">
        <ele>467</ele>
        <time>2015-04-12T09:34:32Z</time>
      </trkpt>
      <trkpt lat="49.94725" lon="5.38608">
        <ele>467</ele>
        <time>2015-04-12T09:34:37Z</time>
      </trkpt>
      <trkpt lat="49.94723" lon="5.38615">
        <ele>468</ele>
        <time>2015-04-12T09:34:42Z</time>
      </trkpt>
      <trkpt lat="49.9472" lon="5.38622">
        <ele>468</ele>
        <time>2015-04-12T09:34:48Z</time>
      </trkpt>
      <trkpt lat="49.94719" lon="5.38629">
        <ele>468</ele>
        <time>2015-04-12T09:34:53Z</time>
      </trkpt>
      <trkpt lat="49.94717" lon="5.38639">
        <ele>468</ele>
        <time>2015-04-12T09:34:59Z</time>
      </trkpt>
      <trkpt lat="49.94715" lon="5.38647">
        <ele>469</ele>
        <time>2015-04-12T09:35:04Z</time>
      </trkpt>
      <trkpt lat="49.94713" lon="5.38652">
        <ele>469</ele>
        <time>2015-04-12T09:35:09Z</time>
      </trkpt>
      <trkpt lat="49.94711" lon="5.38659">
        <ele>469</ele>
        <time>2015-04-12T09:35:15Z</time>
      </trkpt>
      <trkpt lat="49.94708" lon="5.38664">
        <ele>469</ele>
        <time>2015-04-12T09:35:20Z</time>
      </trkpt>
      <trkpt lat="49.94707" lon="5.38668">
        <ele>469</ele>
        <time>2015-04-12T09:35:25Z</time>
      </trkpt>
      <trkpt lat="49.94704" lon="5.38674">
        <ele>470</ele>
        <time>2015-04-12T09:35:31Z</time>
      </trkpt>
      <trkpt lat="49.94701" lon="5.3868">
        <ele>470</ele>
        <time>2015-04-12T09:35:36Z</time>
      </trkpt>
      <trkpt lat="49.94696" lon="5.38687">
        <ele>470</ele>
        <time>2015-04-12T09:35:42Z</time>
      </trkpt>
      <trkpt lat="49.94691" lon="5.38695">
        <ele>470</ele>
        <time>2015-04-12T09:35:48Z</time>
      </trkpt>
      <trkpt lat="49.94687" lon="5.38702">
        <ele>471</ele>
        <time>2015-04-12T09:35:53Z</time>
      </trkpt>
      <trkpt lat="49.94683" lon="5.38708">
        <ele>471</ele>
        <time>2015-04-12T09:35:58Z</time>
      </trkpt>
      <trkpt lat="49.9468" lon="5.38714">
        <ele>471</ele>
        <time>2015-04-12T09:36:03Z</time>
      </trkpt>
      <trkpt lat="49.94677" lon="5.38723">
        <ele>471</ele>
        <time>2015-04-12T09:36:09Z</time>
      </trkpt>
      <trkpt lat="49.94675" lon="5.38726">
        <ele>471</ele>
        <time>2015-04-12T09:36:14Z</time>
      </trkpt>
      <trkpt lat="49.94673" lon="5.38732">
        <ele>472</ele>
        <time>2015-04-12T09:36:19Z</time>
      </trkpt>
      <trkpt lat="49.9467" lon="5.38736">
        <ele>472</ele>
        <time>2015-04-12T09:36:25Z</time>
      </trkpt>
      <trkpt lat="49.94667" lon="5.38741">
        <ele>472</ele>
        <time>2015-04-12T09:36:30Z</time>
      </trkpt>
      <trkpt lat="49.94662" lon="5.38747">
        <ele>472</ele>
        <time>2015-04-12T09:36:36Z</time>
      </trkpt>
      <trkpt lat="49.94657" lon="5.38751">
        <ele>473</ele>
        <time>2015-04-12T09:36:41Z</time>
      </trkpt>
      <trkpt lat="49.94651" lon="5.38754">
        <ele>473</ele>
        <time>2015-04-12T09:36:47Z</time>
      </trkpt>
      <trkpt lat="49.94645" lon="5.38758">
        <ele>473</ele>
        <time>2015-04-12T09:36:52Z</time>
      </trkpt>
      <trkpt lat="49.94637" lon="5.38763">
        <ele>473</ele>
        <time>2015-04-12T09:36:58Z</time>
      </trkpt>
      <trkpt lat="49.9463" lon="5.38766">
        <ele>473</ele>
        <time>2015-04-12T09:37:03Z</time>
      </trkpt>
      <trkpt lat="49.94624" lon="5.38768">
        <ele>473</ele>
        <time>2015-04-12T09:37:08Z</time>
      </trkpt>
      <trkpt lat="49.94618" lon="5.38772">
        <ele>473</ele>
        <time>2015-04-12T09:37:14Z</time>
      </trkpt>
      <trkpt lat="49.94613" lon="5.38777">
        <ele>473</ele>
        <time>2015-04-12T09:37:19Z</time>
      </trkpt>
      <trkpt lat="49.9461" lon="5.38783">
        <ele>474</ele>
        <time>2015-04-12T09:37:25Z</time>
      </trkpt>
      <trkpt lat="49.94607" lon="5.38786">
        <ele>474</ele>
        <time>2015-04-12T09:37:30Z</time>
      </trkpt>
      <trkpt lat="49.94604" lon="5.38791">
        <ele>475</ele>
        <time>2015-04-12T09:37:35Z</time>
      </trkpt>
      <trkpt lat="49.94598" lon="5.38797">
        <ele>475</ele>
        <time>2015-04-12T09:37:41Z</time>
      </trkpt>
      <trkpt lat="49.94594" lon="5.38805">
        <ele>475</ele>
        <time>2015-04-12T09:37:46Z</time>
      </trkpt>
      <trkpt lat="49.94591" lon="5.38813">
        <ele>475</ele>
        <time>2015-04-12T09:37:52Z</time>
      </trkpt>
      <trkpt lat="49.94585" lon="5.38817">
        <ele>475</ele>
        <time>2015-04-12T09:37:58Z</time>
      </trkpt>
      <trkpt lat="49.9458" lon="5.38817">
        <ele>475</ele>
        <time>2015-04-12T09:38:04Z</time>
      </trkpt>
      <trkpt lat="49.94574" lon="5.38815">
        <ele>475</ele>
        <time>2015-04-12T09:38:10Z</time>
      </trkpt>
      <trkpt lat="49.94569" lon="5.38811">
        <ele>475</ele>
        <time>2015-04-12T09:38:15Z</time>
      </trkpt>
      <trkpt lat="49.94562" lon="5.38807">
        <ele>475</ele>
        <time>2015-04-12T09:38:21Z</time>
      </trkpt>
      <trkpt lat="49.94556" lon="5.38802">
        <ele>474</ele>
        <time>2015-04-12T09:38:26Z</time>
      </trkpt>
      <trkpt lat="49.94549" lon="5.38795">
        <ele>474</ele>
        <time>2015-04-12T09:38:32Z</time>
      </trkpt>
      <trkpt lat="49.94544" lon="5.3879">
        <ele>474</ele>
        <time>2015-04-12T09:38:37Z</time>
      </trkpt>
      <trkpt lat="49.94537" lon="5.38783">
        <ele>474</ele>
        <time>2015-04-12T09:38:43Z</time>
      </trkpt>
      <trkpt lat="49.94531" lon="5.38778">
        <ele>474</ele>
        <time>2015-04-12T09:38:48Z</time>
      </trkpt>
      <trkpt lat="49.94528" lon="5.38774">
        <ele>474</ele>
        <time>2015-04-12T09:38:53Z</time>
      </trkpt>
      <trkpt lat="49.94526" lon="5.38772">
        <ele>474</ele>
        <time>2015-04-12T09:38:58Z</time>
      </trkpt>
      <trkpt lat="49.94521" lon="5.38764">
        <ele>474</ele>
        <time>2015-04-12T09:39:04Z</time>
      </trkpt>
      <trkpt lat="49.94517" lon="5.38759">
        <ele>474</ele>
        <time>2015-04-12T09:39:10Z</time>
      </trkpt>
      <trkpt lat="49.94512" lon="5.38754">
        <ele>473</ele>
        <time>2015-04-12T09:39:15Z</time>
      </trkpt>
      <trkpt lat="49.94506" lon="5.38748">
        <ele>474</ele>
        <time>2015-04-12T09:39:21Z</time>
      </trkpt>
      <trkpt lat="49.94501" lon="5.38743">
        <ele>474</ele>
        <time>2015-04-12T09:39:26Z</time>
      </trkpt>
      <trkpt lat="49.94495" lon="5.38738">
        <ele>474</ele>
        <time>2015-04-12T09:39:31Z</time>
      </trkpt>
      <trkpt lat="49.94488" lon="5.38734">
        <ele>474</ele>
        <time>2015-04-12T09:39:37Z</time>
      </trkpt>
      <trkpt lat="49.94485" lon="5.38732">
        <ele>474</ele>
        <time>2015-04-12T09:39:42Z</time>
      </trkpt>
      <trkpt lat="49.94484" lon="5.38732">
        <ele>474</ele>
        <time>2015-04-12T09:39:47Z</time>
      </trkpt>
      <trkpt lat="49.94481" lon="5.38726">
        <ele>473</ele>
        <time>2015-04-12T09:39:53Z</time>
      </trkpt>
      <trkpt lat="49.94475" lon="5.3872">
        <ele>473</ele>
        <time>2015-04-12T09:39:59Z</time>
      </trkpt>
      <trkpt lat="49.94471" lon="5.38717">
        <ele>474</ele>
        <time>2015-04-12T09:40:04Z</time>
      </trkpt>
      <trkpt lat="49.94465" lon="5.38711">
        <ele>474</ele>
        <time>2015-04-12T09:40:10Z</time>
      </trkpt>
      <trkpt lat="49.94461" lon="5.38708">
        <ele>473</ele>
        <time>2015-04-12T09:40:15Z</time>
      </trkpt>
      <trkpt lat="49.94453" lon="5.38704">
        <ele>473</ele>
        <time>2015-04-12T09:40:21Z</time>
      </trkpt>
      <trkpt lat="49.94448" lon="5.38701">
        <ele>473</ele>
        <time>2015-04-12T09:40:26Z</time>
      </trkpt>
      <trkpt lat="49.94442" lon="5.38697">
        <ele>473</ele>
        <time>2015-04-12T09:40:31Z</time>
      </trkpt>
      <trkpt lat="49.94436" lon="5.38691">
        <ele>473</ele>
        <time>2015-04-12T09:40:37Z</time>
      </trkpt>
      <trkpt lat="49.9443" lon="5.38687">
        <ele>472</ele>
        <time>2015-04-12T09:40:42Z</time>
      </trkpt>
      <trkpt lat="49.94427" lon="5.38683">
        <ele>472</ele>
        <time>2015-04-12T09:40:47Z</time>
      </trkpt>
      <trkpt lat="49.94422" lon="5.38676">
        <ele>472</ele>
        <time>2015-04-12T09:40:52Z</time>
      </trkpt>
      <trkpt lat="49.94417" lon="5.38666">
        <ele>472</ele>
        <time>2015-04-12T09:40:58Z</time>
      </trkpt>
      <trkpt lat="49.94413" lon="5.38659">
        <ele>472</ele>
        <time>2015-04-12T09:41:03Z</time>
      </trkpt>
      <trkpt lat="49.9441" lon="5.38653">
        <ele>473</ele>
        <time>2015-04-12T09:41:08Z</time>
      </trkpt>
      <trkpt lat="49.94407" lon="5.38644">
        <ele>472</ele>
        <time>2015-04-12T09:41:13Z</time>
      </trkpt>
      <trkpt lat="49.94404" lon="5.38635">
        <ele>471</ele>
        <time>2015-04-12T09:41:19Z</time>
      </trkpt>
      <trkpt lat="49.94402" lon="5.38627">
        <ele>471</ele>
        <time>2015-04-12T09:41:24Z</time>
      </trkpt>
      <trkpt lat="49.944" lon="5.38618">
        <ele>471</ele>
        <time>2015-04-12T09:41:30Z</time>
      </trkpt>
      <trkpt lat="49.944" lon="5.3861">
        <ele>471</ele>
        <time>2015-04-12T09:41:36Z</time>
      </trkpt>
      <trkpt lat="49.944" lon="5.38601">
        <ele>471</ele>
        <time>2015-04-12T09:41:41Z</time>
      </trkpt>
      <trkpt lat="49.94399" lon="5.3859">
        <ele>471</ele>
        <time>2015-04-12T09:41:47Z</time>
      </trkpt>
      <trkpt lat="49.94399" lon="5.3858">
        <ele>471</ele>
        <time>2015-04-12T09:41:53Z</time>
      </trkpt>
      <trkpt lat="49.94399" lon="5.38572">
        <ele>470</ele>
        <time>2015-04-12T09:41:58Z</time>
      </trkpt>
      <trkpt lat="49.94398" lon="5.38563">
        <ele>470</ele>
        <time>2015-04-12T09:42:03Z</time>
      </trkpt>
      <trkpt lat="49.94398" lon="5.38556">
        <ele>470</ele>
        <time>2015-04-12T09:42:08Z</time>
      </trkpt>
      <trkpt lat="49.94397" lon="5.38549">
        <ele>470</ele>
        <time>2015-04-12T09:42:13Z</time>
      </trkpt>
      <trkpt lat="49.94398" lon="5.38541">
        <ele>470</ele>
        <time>2015-04-12T09:42:18Z</time>
      </trkpt>
      <trkpt lat="49.94398" lon="5.38531">
        <ele>470</ele>
        <time>2015-04-12T09:42:24Z</time>
      </trkpt>
      <trkpt lat="49.94398" lon="5.3852">
        <ele>470</ele>
        <time>2015-04-12T09:42:30Z</time>
      </trkpt>
      <trkpt lat="49.94398" lon="5.38511">
        <ele>470</ele>
        <time>2015-04-12T09:42:35Z</time>
      </trkpt>
      <trkpt lat="49.94398" lon="5.38499">
        <ele>470</ele>
        <time>2015-04-12T09:42:41Z</time>
      </trkpt>
      <trkpt lat="49.94398" lon="5.38489">
        <ele>469</ele>
        <time>2015-04-12T09:42:46Z</time>
      </trkpt>
      <trkpt lat="49.94398" lon="5.38483">
        <ele>469</ele>
        <time>2015-04-12T09:42:52Z</time>
      </trkpt>
      <trkpt lat="49.94397" lon="5.38481">
        <ele>469</ele>
        <time>2015-04-12T09:42:57Z</time>
      </trkpt>
      <trkpt lat="49.94398" lon="5.38478">
        <ele>469</ele>
        <time>2015-04-12T09:43:03Z</time>
      </trkpt>
      <trkpt lat="49.944" lon="5.38475">
        <ele>470</ele>
        <time>2015-04-12T09:43:08Z</time>
      </trkpt>
      <trkpt lat="49.94401" lon="5.38471">
        <ele>470</ele>
        <time>2015-04-12T09:43:13Z</time>
      </trkpt>
      <trkpt lat="49.94402" lon="5.38463">
        <ele>470</ele>
        <time>2015-04-12T09:43:19Z</time>
      </trkpt>
      <trkpt lat="49.94401" lon="5.38456">
        <ele>469</ele>
        <time>2015-04-12T09:43:24Z</time>
      </trkpt>
      <trkpt lat="49.944" lon="5.38446">
        <ele>469</ele>
        <time>2015-04-12T09:43:30Z</time>
      </trkpt>
      <trkpt lat="49.944" lon="5.38438">
        <ele>469</ele>
        <time>2015-04-12T09:43:35Z</time>
      </trkpt>
      <trkpt lat="49.944" lon="5.3843">
        <ele>469</ele>
        <time>2015-04-12T09:43:40Z</time>
      </trkpt>
      <trkpt lat="49.944" lon="5.38421">
        <ele>469</ele>
        <time>2015-04-12T09:43:46Z</time>
      </trkpt>
      <trkpt lat="49.94399" lon="5.38416">
        <ele>469</ele>
        <time>2015-04-12T09:43:52Z</time>
      </trkpt>
      <trkpt lat="49.944" lon="5.38412">
        <ele>469</ele>
        <time>2015-04-12T09:43:57Z</time>
      </trkpt>
      <trkpt lat="49.94402" lon="5.38405">
        <ele>469</ele>
        <time>2015-04-12T09:44:03Z</time>
      </trkpt>
      <trkpt lat="49.94403" lon="5.38399">
        <ele>469</ele>
        <time>2015-04-12T09:44:08Z</time>
      </trkpt>
      <trkpt lat="49.94403" lon="5.38393">
        <ele>469</ele>
        <time>2015-04-12T09:44:13Z</time>
      </trkpt>
      <trkpt lat="49.94403" lon="5.38385">
        <ele>469</ele>
        <time>2015-04-12T09:44:19Z</time>
      </trkpt>
      <trkpt lat="49.94403" lon="5.38379">
        <ele>469</ele>
        <time>2015-04-12T09:44:24Z</time>
      </trkpt>
      <trkpt lat="49.94403" lon="5.38372">
        <ele>469</ele>
        <time>2015-04-12T09:44:30Z</time>
      </trkpt>
      <trkpt lat="49.94402" lon="5.38362">
        <ele>469</ele>
        <time>2015-04-12T09:44:36Z</time>
      </trkpt>
      <trkpt lat="49.94401" lon="5.38353">
        <ele>469</ele>
        <time>2015-04-12T09:44:42Z</time>
      </trkpt>
      <trkpt lat="49.94402" lon="5.38345">
        <ele>468</ele>
        <time>2015-04-12T09:44:47Z</time>
      </trkpt>
      <trkpt lat="49.94401" lon="5.38336">
        <ele>468</ele>
        <time>2015-04-12T09:44:52Z</time>
      </trkpt>
      <trkpt lat="49.94396" lon="5.38328">
        <ele>468</ele>
        <time>2015-04-12T09:44:58Z</time>
      </trkpt>
      <trkpt lat="49.94392" lon="5.38323">
        <ele>468</ele>
        <time>2015-04-12T09:45:03Z</time>
      </trkpt>
      <trkpt lat="49.94387" lon="5.38319">
        <ele>468</ele>
        <time>2015-04-12T09:45:08Z</time>
      </trkpt>
      <trkpt lat="49.94381" lon="5.38316">
        <ele>468</ele>
        <time>2015-04-12T09:45:14Z</time>
      </trkpt>
      <trkpt lat="49.94374" lon="5.38313">
        <ele>468</ele>
        <time>2015-04-12T09:45:20Z</time>
      </trkpt>
      <trkpt lat="49.94368" lon="5.38311">
        <ele>468</ele>
        <time>2015-04-12T09:45:25Z</time>
      </trkpt>
      <trkpt lat="49.94362" lon="5.38311">
        <ele>467</ele>
        <time>2015-04-12T09:45:30Z</time>
      </trkpt>
      <trkpt lat="49.94356" lon="5.38311">
        <ele>467</ele>
        <time>2015-04-12T09:45:36Z</time>
      </trkpt>
      <trkpt lat="49.9435" lon="5.38312">
        <ele>466</ele>
        <time>2015-04-12T09:45:42Z</time>
      </trkpt>
      <trkpt lat="49.94344" lon="5.38312">
        <ele>466</ele>
        <time>2015-04-12T09:45:48Z</time>
      </trkpt>
      <trkpt lat="49.94341" lon="5.38314">
        <ele>466</ele>
        <time>2015-04-12T09:45:53Z</time>
      </trkpt>
      <trkpt lat="49.94337" lon="5.38318">
        <ele>466</ele>
        <time>2015-04-12T09:45:59Z</time>
      </trkpt>
      <trkpt lat="49.94333" lon="5.38318">
        <ele>466</ele>
        <time>2015-04-12T09:46:04Z</time>
      </trkpt>
      <trkpt lat="49.94328" lon="5.38319">
        <ele>466</ele>
        <time>2015-04-12T09:46:10Z</time>
      </trkpt>
      <trkpt lat="49.94326" lon="5.3832">
        <ele>466</ele>
        <time>2015-04-12T09:46:15Z</time>
      </trkpt>
      <trkpt lat="49.94325" lon="5.38321">
        <ele>466</ele>
        <time>2015-04-12T09:46:21Z</time>
      </trkpt>
      <trkpt lat="49.94324" lon="5.38325">
        <ele>466</ele>
        <time>2015-04-12T09:46:27Z</time>
      </trkpt>
      <trkpt lat="49.94324" lon="5.38329">
        <ele>466</ele>
        <time>2015-04-12T09:46:32Z</time>
      </trkpt>
      <trkpt lat="49.94325" lon="5.38332">
        <ele>466</ele>
        <time>2015-04-12T09:46:37Z</time>
      </trkpt>
      <trkpt lat="49.94327" lon="5.38338">
        <ele>466</ele>
        <time>2015-04-12T09:46:43Z</time>
      </trkpt>
      <trkpt lat="49.94329" lon="5.38343">
        <ele>466</ele>
        <time>2015-04-12T09:46:48Z</time>
      </trkpt>
      <trkpt lat="49.9433" lon="5.38347">
        <ele>466</ele>
        <time>2015-04-12T09:46:54Z</time>
      </trkpt>
      <trkpt lat="49.94329" lon="5.38353">
        <ele>466</ele>
        <time>2015-04-12T09:47:00Z</time>
      </trkpt>
      <trkpt lat="49.94327" lon="5.38355">
        <ele>466</ele>
        <time>2015-04-12T09:47:06Z</time>
      </trkpt>
      <trkpt lat="49.94325" lon="5.3836">
        <ele>466</ele>
        <time>2015-04-12T09:47:11Z</time>
      </trkpt>
      <trkpt lat="49.94324" lon="5.38365">
        <ele>466</ele>
        <time>2015-04-12T09:47:16Z</time>
      </trkpt>
      <trkpt lat="49.94325" lon="5.38366">
        <ele>465</ele>
        <time>2015-04-12T09:47:23Z</time>
      </trkpt>
      <trkpt lat="49.94326" lon="5.38367">
        <ele>465</ele>
        <time>2015-04-12T09:47:28Z</time>
      </trkpt>
      <trkpt lat="49.94326" lon="5.38369">
        <ele>466</ele>
        <time>2015-04-12T09:47:34Z</time>
      </trkpt>
      <trkpt lat="49.94324" lon="5.38373">
        <ele>466</ele>
        <time>2015-04-12T09:47:40Z</time>
      </trkpt>
      <trkpt lat="49.94324" lon="5.38371">
        <ele>465</ele>
        <time>2015-04-12T09:47:46Z</time>
      </trkpt>
      <trkpt lat="49.94322" lon="5.38371">
        <ele>466</ele>
        <time>2015-04-12T09:47:52Z</time>
      </trkpt>
      <trkpt lat="49.94323" lon="5.38369">
        <ele>466</ele>
        <time>2015-04-12T09:47:57Z</time>
      </trkpt>
      <trkpt lat="49.94321" lon="5.38373">
        <ele>466</ele>
        <time>2015-04-12T09:48:02Z</time>
      </trkpt>
      <trkpt lat="49.9432" lon="5.3838">
        <ele>466</ele>
        <time>2015-04-12T09:48:07Z</time>
      </trkpt>
      <trkpt lat="49.9432" lon="5.38387">
        <ele>467</ele>
        <time>2015-04-12T09:48:13Z</time>
      </trkpt>
      <trkpt lat="49.9432" lon="5.38395">
        <ele>468</ele>
        <time>2015-04-12T09:48:18Z</time>
      </trkpt>
      <trkpt lat="49.94319" lon="5.38406">
        <ele>467</ele>
        <time>2015-04-12T09:48:24Z</time>
      </trkpt>
      <trkpt lat="49.94318" lon="5.38417">
        <ele>468</ele>
        <time>2015-04-12T09:48:29Z</time>
      </trkpt>
      <trkpt lat="49.94318" lon="5.38426">
        <ele>468</ele>
        <time>2015-04-12T09:48:35Z</time>
      </trkpt>
      <trkpt lat="49.94319" lon="5.38434">
        <ele>467</ele>
        <time>2015-04-12T09:48:40Z</time>
      </trkpt>
      <trkpt lat="49.94319" lon="5.38442">
        <ele>467</ele>
        <time>2015-04-12T09:48:46Z</time>
      </trkpt>
      <trkpt lat="49.94319" lon="5.3845">
        <ele>468</ele>
        <time>2015-04-12T09:48:51Z</time>
      </trkpt>
      <trkpt lat="49.94319" lon="5.3846">
        <ele>468</ele>
        <time>2015-04-12T09:48:57Z</time>
      </trkpt>
      <trkpt lat="49.94319" lon="5.38469">
        <ele>468</ele>
        <time>2015-04-12T09:49:02Z</time>
      </trkpt>
      <trkpt lat="49.94319" lon="5.38477">
        <ele>468</ele>
        <time>2015-04-12T09:49:07Z</time>
      </trkpt>
      <trkpt lat="49.94318" lon="5.38488">
        <ele>468</ele>
        <time>2015-04-12T09:49:13Z</time>
      </trkpt>
      <trkpt lat="49.94318" lon="5.38498">
        <ele>468</ele>
        <time>2015-04-12T09:49:18Z</time>
      </trkpt>
      <trkpt lat="49.94316" lon="5.38509">
        <ele>467</ele>
        <time>2015-04-12T09:49:24Z</time>
      </trkpt>
      <trkpt lat="49.94315" lon="5.3852">
        <ele>468</ele>
        <time>2015-04-12T09:49:30Z</time>
      </trkpt>
      <trkpt lat="49.94313" lon="5.38529">
        <ele>468</ele>
        <time>2015-04-12T09:49:35Z</time>
      </trkpt>
      <trkpt lat="49.94313" lon="5.38537">
        <ele>468</ele>
        <time>2015-04-12T09:49:40Z</time>
      </trkpt>
      <trkpt lat="49.94311" lon="5.38544">
        <ele>468</ele>
        <time>2015-04-12T09:49:45Z</time>
      </trkpt>
      <trkpt lat="49.94309" lon="5.38553">
        <ele>468</ele>
        <time>2015-04-12T09:49:51Z</time>
      </trkpt>
      <trkpt lat="49.94309" lon="5.38559">
        <ele>468</ele>
        <time>2015-04-12T09:49:56Z</time>
      </trkpt>
      <trkpt lat="49.94308" lon="5.38567">
        <ele>469</ele>
        <time>2015-04-12T09:50:01Z</time>
      </trkpt>
      <trkpt lat="49.94308" lon="5.38576">
        <ele>468</ele>
        <time>2015-04-12T09:50:06Z</time>
      </trkpt>
      <trkpt lat="49.94307" lon="5.38586">
        <ele>469</ele>
        <time>2015-04-12T09:50:12Z</time>
      </trkpt>
      <trkpt lat="49.94307" lon="5.38594">
        <ele>468</ele>
        <time>2015-04-12T09:50:17Z</time>
      </trkpt>
      <trkpt lat="49.94308" lon="5.38603">
        <ele>468</ele>
        <time>2015-04-12T09:50:22Z</time>
      </trkpt>
      <trkpt lat="49.94306" lon="5.38616">
        <ele>468</ele>
        <time>2015-04-12T09:50:28Z</time>
      </trkpt>
      <trkpt lat="49.94305" lon="5.38627">
        <ele>469</ele>
        <time>2015-04-12T09:50:33Z</time>
      </trkpt>
      <trkpt lat="49.94302" lon="5.3864">
        <ele>468</ele>
        <time>2015-04-12T09:50:39Z</time>
      </trkpt>
      <trkpt lat="49.943" lon="5.3865">
        <ele>469</ele>
        <time>2015-04-12T09:50:44Z</time>
      </trkpt>
      <trkpt lat="49.94298" lon="5.38661">
        <ele>468</ele>
        <time>2015-04-12T09:50:49Z</time>
      </trkpt>
      <trkpt lat="49.94296" lon="5.3867">
        <ele>468</ele>
        <time>2015-04-12T09:50:54Z</time>
      </trkpt>
      <trkpt lat="49.94294" lon="5.38681">
        <ele>469</ele>
        <time>2015-04-12T09:51:00Z</time>
      </trkpt>
      <trkpt lat="49.94292" lon="5.38689">
        <ele>468</ele>
        <time>2015-04-12T09:51:05Z</time>
      </trkpt>
      <trkpt lat="49.9429" lon="5.38698">
        <ele>468</ele>
        <time>2015-04-12T09:51:10Z</time>
      </trkpt>
      <trkpt lat="49.94288" lon="5.38707">
        <ele>468</ele>
        <time>2015-04-12T09:51:15Z</time>
      </trkpt>
      <trkpt lat="49.94285" lon="5.38716">
        <ele>468</ele>
        <time>2015-04-12T09:51:20Z</time>
      </trkpt>
      <trkpt lat="49.94283" lon="5.38728">
        <ele>468</ele>
        <time>2015-04-12T09:51:26Z</time>
      </trkpt>
      <trkpt lat="49.9428" lon="5.38739">
        <ele>468</ele>
        <time>2015-04-12T09:51:32Z</time>
      </trkpt>
      <trkpt lat="49.94278" lon="5.38747">
        <ele>468</ele>
        <time>2015-04-12T09:51:37Z</time>
      </trkpt>
      <trkpt lat="49.94275" lon="5.38758">
        <ele>468</ele>
        <time>2015-04-12T09:51:43Z</time>
      </trkpt>
      <trkpt lat="49.9427" lon="5.38764">
        <ele>467</ele>
        <time>2015-04-12T09:51:49Z</time>
      </trkpt>
      <trkpt lat="49.9427" lon="5.38765">
        <ele>467</ele>
        <time>2015-04-12T09:51:54Z</time>
      </trkpt>
      <trkpt lat="49.9427" lon="5.38766">
        <ele>467</ele>
        <time>2015-04-12T09:51:59Z</time>
      </trkpt>
      <trkpt lat="49.9427" lon="5.38769">
        <ele>467</ele>
        <time>2015-04-12T09:52:05Z</time>
      </trkpt>
      <trkpt lat="49.94271" lon="5.38772">
        <ele>468</ele>
        <time>2015-04-12T09:52:10Z</time>
      </trkpt>
      <trkpt lat="49.94274" lon="5.38773">
        <ele>467</ele>
        <time>2015-04-12T09:52:16Z</time>
      </trkpt>
      <trkpt lat="49.94276" lon="5.38778">
        <ele>468</ele>
        <time>2015-04-12T09:52:21Z</time>
      </trkpt>
      <trkpt lat="49.94274" lon="5.38782">
        <ele>468</ele>
        <time>2015-04-12T09:52:26Z</time>
      </trkpt>
      <trkpt lat="49.94271" lon="5.38789">
        <ele>467</ele>
        <time>2015-04-12T09:52:32Z</time>
      </trkpt>
      <trkpt lat="49.94267" lon="5.38798">
        <ele>467</ele>
        <time>2015-04-12T09:52:38Z</time>
      </trkpt>
      <trkpt lat="49.94264" lon="5.38807">
        <ele>467</ele>
        <time>2015-04-12T09:52:44Z</time>
      </trkpt>
      <trkpt lat="49.9426" lon="5.38816">
        <ele>467</ele>
        <time>2015-04-12T09:52:50Z</time>
      </trkpt>
      <trkpt lat="49.94258" lon="5.38825">
        <ele>467</ele>
        <time>2015-04-12T09:52:56Z</time>
      </trkpt>
      <trkpt lat="49.94255" lon="5.38832">
        <ele>467</ele>
        <time>2015-04-12T09:53:01Z</time>
      </trkpt>
      <trkpt lat="49.94253" lon="5.38839">
        <ele>466</ele>
        <time>2015-04-12T09:53:06Z</time>
      </trkpt>
      <trkpt lat="49.9425" lon="5.38848">
        <ele>466</ele>
        <time>2015-04-12T09:53:11Z</time>
      </trkpt>
      <trkpt lat="49.94247" lon="5.38854">
        <ele>466</ele>
        <time>2015-04-12T09:53:17Z</time>
      </trkpt>
      <trkpt lat="49.94247" lon="5.38861">
        <ele>466</ele>
        <time>2015-04-12T09:53:23Z</time>
      </trkpt>
      <trkpt lat="49.94246" lon="5.38869">
        <ele>465</ele>
        <time>2015-04-12T09:53:29Z</time>
      </trkpt>
      <trkpt lat="49.94246" lon="5.38872">
        <ele>466</ele>
        <time>2015-04-12T09:53:34Z</time>
      </trkpt>
      <trkpt lat="49.94247" lon="5.38874">
        <ele>466</ele>
        <time>2015-04-12T09:53:39Z</time>
      </trkpt>
      <trkpt lat="49.94248" lon="5.38873">
        <ele>466</ele>
        <time>2015-04-12T09:53:45Z</time>
      </trkpt>
      <trkpt lat="49.94245" lon="5.38875">
        <ele>466</ele>
        <time>2015-04-12T09:53:50Z</time>
      </trkpt>
      <trkpt lat="49.94243" lon="5.38883">
        <ele>465</ele>
        <time>2015-04-12T09:53:56Z</time>
      </trkpt>
      <trkpt lat="49.94239" lon="5.38891">
        <ele>465</ele>
        <time>2015-04-12T09:54:02Z</time>
      </trkpt>
      <trkpt lat="49.94237" lon="5.389">
        <ele>465</ele>
        <time>2015-04-12T09:54:08Z</time>
      </trkpt>
      <trkpt lat="49.94234" lon="5.38909">
        <ele>465</ele>
        <time>2015-04-12T09:54:13Z</time>
      </trkpt>
      <trkpt lat="49.9423" lon="5.38919">
        <ele>465</ele>
        <time>2015-04-12T09:54:19Z</time>
      </trkpt>
      <trkpt lat="49.94226" lon="5.38927">
        <ele>465</ele>
        <time>2015-04-12T09:54:25Z</time>
      </trkpt>
      <trkpt lat="49.94222" lon="5.38936">
        <ele>465</ele>
        <time>2015-04-12T09:54:30Z</time>
      </trkpt>
      <trkpt lat="49.94217" lon="5.38946">
        <ele>465</ele>
        <time>2015-04-12T09:54:36Z</time>
      </trkpt>
      <trkpt lat="49.94215" lon="5.38951">
        <ele>465</ele>
        <time>2015-04-12T09:54:41Z</time>
      </trkpt>
      <trkpt lat="49.94212" lon="5.38961">
        <ele>464</ele>
        <time>2015-04-12T09:54:47Z</time>
      </trkpt>
      <trkpt lat="49.9421" lon="5.38969">
        <ele>465</ele>
        <time>2015-04-12T09:54:52Z</time>
      </trkpt>
      <trkpt lat="49.94207" lon="5.38979">
        <ele>464</ele>
        <time>2015-04-12T09:54:58Z</time>
      </trkpt>
      <trkpt lat="49.94204" lon="5.38984">
        <ele>464</ele>
        <time>2015-04-12T09:55:03Z</time>
      </trkpt>
      <trkpt lat="49.94202" lon="5.38988">
        <ele>464</ele>
        <time>2015-04-12T09:55:08Z</time>
      </trkpt>
      <trkpt lat="49.94203" lon="5.38991">
        <ele>464</ele>
        <time>2015-04-12T09:55:14Z</time>
      </trkpt>
      <trkpt lat="49.94204" lon="5.38996">
        <ele>464</ele>
        <time>2015-04-12T09:55:19Z</time>
      </trkpt>
      <trkpt lat="49.94203" lon="5.39005">
        <ele>464</ele>
        <time>2015-04-12T09:55:25Z</time>
      </trkpt>
      <trkpt lat="49.94201" lon="5.39013">
        <ele>464</ele>
        <time>2015-04-12T09:55:30Z</time>
      </trkpt>
      <trkpt lat="49.942" lon="5.39021">
        <ele>464</ele>
        <time>2015-04-12T09:55:35Z</time>
      </trkpt>
      <trkpt lat="49.94198" lon="5.39031">
        <ele>464</ele>
        <time>2015-04-12T09:55:41Z</time>
      </trkpt>
      <trkpt lat="49.94198" lon="5.3904">
        <ele>465</ele>
        <time>2015-04-12T09:55:47Z</time>
      </trkpt>
      <trkpt lat="49.94196" lon="5.3904">
        <ele>465</ele>
        <time>2015-04-12T09:55:52Z</time>
      </trkpt>
      <trkpt lat="49.94194" lon="5.39041">
        <ele>464</ele>
        <time>2015-04-12T09:55:57Z</time>
      </trkpt>
      <trkpt lat="49.94193" lon="5.39047">
        <ele>464</ele>
        <time>2015-04-12T09:56:02Z</time>
      </trkpt>
      <trkpt lat="49.94193" lon="5.39056">
        <ele>464</ele>
        <time>2015-04-12T09:56:08Z</time>
      </trkpt>
      <trkpt lat="49.94192" lon="5.39066">
        <ele>464</ele>
        <time>2015-04-12T09:56:13Z</time>
      </trkpt>
      <trkpt lat="49.94192" lon="5.39077">
        <ele>464</ele>
        <time>2015-04-12T09:56:19Z</time>
      </trkpt>
      <trkpt lat="49.94193" lon="5.39086">
        <ele>465</ele>
        <time>2015-04-12T09:56:24Z</time>
      </trkpt>
      <trkpt lat="49.94193" lon="5.39098">
        <ele>464</ele>
        <time>2015-04-12T09:56:30Z</time>
      </trkpt>
      <trkpt lat="49.94191" lon="5.39108">
        <ele>464</ele>
        <time>2015-04-12T09:56:35Z</time>
      </trkpt>
      <trkpt lat="49.9419" lon="5.39116">
        <ele>465</ele>
        <time>2015-04-12T09:56:40Z</time>
      </trkpt>
      <trkpt lat="49.94189" lon="5.39125">
        <ele>464</ele>
        <time>2015-04-12T09:56:46Z</time>
      </trkpt>
      <trkpt lat="49.94189" lon="5.39133">
        <ele>465</ele>
        <time>2015-04-12T09:56:51Z</time>
      </trkpt>
      <trkpt lat="49.94188" lon="5.39143">
        <ele>465</ele>
        <time>2015-04-12T09:56:57Z</time>
      </trkpt>
      <trkpt lat="49.94186" lon="5.39152">
        <ele>465</ele>
        <time>2015-04-12T09:57:02Z</time>
      </trkpt>
      <trkpt lat="49.94185" lon="5.39161">
        <ele>464</ele>
        <time>2015-04-12T09:57:08Z</time>
      </trkpt>
      <trkpt lat="49.94181" lon="5.39169">
        <ele>464</ele>
        <time>2015-04-12T09:57:14Z</time>
      </trkpt>
      <trkpt lat="49.94179" lon="5.39176">
        <ele>464</ele>
        <time>2015-04-12T09:57:19Z</time>
      </trkpt>
      <trkpt lat="49.94173" lon="5.39185">
        <ele>464</ele>
        <time>2015-04-12T09:57:25Z</time>
      </trkpt>
      <trkpt lat="49.94169" lon="5.39194">
        <ele>463</ele>
        <time>2015-04-12T09:57:31Z</time>
      </trkpt>
      <trkpt lat="49.94164" lon="5.39202">
        <ele>463</ele>
        <time>2015-04-12T09:57:37Z</time>
      </trkpt>
      <trkpt lat="49.94159" lon="5.3921">
        <ele>463</ele>
        <time>2015-04-12T09:57:43Z</time>
      </trkpt>
      <trkpt lat="49.94155" lon="5.39218">
        <ele>463</ele>
        <time>2015-04-12T09:57:48Z</time>
      </trkpt>
      <trkpt lat="49.9415" lon="5.39227">
        <ele>462</ele>
        <time>2015-04-12T09:57:54Z</time>
      </trkpt>
      <trkpt lat="49.94146" lon="5.39235">
        <ele>462</ele>
        <time>2015-04-12T09:58:00Z</time>
      </trkpt>
      <trkpt lat="49.94141" lon="5.39242">
        <ele>462</ele>
        <time>2015-04-12T09:58:06Z</time>
      </trkpt>
      <trkpt lat="49.94136" lon="5.39251">
        <ele>461</ele>
        <time>2015-04-12T09:58:11Z</time>
      </trkpt>
      <trkpt lat="49.94131" lon="5.39259">
        <ele>461</ele>
        <time>2015-04-12T09:58:17Z</time>
      </trkpt>
      <trkpt lat="49.94128" lon="5.39264">
        <ele>461</ele>
        <time>2015-04-12T09:58:22Z</time>
      </trkpt>
      <trkpt lat="49.94124" lon="5.39271">
        <ele>461</ele>
        <time>2015-04-12T09:58:28Z</time>
      </trkpt>
      <trkpt lat="49.9412" lon="5.39279">
        <ele>461</ele>
        <time>2015-04-12T09:58:34Z</time>
      </trkpt>
      <trkpt lat="49.94116" lon="5.39286">
        <ele>461</ele>
        <time>2015-04-12T09:58:39Z</time>
      </trkpt>
      <trkpt lat="49.94111" lon="5.39294">
        <ele>461</ele>
        <time>2015-04-12T09:58:45Z</time>
      </trkpt>
      <trkpt lat="49.94107" lon="5.39302">
        <ele>461</ele>
        <time>2015-04-12T09:58:51Z</time>
      </trkpt>
      <trkpt lat="49.94103" lon="5.39309">
        <ele>460</ele>
        <time>2015-04-12T09:58:56Z</time>
      </trkpt>
      <trkpt lat="49.94098" lon="5.39317">
        <ele>460</ele>
        <time>2015-04-12T09:59:02Z</time>
      </trkpt>
      <trkpt lat="49.94095" lon="5.39327">
        <ele>460</ele>
        <time>2015-04-12T09:59:08Z</time>
      </trkpt>
      <trkpt lat="49.94096" lon="5.39334">
        <ele>460</ele>
        <time>2015-04-12T09:59:14Z</time>
      </trkpt>
      <trkpt lat="49.94098" lon="5.3934">
        <ele>461</ele>
        <time>2015-04-12T09:59:20Z</time>
      </trkpt>
      <trkpt lat="49.94101" lon="5.39346">
        <ele>461</ele>
        <time>2015-04-12T09:59:26Z</time>
      </trkpt>
      <trkpt lat="49.94105" lon="5.39351">
        <ele>462</ele>
        <time>2015-04-12T09:59:31Z</time>
      </trkpt>
      <trkpt lat="49.9411" lon="5.39356">
        <ele>462</ele>
        <time>2015-04-12T09:59:36Z</time>
      </trkpt>
      <trkpt lat="49.94116" lon="5.39362">
        <ele>462</ele>
        <time>2015-04-12T09:59:42Z</time>
      </trkpt>
      <trkpt lat="49.9412" lon="5.39365">
        <ele>462</ele>
        <time>2015-04-12T09:59:47Z</time>
      </trkpt>
      <trkpt lat="49.94125" lon="5.3937">
        <ele>463</ele>
        <time>2015-04-12T09:59:53Z</time>
      </trkpt>
      <trkpt lat="49.94129" lon="5.39375">
        <ele>463</ele>
        <time>2015-04-12T09:59:59Z</time>
      </trkpt>
      <trkpt lat="49.94131" lon="5.39377">
        <ele>463</ele>
        <time>2015-04-12T10:00:04Z</time>
      </trkpt>
      <trkpt lat="49.94135" lon="5.39379">
        <ele>463</ele>
        <time>2015-04-12T10:00:10Z</time>
      </trkpt>
      <trkpt lat="49.94139" lon="5.3938">
        <ele>464</ele>
        <time>2015-04-12T10:00:15Z</time>
      </trkpt>
      <trkpt lat="49.94144" lon="5.39384">
        <ele>464</ele>
        <time>2015-04-12T10:00:21Z</time>
      </trkpt>
      <trkpt lat="49.94149" lon="5.39388">
        <ele>465</ele>
        <time>2015-04-12T10:00:26Z</time>
      </trkpt>
      <trkpt lat="49.94153" lon="5.39392">
        <ele>465</ele>
        <time>2015-04-12T10:00:32Z</time>
      </trkpt>
      <trkpt lat="49.94155" lon="5.39397">
        <ele>465</ele>
        <time>2015-04-12T10:00:37Z</time>
      </trkpt>
      <trkpt lat="49.94156" lon="5.39402">
        <ele>465</ele>
        <time>2015-04-12T10:00:43Z</time>
      </trkpt>
      <trkpt lat="49.94158" lon="5.39402">
        <ele>465</ele>
        <time>2015-04-12T10:00:48Z</time>
      </trkpt>
      <trkpt lat="49.94159" lon="5.39404">
        <ele>465</ele>
        <time>2015-04-12T10:00:54Z</time>
      </trkpt>
      <trkpt lat="49.9416" lon="5.39405">
        <ele>465</ele>
        <time>2015-04-12T10:00:59Z</time>
      </trkpt>
      <trkpt lat="49.94164" lon="5.39406">
        <ele>465</ele>
        <time>2015-04-12T10:01:05Z</time>
      </trkpt>
      <trkpt lat="49.94166" lon="5.39409">
        <ele>465</ele>
        <time>2015-04-12T10:01:11Z</time>
      </trkpt>
      <trkpt lat="49.94168" lon="5.39414">
        <ele>465</ele>
        <time>2015-04-12T10:01:16Z</time>
      </trkpt>
      <trkpt lat="49.94169" lon="5.39421">
        <ele>465</ele>
        <time>2015-04-12T10:01:21Z</time>
      </trkpt>
      <trkpt lat="49.94172" lon="5.39426">
        <ele>466</ele>
        <time>2015-04-12T10:01:26Z</time>
      </trkpt>
      <trkpt lat="49.94174" lon="5.39433">
        <ele>466</ele>
        <time>2015-04-12T10:01:32Z</time>
      </trkpt>
      <trkpt lat="49.94176" lon="5.3944">
        <ele>467</ele>
        <time>2015-04-12T10:01:37Z</time>
      </trkpt>
      <trkpt lat="49.94179" lon="5.39447">
        <ele>467</ele>
        <time>2015-04-12T10:01:42Z</time>
      </trkpt>
      <trkpt lat="49.94181" lon="5.39454">
        <ele>467</ele>
        <time>2015-04-12T10:01:47Z</time>
      </trkpt>
      <trkpt lat="49.9418" lon="5.3946">
        <ele>467</ele>
        <time>2015-04-12T10:01:53Z</time>
      </trkpt>
      <trkpt lat="49.94178" lon="5.39465">
        <ele>467</ele>
        <time>2015-04-12T10:01:58Z</time>
      </trkpt>
      <trkpt lat="49.9418" lon="5.39466">
        <ele>467</ele>
        <time>2015-04-12T10:02:04Z</time>
      </trkpt>
      <trkpt lat="49.94181" lon="5.39469">
        <ele>467</ele>
        <time>2015-04-12T10:02:09Z</time>
      </trkpt>
      <trkpt lat="49.94185" lon="5.39474">
        <ele>467</ele>
        <time>2015-04-12T10:02:14Z</time>
      </trkpt>
      <trkpt lat="49.94189" lon="5.39482">
        <ele>468</ele>
        <time>2015-04-12T10:02:20Z</time>
      </trkpt>
      <trkpt lat="49.94193" lon="5.39488">
        <ele>468</ele>
        <time>2015-04-12T10:02:25Z</time>
      </trkpt>
      <trkpt lat="49.94196" lon="5.39495">
        <ele>468</ele>
        <time>2015-04-12T10:02:30Z</time>
      </trkpt>
      <trkpt lat="49.94202" lon="5.39503">
        <ele>468</ele>
        <time>2015-04-12T10:02:36Z</time>
      </trkpt>
      <trkpt lat="49.94205" lon="5.39508">
        <ele>469</ele>
        <time>2015-04-12T10:02:41Z</time>
      </trkpt>
      <trkpt lat="49.94209" lon="5.39513">
        <ele>469</ele>
        <time>2015-04-12T10:02:46Z</time>
      </trkpt>
      <trkpt lat="49.94212" lon="5.39521">
        <ele>469</ele>
        <time>2015-04-12T10:02:52Z</time>
      </trkpt>
      <trkpt lat="49.94216" lon="5.39528">
        <ele>470</ele>
        <time>2015-04-12T10:02:57Z</time>
      </trkpt>
      <trkpt lat="49.9422" lon="5.39537">
        <ele>470</ele>
        <time>2015-04-12T10:03:03Z</time>
      </trkpt>
      <trkpt lat="49.94224" lon="5.39542">
        <ele>470</ele>
        <time>2015-04-12T10:03:08Z</time>
      </trkpt>
      <trkpt lat="49.94227" lon="5.39548">
        <ele>470</ele>
        <time>2015-04-12T10:03:14Z</time>
      </trkpt>
      <trkpt lat="49.94231" lon="5.39556">
        <ele>470</ele>
        <time>2015-04-12T10:03:20Z</time>
      </trkpt>
      <trkpt lat="49.94234" lon="5.39562">
        <ele>470</ele>
        <time>2015-04-12T10:03:25Z</time>
      </trkpt>
      <trkpt lat="49.94239" lon="5.39569">
        <ele>471</ele>
        <time>2015-04-12T10:03:31Z</time>
      </trkpt>
      <trkpt lat="49.94242" lon="5.39575">
        <ele>470</ele>
        <time>2015-04-12T10:03:36Z</time>
      </trkpt>
      <trkpt lat="49.94248" lon="5.3958">
        <ele>470</ele>
        <time>2015-04-12T10:03:42Z</time>
      </trkpt>
      <trkpt lat="49.94252" lon="5.39585">
        <ele>470</ele>
        <time>2015-04-12T10:03:47Z</time>
      </trkpt>
      <trkpt lat="49.94257" lon="5.39591">
        <ele>470</ele>
        <time>2015-04-12T10:03:52Z</time>
      </trkpt>
      <trkpt lat="49.94261" lon="5.39596">
        <ele>470</ele>
        <time>2015-04-12T10:03:58Z</time>
      </trkpt>
      <trkpt lat="49.94265" lon="5.39598">
        <ele>469</ele>
        <time>2015-04-12T10:04:04Z</time>
      </trkpt>
      <trkpt lat="49.94268" lon="5.39598">
        <ele>469</ele>
        <time>2015-04-12T10:04:09Z</time>
      </trkpt>
      <trkpt lat="49.94271" lon="5.39597">
        <ele>470</ele>
        <time>2015-04-12T10:04:15Z</time>
      </trkpt>
      <trkpt lat="49.94275" lon="5.39599">
        <ele>469</ele>
        <time>2015-04-12T10:04:20Z</time>
      </trkpt>
      <trkpt lat="49.94278" lon="5.39606">
        <ele>469</ele>
        <time>2015-04-12T10:04:26Z</time>
      </trkpt>
      <trkpt lat="49.94276" lon="5.39611">
        <ele>468</ele>
        <time>2015-04-12T10:04:31Z</time>
      </trkpt>
      <trkpt lat="49.94275" lon="5.39613">
        <ele>469</ele>
        <time>2015-04-12T10:04:36Z</time>
      </trkpt>
      <trkpt lat="49.94276" lon="5.39615">
        <ele>469</ele>
        <time>2015-04-12T10:04:42Z</time>
      </trkpt>
      <trkpt lat="49.94276" lon="5.39616">
        <ele>468</ele>
        <time>2015-04-12T10:04:47Z</time>
      </trkpt>
      <trkpt lat="49.94277" lon="5.39617">
        <ele>468</ele>
        <time>2015-04-12T10:04:53Z</time>
      </trkpt>
      <trkpt lat="49.94278" lon="5.39618">
        <ele>469</ele>
        <time>2015-04-12T10:04:58Z</time>
      </trkpt>
      <trkpt lat="49.94277" lon="5.39619">
        <ele>468</ele>
        <time>2015-04-12T10:05:03Z</time>
      </trkpt>
      <trkpt lat="49.94276" lon="5.3962">
        <ele>468</ele>
        <time>2015-04-12T10:05:08Z</time>
      </trkpt>
      <trkpt lat="49.94277" lon="5.39621">
        <ele>469</ele>
        <time>2015-04-12T10:05:14Z</time>
      </trkpt>
      <trkpt lat="49.94279" lon="5.39622">
        <ele>469</ele>
        <time>2015-04-12T10:05:20Z</time>
      </trkpt>
      <trkpt lat="49.94277" lon="5.3962">
        <ele>468</ele>
        <time>2015-04-12T10:05:26Z</time>
      </trkpt>
      <trkpt lat="49.94278" lon="5.39618">
        <ele>468</ele>
        <time>2015-04-12T10:05:31Z</time>
      </trkpt>
      <trkpt lat="49.9428" lon="5.39617">
        <ele>469</ele>
        <time>2015-04-12T10:05:37Z</time>
      </trkpt>
      <trkpt lat="49.94279" lon="5.39617">
        <ele>469</ele>
        <time>2015-04-12T10:05:42Z</time>
      </trkpt>
      <trkpt lat="49.94278" lon="5.3962">
        <ele>469</ele>
        <time>2015-04-12T10:05:47Z</time>
      </trkpt>
      <trkpt lat="49.94278" lon="5.39624">
        <ele>469</ele>
        <time>2015-04-12T10:05:53Z</time>
      </trkpt>
      <trkpt lat="49.94278" lon="5.39626">
        <ele>469</ele>
        <time>2015-04-12T10:05:58Z</time>
      </trkpt>
      <trkpt lat="49.94277" lon="5.39629">
        <ele>468</ele>
        <time>2015-04-12T10:06:04Z</time>
      </trkpt>
      <trkpt lat="49.94277" lon="5.3963">
        <ele>469</ele>
        <time>2015-04-12T10:06:10Z</time>
      </trkpt>
      <trkpt lat="49.94277" lon="5.39628">
        <ele>469</ele>
        <time>2015-04-12T10:06:16Z</time>
      </trkpt>
      <trkpt lat="49.94277" lon="5.39624">
        <ele>468</ele>
        <time>2015-04-12T10:06:22Z</time>
      </trkpt>
      <trkpt lat="49.94276" lon="5.39621">
        <ele>469</ele>
        <time>2015-04-12T10:06:28Z</time>
      </trkpt>
      <trkpt lat="49.94275" lon="5.39622">
        <ele>469</ele>
        <time>2015-04-12T10:06:34Z</time>
      </trkpt>
      <trkpt lat="49.94275" lon="5.39622">
        <ele>469</ele>
        <time>2015-04-12T10:06:39Z</time>
      </trkpt>
      <trkpt lat="49.94275" lon="5.39621">
        <ele>468</ele>
        <time>2015-04-12T10:06:45Z</time>
      </trkpt>
      <trkpt lat="49.94276" lon="5.39622">
        <ele>469</ele>
        <time>2015-04-12T10:06:50Z</time>
      </trkpt>
      <trkpt lat="49.94278" lon="5.39623">
        <ele>468</ele>
        <time>2015-04-12T10:06:55Z</time>
      </trkpt>
      <trkpt lat="49.94278" lon="5.39621">
        <ele>469</ele>
        <time>2015-04-12T10:07:01Z</time>
      </trkpt>
      <trkpt lat="49.94278" lon="5.3962">
        <ele>469</ele>
        <time>2015-04-12T10:07:06Z</time>
      </trkpt>
      <trkpt lat="49.94281" lon="5.39623">
        <ele>468</ele>
        <time>2015-04-12T10:07:11Z</time>
      </trkpt>
      <trkpt lat="49.94287" lon="5.39628">
        <ele>468</ele>
        <time>2015-04-12T10:07:17Z</time>
      </trkpt>
      <trkpt lat="49.94292" lon="5.39632">
        <ele>468</ele>
        <time>2015-04-12T10:07:22Z</time>
      </trkpt>
      <trkpt lat="49.94297" lon="5.39638">
        <ele>468</ele>
        <time>2015-04-12T10:07:28Z</time>
      </trkpt>
      <trkpt lat="49.94303" lon="5.39642">
        <ele>466</ele>
        <time>2015-04-12T10:07:34Z</time>
      </trkpt>
      <trkpt lat="49.94308" lon="5.39646">
        <ele>466</ele>
        <time>2015-04-12T10:07:39Z</time>
      </trkpt>
      <trkpt lat="49.94314" lon="5.39649">
        <ele>465</ele>
        <time>2015-04-12T10:07:45Z</time>
      </trkpt>
      <trkpt lat="49.9432" lon="5.39652">
        <ele>465</ele>
        <time>2015-04-12T10:07:50Z</time>
      </trkpt>
      <trkpt lat="49.94328" lon="5.39655">
        <ele>464</ele>
        <time>2015-04-12T10:07:56Z</time>
      </trkpt>
      <trkpt lat="49.94335" lon="5.39659">
        <ele>463</ele>
        <time>2015-04-12T10:08:02Z</time>
      </trkpt>
      <trkpt lat="49.94341" lon="5.39662">
        <ele>462</ele>
        <time>2015-04-12T10:08:08Z</time>
      </trkpt>
      <trkpt lat="49.94347" lon="5.39666">
        <ele>461</ele>
        <time>2015-04-12T10:08:13Z</time>
      </trkpt>
      <trkpt lat="49.94355" lon="5.3967">
        <ele>460</ele>
        <time>2015-04-12T10:08:19Z</time>
      </trkpt>
      <trkpt lat="49.94363" lon="5.39674">
        <ele>460</ele>
        <time>2015-04-12T10:08:25Z</time>
      </trkpt>
      <trkpt lat="49.9437" lon="5.39677">
        <ele>459</ele>
        <time>2015-04-12T10:08:31Z</time>
      </trkpt>
      <trkpt lat="49.94377" lon="5.3968">
        <ele>459</ele>
        <time>2015-04-12T10:08:37Z</time>
      </trkpt>
      <trkpt lat="49.94384" lon="5.39683">
        <ele>459</ele>
        <time>2015-04-12T10:08:43Z</time>
      </trkpt>
      <trkpt lat="49.94389" lon="5.39686">
        <ele>459</ele>
        <time>2015-04-12T10:08:48Z</time>
      </trkpt>
      <trkpt lat="49.94395" lon="5.39689">
        <ele>459</ele>
        <time>2015-04-12T10:08:54Z</time>
      </trkpt>
      <trkpt lat="49.94404" lon="5.39692">
        <ele>458</ele>
        <time>2015-04-12T10:09:00Z</time>
      </trkpt>
      <trkpt lat="49.94411" lon="5.39697">
        <ele>457</ele>
        <time>2015-04-12T10:09:06Z</time>
      </trkpt>
      <trkpt lat="49.94417" lon="5.39699">
        <ele>457</ele>
        <time>2015-04-12T10:09:11Z</time>
      </trkpt>
      <trkpt lat="49.94424" lon="5.39702">
        <ele>456</ele>
        <time>2015-04-12T10:09:17Z</time>
      </trkpt>
      <trkpt lat="49.9443" lon="5.39704">
        <ele>456</ele>
        <time>2015-04-12T10:09:22Z</time>
      </trkpt>
      <trkpt lat="49.94438" lon="5.39706">
        <ele>455</ele>
        <time>2015-04-12T10:09:28Z</time>
      </trkpt>
      <trkpt lat="49.94445" lon="5.39709">
        <ele>454</ele>
        <time>2015-04-12T10:09:34Z</time>
      </trkpt>
      <trkpt lat="49.9445" lon="5.39711">
        <ele>454</ele>
        <time>2015-04-12T10:09:39Z</time>
      </trkpt>
      <trkpt lat="49.94455" lon="5.39713">
        <ele>454</ele>
        <time>2015-04-12T10:09:44Z</time>
      </trkpt>
      <trkpt lat="49.9446" lon="5.39715">
        <ele>453</ele>
        <time>2015-04-12T10:09:50Z</time>
      </trkpt>
      <trkpt lat="49.94464" lon="5.39717">
        <ele>454</ele>
        <time>2015-04-12T10:09:55Z</time>
      </trkpt>
      <trkpt lat="49.94468" lon="5.3972">
        <ele>453</ele>
        <time>2015-04-12T10:10:01Z</time>
      </trkpt>
      <trkpt lat="49.94473" lon="5.39721">
        <ele>453</ele>
        <time>2015-04-12T10:10:06Z</time>
      </trkpt>
      <trkpt lat="49.94479" lon="5.39723">
        <ele>453</ele>
        <time>2015-04-12T10:10:12Z</time>
      </trkpt>
      <trkpt lat="49.94484" lon="5.39724">
        <ele>454</ele>
        <time>2015-04-12T10:10:17Z</time>
      </trkpt>
      <trkpt lat="49.9449" lon="5.39728">
        <ele>454</ele>
        <time>2015-04-12T10:10:23Z</time>
      </trkpt>
      <trkpt lat="49.94496" lon="5.39729">
        <ele>454</ele>
        <time>2015-04-12T10:10:29Z</time>
      </trkpt>
      <trkpt lat="49.94499" lon="5.39729">
        <ele>454</ele>
        <time>2015-04-12T10:10:34Z</time>
      </trkpt>
      <trkpt lat="49.94502" lon="5.3973">
        <ele>454</ele>
        <time>2015-04-12T10:10:40Z</time>
      </trkpt>
      <trkpt lat="49.94505" lon="5.39732">
        <ele>454</ele>
        <time>2015-04-12T10:10:45Z</time>
      </trkpt>
      <trkpt lat="49.94509" lon="5.39735">
        <ele>454</ele>
        <time>2015-04-12T10:10:51Z</time>
      </trkpt>
      <trkpt lat="49.94514" lon="5.39737">
        <ele>454</ele>
        <time>2015-04-12T10:10:57Z</time>
      </trkpt>
      <trkpt lat="49.9452" lon="5.39739">
        <ele>454</ele>
        <time>2015-04-12T10:11:02Z</time>
      </trkpt>
      <trkpt lat="49.94526" lon="5.39742">
        <ele>455</ele>
        <time>2015-04-12T10:11:08Z</time>
      </trkpt>
      <trkpt lat="49.94532" lon="5.39746">
        <ele>455</ele>
        <time>2015-04-12T10:11:14Z</time>
      </trkpt>
      <trkpt lat="49.94538" lon="5.3975">
        <ele>455</ele>
        <time>2015-04-12T10:11:20Z</time>
      </trkpt>
      <trkpt lat="49.94547" lon="5.39753">
        <ele>455</ele>
        <time>2015-04-12T10:11:26Z</time>
      </trkpt>
      <trkpt lat="49.94553" lon="5.39756">
        <ele>456</ele>
        <time>2015-04-12T10:11:31Z</time>
      </trkpt>
      <trkpt lat="49.9456" lon="5.3976">
        <ele>456</ele>
        <time>2015-04-12T10:11:37Z</time>
      </trkpt>
      <trkpt lat="49.94568" lon="5.39764">
        <ele>456</ele>
        <time>2015-04-12T10:11:43Z</time>
      </trkpt>
      <trkpt lat="49.94577" lon="5.39768">
        <ele>456</ele>
        <time>2015-04-12T10:11:49Z</time>
      </trkpt>
      <trkpt lat="49.94585" lon="5.39772">
        <ele>457</ele>
        <time>2015-04-12T10:11:55Z</time>
      </trkpt>
      <trkpt lat="49.94592" lon="5.39777">
        <ele>457</ele>
        <time>2015-04-12T10:12:01Z</time>
      </trkpt>
      <trkpt lat="49.94597" lon="5.3978">
        <ele>457</ele>
        <time>2015-04-12T10:12:06Z</time>
      </trkpt>
      <trkpt lat="49.94603" lon="5.39784">
        <ele>457</ele>
        <time>2015-04-12T10:12:12Z</time>
      </trkpt>
      <trkpt lat="49.94611" lon="5.39789">
        <ele>457</ele>
        <time>2015-04-12T10:12:18Z</time>
      </trkpt>
      <trkpt lat="49.94618" lon="5.39793">
        <ele>456</ele>
        <time>2015-04-12T10:12:23Z</time>
      </trkpt>
      <trkpt lat="49.94622" lon="5.39799">
        <ele>457</ele>
        <time>2015-04-12T10:12:29Z</time>
      </trkpt>
      <trkpt lat="49.94624" lon="5.39802">
        <ele>457</ele>
        <time>2015-04-12T10:12:35Z</time>
      </trkpt>
      <trkpt lat="49.94627" lon="5.39806">
        <ele>458</ele>
        <time>2015-04-12T10:12:41Z</time>
      </trkpt>
      <trkpt lat="49.9463" lon="5.39809">
        <ele>457</ele>
        <time>2015-04-12T10:12:46Z</time>
      </trkpt>
      <trkpt lat="49.94635" lon="5.39812">
        <ele>457</ele>
        <time>2015-04-12T10:12:52Z</time>
      </trkpt>
      <trkpt lat="49.94641" lon="5.39815">
        <ele>457</ele>
        <time>2015-04-12T10:12:58Z</time>
      </trkpt>
      <trkpt lat="49.94647" lon="5.39819">
        <ele>456</ele>
        <time>2015-04-12T10:13:04Z</time>
      </trkpt>
      <trkpt lat="49.94653" lon="5.39823">
        <ele>456</ele>
        <time>2015-04-12T10:13:10Z</time>
      </trkpt>
      <trkpt lat="49.94658" lon="5.39828">
        <ele>457</ele>
        <time>2015-04-12T10:13:15Z</time>
      </trkpt>
      <trkpt lat="49.94664" lon="5.39833">
        <ele>456</ele>
        <time>2015-04-12T10:13:21Z</time>
      </trkpt>
      <trkpt lat="49.94672" lon="5.39838">
        <ele>456</ele>
        <time>2015-04-12T10:13:27Z</time>
      </trkpt>
      <trkpt lat="49.94678" lon="5.39842">
        <ele>456</ele>
        <time>2015-04-12T10:13:33Z</time>
      </trkpt>
      <trkpt lat="49.94685" lon="5.39848">
        <ele>456</ele>
        <time>2015-04-12T10:13:39Z</time>
      </trkpt>
      <trkpt lat="49.94691" lon="5.39854">
        <ele>456</ele>
        <time>2015-04-12T10:13:45Z</time>
      </trkpt>
      <trkpt lat="49.94698" lon="5.3986">
        <ele>456</ele>
        <time>2015-04-12T10:13:51Z</time>
      </trkpt>
      <trkpt lat="49.94702" lon="5.39863">
        <ele>456</ele>
        <time>2015-04-12T10:13:56Z</time>
      </trkpt>
      <trkpt lat="49.94708" lon="5.39868">
        <ele>456</ele>
        <time>2015-04-12T10:14:01Z</time>
      </trkpt>
      <trkpt lat="49.94713" lon="5.39874">
        <ele>455</ele>
        <time>2015-04-12T10:14:07Z</time>
      </trkpt>
      <trkpt lat="49.94718" lon="5.3988">
        <ele>455</ele>
        <time>2015-04-12T10:14:13Z</time>
      </trkpt>
      <trkpt lat="49.94724" lon="5.39887">
        <ele>454</ele>
        <time>2015-04-12T10:14:19Z</time>
      </trkpt>
      <trkpt lat="49.9473" lon="5.39892">
        <ele>454</ele>
        <time>2015-04-12T10:14:24Z</time>
      </trkpt>
      <trkpt lat="49.94734" lon="5.39897">
        <ele>454</ele>
        <time>2015-04-12T10:14:29Z</time>
      </trkpt>
      <trkpt lat="49.94739" lon="5.39903">
        <ele>453</ele>
        <time>2015-04-12T10:14:35Z</time>
      </trkpt>
      <trkpt lat="49.94746" lon="5.39909">
        <ele>452</ele>
        <time>2015-04-12T10:14:41Z</time>
      </trkpt>
      <trkpt lat="49.94752" lon="5.39915">
        <ele>452</ele>
        <time>2015-04-12T10:14:46Z</time>
      </trkpt>
      <trkpt lat="49.94759" lon="5.3992">
        <ele>452</ele>
        <time>2015-04-12T10:14:52Z</time>
      </trkpt>
      <trkpt lat="49.94765" lon="5.39926">
        <ele>452</ele>
        <time>2015-04-12T10:14:58Z</time>
      </trkpt>
      <trkpt lat="49.94772" lon="5.39931">
        <ele>451</ele>
        <time>2015-04-12T10:15:03Z</time>
      </trkpt>
      <trkpt lat="49.94776" lon="5.39936">
        <ele>450</ele>
        <time>2015-04-12T10:15:08Z</time>
      </trkpt>
      <trkpt lat="49.94781" lon="5.39945">
        <ele>449</ele>
        <time>2015-04-12T10:15:14Z</time>
      </trkpt>
      <trkpt lat="49.94785" lon="5.39951">
        <ele>449</ele>
        <time>2015-04-12T10:15:19Z</time>
      </trkpt>
      <trkpt lat="49.94791" lon="5.39959">
        <ele>449</ele>
        <time>2015-04-12T10:15:25Z</time>
      </trkpt>
      <trkpt lat="49.94795" lon="5.39965">
        <ele>448</ele>
        <time>2015-04-12T10:15:30Z</time>
      </trkpt>
      <trkpt lat="49.94799" lon="5.39971">
        <ele>448</ele>
        <time>2015-04-12T10:15:35Z</time>
      </trkpt>
      <trkpt lat="49.94804" lon="5.39978">
        <ele>448</ele>
        <time>2015-04-12T10:15:40Z</time>
      </trkpt>
      <trkpt lat="49.94807" lon="5.39985">
        <ele>447</ele>
        <time>2015-04-12T10:15:46Z</time>
      </trkpt>
      <trkpt lat="49.94807" lon="5.39989">
        <ele>447</ele>
        <time>2015-04-12T10:15:51Z</time>
      </trkpt>
      <trkpt lat="49.94806" lon="5.39997">
        <ele>446</ele>
        <time>2015-04-12T10:15:57Z</time>
      </trkpt>
      <trkpt lat="49.94806" lon="5.40002">
        <ele>446</ele>
        <time>2015-04-12T10:16:03Z</time>
      </trkpt>
      <trkpt lat="49.94805" lon="5.40005">
        <ele>447</ele>
        <time>2015-04-12T10:16:09Z</time>
      </trkpt>
      <trkpt lat="49.94805" lon="5.40007">
        <ele>447</ele>
        <time>2015-04-12T10:16:14Z</time>
      </trkpt>
      <trkpt lat="49.94804" lon="5.4001">
        <ele>446</ele>
        <time>2015-04-12T10:16:19Z</time>
      </trkpt>
      <trkpt lat="49.94801" lon="5.40012">
        <ele>446</ele>
        <time>2015-04-12T10:16:25Z</time>
      </trkpt>
      <trkpt lat="49.948" lon="5.40015">
        <ele>446</ele>
        <time>2015-04-12T10:16:30Z</time>
      </trkpt>
      <trkpt lat="49.94798" lon="5.40017">
        <ele>446</ele>
        <time>2015-04-12T10:16:36Z</time>
      </trkpt>
      <trkpt lat="49.94797" lon="5.4002">
        <ele>446</ele>
        <time>2015-04-12T10:16:42Z</time>
      </trkpt>
      <trkpt lat="49.94799" lon="5.4002">
        <ele>446</ele>
        <time>2015-04-12T10:16:47Z</time>
      </trkpt>
      <trkpt lat="49.94803" lon="5.40018">
        <ele>446</ele>
        <time>2015-04-12T10:16:53Z</time>
      </trkpt>
      <trkpt lat="49.94807" lon="5.40013">
        <ele>446</ele>
        <time>2015-04-12T10:16:58Z</time>
      </trkpt>
      <trkpt lat="49.94809" lon="5.40008">
        <ele>446</ele>
        <time>2015-04-12T10:17:03Z</time>
      </trkpt>
      <trkpt lat="49.9481" lon="5.40006">
        <ele>446</ele>
        <time>2015-04-12T10:17:08Z</time>
      </trkpt>
      <trkpt lat="49.94809" lon="5.40005">
        <ele>446</ele>
        <time>2015-04-12T10:17:13Z</time>
      </trkpt>
      <trkpt lat="49.94809" lon="5.40002">
        <ele>447</ele>
        <time>2015-04-12T10:17:19Z</time>
      </trkpt>
      <trkpt lat="49.94809" lon="5.39998">
        <ele>447</ele>
        <time>2015-04-12T10:17:24Z</time>
      </trkpt>
      <trkpt lat="49.94809" lon="5.39996">
        <ele>447</ele>
        <time>2015-04-12T10:17:30Z</time>
      </trkpt>
      <trkpt lat="49.9481" lon="5.39992">
        <ele>447</ele>
        <time>2015-04-12T10:17:35Z</time>
      </trkpt>
      <trkpt lat="49.94813" lon="5.39993">
        <ele>447</ele>
        <time>2015-04-12T10:17:41Z</time>
      </trkpt>
      <trkpt lat="49.94816" lon="5.39996">
        <ele>447</ele>
        <time>2015-04-12T10:17:46Z</time>
      </trkpt>
      <trkpt lat="49.94818" lon="5.39999">
        <ele>447</ele>
        <time>2015-04-12T10:17:52Z</time>
      </trkpt>
      <trkpt lat="49.9482" lon="5.4">
        <ele>446</ele>
        <time>2015-04-12T10:17:57Z</time>
      </trkpt>
      <trkpt lat="49.94822" lon="5.40003">
        <ele>446</ele>
        <time>2015-04-12T10:18:03Z</time>
      </trkpt>
      <trkpt lat="49.94825" lon="5.40009">
        <ele>446</ele>
        <time>2015-04-12T10:18:09Z</time>
      </trkpt>
      <trkpt lat="49.94829" lon="5.40015">
        <ele>446</ele>
        <time>2015-04-12T10:18:15Z</time>
      </trkpt>
      <trkpt lat="49.94833" lon="5.4002">
        <ele>446</ele>
        <time>2015-04-12T10:18:21Z</time>
      </trkpt>
      <trkpt lat="49.94836" lon="5.40026">
        <ele>445</ele>
        <time>2015-04-12T10:18:26Z</time>
      </trkpt>
      <trkpt lat="49.94843" lon="5.40032">
        <ele>445</ele>
        <time>2015-04-12T10:18:32Z</time>
      </trkpt>
      <trkpt lat="49.94849" lon="5.40039">
        <ele>445</ele>
        <time>2015-04-12T10:18:38Z</time>
      </trkpt>
      <trkpt lat="49.94853" lon="5.40044">
        <ele>445</ele>
        <time>2015-04-12T10:18:44Z</time>
      </trkpt>
      <trkpt lat="49.94858" lon="5.4005">
        <ele>444</ele>
        <time>2015-04-12T10:18:49Z</time>
      </trkpt>
      <trkpt lat="49.94863" lon="5.40057">
        <ele>444</ele>
        <time>2015-04-12T10:18:55Z</time>
      </trkpt>
      <trkpt lat="49.94867" lon="5.40066">
        <ele>443</ele>
        <time>2015-04-12T10:19:01Z</time>
      </trkpt>
      <trkpt lat="49.94871" lon="5.40072">
        <ele>443</ele>
        <time>2015-04-12T10:19:06Z</time>
      </trkpt>
      <trkpt lat="49.94876" lon="5.4008">
        <ele>443</ele>
        <time>2015-04-12T10:19:12Z</time>
      </trkpt>
      <trkpt lat="49.94881" lon="5.40089">
        <ele>443</ele>
        <time>2015-04-12T10:19:18Z</time>
      </trkpt>
      <trkpt lat="49.94885" lon="5.40097">
        <ele>443</ele>
        <time>2015-04-12T10:19:24Z</time>
      </trkpt>
      <trkpt lat="49.94889" lon="5.40102">
        <ele>443</ele>
        <time>2015-04-12T10:19:29Z</time>
      </trkpt>
      <trkpt lat="49.94894" lon="5.40108">
        <ele>443</ele>
        <time>2015-04-12T10:19:34Z</time>
      </trkpt>
      <trkpt lat="49.949" lon="5.40114">
        <ele>442</ele>
        <time>2015-04-12T10:19:40Z</time>
      </trkpt>
      <trkpt lat="49.94904" lon="5.40121">
        <ele>442</ele>
        <time>2015-04-12T10:19:45Z</time>
      </trkpt>
      <trkpt lat="49.94909" lon="5.4013">
        <ele>442</ele>
        <time>2015-04-12T10:19:51Z</time>
      </trkpt>
      <trkpt lat="49.94913" lon="5.40138">
        <ele>442</ele>
        <time>2015-04-12T10:19:56Z</time>
      </trkpt>
      <trkpt lat="49.94918" lon="5.40146">
        <ele>441</ele>
        <time>2015-04-12T10:20:02Z</time>
      </trkpt>
      <trkpt lat="49.94923" lon="5.40153">
        <ele>441</ele>
        <time>2015-04-12T10:20:07Z</time>
      </trkpt>
      <trkpt lat="49.94929" lon="5.4016">
        <ele>441</ele>
        <time>2015-04-12T10:20:13Z</time>
      </trkpt>
      <trkpt lat="49.94935" lon="5.40166">
        <ele>440</ele>
        <time>2015-04-12T10:20:19Z</time>
      </trkpt>
      <trkpt lat="49.94941" lon="5.4017">
        <ele>440</ele>
        <time>2015-04-12T10:20:25Z</time>
      </trkpt>
      <trkpt lat="49.94947" lon="5.40175">
        <ele>440</ele>
        <time>2015-04-12T10:20:31Z</time>
      </trkpt>
      <trkpt lat="49.94952" lon="5.4018">
        <ele>440</ele>
        <time>2015-04-12T10:20:36Z</time>
      </trkpt>
      <trkpt lat="49.94958" lon="5.40185">
        <ele>440</ele>
        <time>2015-04-12T10:20:42Z</time>
      </trkpt>
      <trkpt lat="49.94964" lon="5.4019">
        <ele>439</ele>
        <time>2015-04-12T10:20:47Z</time>
      </trkpt>
      <trkpt lat="49.9497" lon="5.40196">
        <ele>440</ele>
        <time>2015-04-12T10:20:53Z</time>
      </trkpt>
      <trkpt lat="49.94975" lon="5.402">
        <ele>439</ele>
        <time>2015-04-12T10:20:58Z</time>
      </trkpt>
      <trkpt lat="49.94981" lon="5.402">
        <ele>439</ele>
        <time>2015-04-12T10:21:03Z</time>
      </trkpt>
      <trkpt lat="49.94986" lon="5.40202">
        <ele>439</ele>
        <time>2015-04-12T10:21:08Z</time>
      </trkpt>
      <trkpt lat="49.94991" lon="5.40203">
        <ele>439</ele>
        <time>2015-04-12T10:21:14Z</time>
      </trkpt>
      <trkpt lat="49.94997" lon="5.40203">
        <ele>439</ele>
        <time>2015-04-12T10:21:19Z</time>
      </trkpt>
      <trkpt lat="49.95002" lon="5.40201">
        <ele>439</ele>
        <time>2015-04-12T10:21:24Z</time>
      </trkpt>
      <trkpt lat="49.95008" lon="5.40197">
        <ele>440</ele>
        <time>2015-04-12T10:21:29Z</time>
      </trkpt>
      <trkpt lat="49.95013" lon="5.40193">
        <ele>440</ele>
        <time>2015-04-12T10:21:35Z</time>
      </trkpt>
      <trkpt lat="49.95019" lon="5.4019">
        <ele>441</ele>
        <time>2015-04-12T10:21:41Z</time>
      </trkpt>
      <trkpt lat="49.95024" lon="5.40186">
        <ele>441</ele>
        <time>2015-04-12T10:21:47Z</time>
      </trkpt>
      <trkpt lat="49.9503" lon="5.40181">
        <ele>442</ele>
        <time>2015-04-12T10:21:53Z</time>
      </trkpt>
      <trkpt lat="49.95034" lon="5.40177">
        <ele>442</ele>
        <time>2015-04-12T10:21:58Z</time>
      </trkpt>
      <trkpt lat="49.95038" lon="5.40175">
        <ele>443</ele>
        <time>2015-04-12T10:22:03Z</time>
      </trkpt>
      <trkpt lat="49.95042" lon="5.40171">
        <ele>443</ele>
        <time>2015-04-12T10:22:08Z</time>
      </trkpt>
      <trkpt lat="49.95047" lon="5.40166">
        <ele>443</ele>
        <time>2015-04-12T10:22:14Z</time>
      </trkpt>
      <trkpt lat="49.95052" lon="5.40161">
        <ele>443</ele>
        <time>2015-04-12T10:22:20Z</time>
      </trkpt>
      <trkpt lat="49.95057" lon="5.40155">
        <ele>442</ele>
        <time>2015-04-12T10:22:25Z</time>
      </trkpt>
      <trkpt lat="49.95063" lon="5.4015">
        <ele>443</ele>
        <time>2015-04-12T10:22:31Z</time>
      </trkpt>
      <trkpt lat="49.95068" lon="5.40145">
        <ele>443</ele>
        <time>2015-04-12T10:22:36Z</time>
      </trkpt>
      <trkpt lat="49.95071" lon="5.40144">
        <ele>442</ele>
        <time>2015-04-12T10:22:42Z</time>
      </trkpt>
      <trkpt lat="49.95076" lon="5.40141">
        <ele>442</ele>
        <time>2015-04-12T10:22:47Z</time>
      </trkpt>
      <trkpt lat="49.95077" lon="5.40139">
        <ele>442</ele>
        <time>2015-04-12T10:22:53Z</time>
      </trkpt>
      <trkpt lat="49.95079" lon="5.40135">
        <ele>442</ele>
        <time>2015-04-12T10:22:58Z</time>
      </trkpt>
      <trkpt lat="49.95082" lon="5.40132">
        <ele>442</ele>
        <time>2015-04-12T10:23:03Z</time>
      </trkpt>
      <trkpt lat="49.95084" lon="5.4013">
        <ele>441</ele>
        <time>2015-04-12T10:23:08Z</time>
      </trkpt>
      <trkpt lat="49.95087" lon="5.40126">
        <ele>441</ele>
        <time>2015-04-12T10:23:13Z</time>
      </trkpt>
      <trkpt lat="49.95092" lon="5.40121">
        <ele>441</ele>
        <time>2015-04-12T10:23:19Z</time>
      </trkpt>
      <trkpt lat="49.95094" lon="5.40115">
        <ele>441</ele>
        <time>2015-04-12T10:23:24Z</time>
      </trkpt>
      <trkpt lat="49.95097" lon="5.4011">
        <ele>441</ele>
        <time>2015-04-12T10:23:29Z</time>
      </trkpt>
      <trkpt lat="49.95101" lon="5.40105">
        <ele>440</ele>
        <time>2015-04-12T10:23:35Z</time>
      </trkpt>
      <trkpt lat="49.95107" lon="5.40098">
        <ele>439</ele>
        <time>2015-04-12T10:23:41Z</time>
      </trkpt>
      <trkpt lat="49.95111" lon="5.40092">
        <ele>439</ele>
        <time>2015-04-12T10:23:46Z</time>
      </trkpt>
      <trkpt lat="49.95114" lon="5.40085">
        <ele>439</ele>
        <time>2015-04-12T10:23:51Z</time>
      </trkpt>
      <trkpt lat="49.95116" lon="5.40079">
        <ele>438</ele>
        <time>2015-04-12T10:23:56Z</time>
      </trkpt>
      <trkpt lat="49.95122" lon="5.40072">
        <ele>437</ele>
        <time>2015-04-12T10:24:02Z</time>
      </trkpt>
      <trkpt lat="49.95126" lon="5.40067">
        <ele>435</ele>
        <time>2015-04-12T10:24:07Z</time>
      </trkpt>
      <trkpt lat="49.95131" lon="5.40063">
        <ele>433</ele>
        <time>2015-04-12T10:24:12Z</time>
      </trkpt>
      <trkpt lat="49.95137" lon="5.40056">
        <ele>433</ele>
        <time>2015-04-12T10:24:18Z</time>
      </trkpt>
      <trkpt lat="49.95142" lon="5.40051">
        <ele>432</ele>
        <time>2015-04-12T10:24:23Z</time>
      </trkpt>
      <trkpt lat="49.95145" lon="5.40047">
        <ele>431</ele>
        <time>2015-04-12T10:24:28Z</time>
      </trkpt>
      <trkpt lat="49.95151" lon="5.40041">
        <ele>430</ele>
        <time>2015-04-12T10:24:34Z</time>
      </trkpt>
      <trkpt lat="49.95158" lon="5.40036">
        <ele>429</ele>
        <time>2015-04-12T10:24:40Z</time>
      </trkpt>
      <trkpt lat="49.95163" lon="5.40031">
        <ele>428</ele>
        <time>2015-04-12T10:24:45Z</time>
      </trkpt>
      <trkpt lat="49.95169" lon="5.40025">
        <ele>427</ele>
        <time>2015-04-12T10:24:51Z</time>
      </trkpt>
      <trkpt lat="49.95172" lon="5.40019">
        <ele>426</ele>
        <time>2015-04-12T10:24:56Z</time>
      </trkpt>
      <trkpt lat="49.95175" lon="5.40013">
        <ele>426</ele>
        <time>2015-04-12T10:25:01Z</time>
      </trkpt>
      <trkpt lat="49.95181" lon="5.40004">
        <ele>426</ele>
        <time>2015-04-12T10:25:07Z</time>
      </trkpt>
      <trkpt lat="49.95185" lon="5.39999">
        <ele>425</ele>
        <time>2015-04-12T10:25:12Z</time>
      </trkpt>
      <trkpt lat="49.9519" lon="5.39993">
        <ele>425</ele>
        <time>2015-04-12T10:25:18Z</time>
      </trkpt>
      <trkpt lat="49.95193" lon="5.39986">
        <ele>425</ele>
        <time>2015-04-12T10:25:23Z</time>
      </trkpt>
      <trkpt lat="49.95196" lon="5.39983">
        <ele>425</ele>
        <time>2015-04-12T10:25:29Z</time>
      </trkpt>
      <trkpt lat="49.952" lon="5.39978">
        <ele>425</ele>
        <time>2015-04-12T10:25:35Z</time>
      </trkpt>
      <trkpt lat="49.952" lon="5.39975">
        <ele>425</ele>
        <time>2015-04-12T10:25:41Z</time>
      </trkpt>
      <trkpt lat="49.95199" lon="5.39972">
        <ele>425</ele>
        <time>2015-04-12T10:25:46Z</time>
      </trkpt>
      <trkpt lat="49.95199" lon="5.3997">
        <ele>425</ele>
        <time>2015-04-12T10:25:52Z</time>
      </trkpt>
      <trkpt lat="49.95198" lon="5.39968">
        <ele>425</ele>
        <time>2015-04-12T10:25:58Z</time>
      </trkpt>
      <trkpt lat="49.95198" lon="5.39967">
        <ele>425</ele>
        <time>2015-04-12T10:26:04Z</time>
      </trkpt>
      <trkpt lat="49.95198" lon="5.39966">
        <ele>425</ele>
        <time>2015-04-12T10:26:10Z</time>
      </trkpt>
      <trkpt lat="49.95198" lon="5.39961">
        <ele>425</ele>
        <time>2015-04-12T10:26:15Z</time>
      </trkpt>
      <trkpt lat="49.95198" lon="5.39955">
        <ele>426</ele>
        <time>2015-04-12T10:26:21Z</time>
      </trkpt>
      <trkpt lat="49.95198" lon="5.39947">
        <ele>426</ele>
        <time>2015-04-12T10:26:27Z</time>
      </trkpt>
      <trkpt lat="49.952" lon="5.39942">
        <ele>425</ele>
        <time>2015-04-12T10:26:32Z</time>
      </trkpt>
      <trkpt lat="49.95201" lon="5.39936">
        <ele>424</ele>
        <time>2015-04-12T10:26:37Z</time>
      </trkpt>
      <trkpt lat="49.95201" lon="5.39924">
        <ele>424</ele>
        <time>2015-04-12T10:26:43Z</time>
      </trkpt>
      <trkpt lat="49.95203" lon="5.39914">
        <ele>423</ele>
        <time>2015-04-12T10:26:49Z</time>
      </trkpt>
      <trkpt lat="49.95205" lon="5.39905">
        <ele>423</ele>
        <time>2015-04-12T10:26:54Z</time>
      </trkpt>
      <trkpt lat="49.95208" lon="5.39893">
        <ele>423</ele>
        <time>2015-04-12T10:27:00Z</time>
      </trkpt>
      <trkpt lat="49.95211" lon="5.39886">
        <ele>423</ele>
        <time>2015-04-12T10:27:05Z</time>
      </trkpt>
      <trkpt lat="49.95214" lon="5.39875">
        <ele>423</ele>
        <time>2015-04-12T10:27:11Z</time>
      </trkpt>
      <trkpt lat="49.95216" lon="5.39865">
        <ele>422</ele>
        <time>2015-04-12T10:27:16Z</time>
      </trkpt>
      <trkpt lat="49.95218" lon="5.39855">
        <ele>422</ele>
        <time>2015-04-12T10:27:22Z</time>
      </trkpt>
      <trkpt lat="49.95221" lon="5.39844">
        <ele>423</ele>
        <time>2015-04-12T10:27:28Z</time>
      </trkpt>
      <trkpt lat="49.95222" lon="5.39836">
        <ele>423</ele>
        <time>2015-04-12T10:27:33Z</time>
      </trkpt>
      <trkpt lat="49.95225" lon="5.39826">
        <ele>423</ele>
        <time>2015-04-12T10:27:39Z</time>
      </trkpt>
      <trkpt lat="49.95227" lon="5.39814">
        <ele>423</ele>
        <time>2015-04-12T10:27:45Z</time>
      </trkpt>
      <trkpt lat="49.95228" lon="5.39805">
        <ele>423</ele>
        <time>2015-04-12T10:27:50Z</time>
      </trkpt>
      <trkpt lat="49.9523" lon="5.39792">
        <ele>423</ele>
        <time>2015-04-12T10:27:56Z</time>
      </trkpt>
      <trkpt lat="49.95232" lon="5.39781">
        <ele>423</ele>
        <time>2015-04-12T10:28:01Z</time>
      </trkpt>
      <trkpt lat="49.95234" lon="5.39769">
        <ele>423</ele>
        <time>2015-04-12T10:28:06Z</time>
      </trkpt>
      <trkpt lat="49.95236" lon="5.39753">
        <ele>423</ele>
        <time>2015-04-12T10:28:12Z</time>
      </trkpt>
      <trkpt lat="49.95237" lon="5.39739">
        <ele>424</ele>
        <time>2015-04-12T10:28:18Z</time>
      </trkpt>
      <trkpt lat="49.95238" lon="5.39727">
        <ele>424</ele>
        <time>2015-04-12T10:28:23Z</time>
      </trkpt>
      <trkpt lat="49.95238" lon="5.39718">
        <ele>424</ele>
        <time>2015-04-12T10:28:28Z</time>
      </trkpt>
      <trkpt lat="49.95238" lon="5.39711">
        <ele>424</ele>
        <time>2015-04-12T10:28:34Z</time>
      </trkpt>
      <trkpt lat="49.95239" lon="5.39704">
        <ele>425</ele>
        <time>2015-04-12T10:28:39Z</time>
      </trkpt>
      <trkpt lat="49.95241" lon="5.39695">
        <ele>425</ele>
        <time>2015-04-12T10:28:44Z</time>
      </trkpt>
      <trkpt lat="49.95242" lon="5.39686">
        <ele>424</ele>
        <time>2015-04-12T10:28:49Z</time>
      </trkpt>
      <trkpt lat="49.95244" lon="5.39675">
        <ele>425</ele>
        <time>2015-04-12T10:28:55Z</time>
      </trkpt>
      <trkpt lat="49.95248" lon="5.39669">
        <ele>426</ele>
        <time>2015-04-12T10:29:00Z</time>
      </trkpt>
      <trkpt lat="49.95251" lon="5.39665">
        <ele>425</ele>
        <time>2015-04-12T10:29:05Z</time>
      </trkpt>
      <trkpt lat="49.95256" lon="5.3966">
        <ele>425</ele>
        <time>2015-04-12T10:29:11Z</time>
      </trkpt>
      <trkpt lat="49.9526" lon="5.3966">
        <ele>425</ele>
        <time>2015-04-12T10:29:16Z</time>
      </trkpt>
      <trkpt lat="49.95266" lon="5.39658">
        <ele>424</ele>
        <time>2015-04-12T10:29:22Z</time>
      </trkpt>
      <trkpt lat="49.9527" lon="5.39658">
        <ele>423</ele>
        <time>2015-04-12T10:29:27Z</time>
      </trkpt>
      <trkpt lat="49.95278" lon="5.39661">
        <ele>423</ele>
        <time>2015-04-12T10:29:33Z</time>
      </trkpt>
      <trkpt lat="49.95285" lon="5.39664">
        <ele>422</ele>
        <time>2015-04-12T10:29:39Z</time>
      </trkpt>
      <trkpt lat="49.95293" lon="5.39667">
        <ele>421</ele>
        <time>2015-04-12T10:29:45Z</time>
      </trkpt>
      <trkpt lat="49.953" lon="5.39668">
        <ele>420</ele>
        <time>2015-04-12T10:29:50Z</time>
      </trkpt>
      <trkpt lat="49.95304" lon="5.39669">
        <ele>420</ele>
        <time>2015-04-12T10:29:55Z</time>
      </trkpt>
      <trkpt lat="49.95309" lon="5.39668">
        <ele>419</ele>
        <time>2015-04-12T10:30:00Z</time>
      </trkpt>
      <trkpt lat="49.95315" lon="5.3967">
        <ele>419</ele>
        <time>2015-04-12T10:30:05Z</time>
      </trkpt>
      <trkpt lat="49.9532" lon="5.39672">
        <ele>418</ele>
        <time>2015-04-12T10:30:11Z</time>
      </trkpt>
      <trkpt lat="49.95325" lon="5.39673">
        <ele>417</ele>
        <time>2015-04-12T10:30:16Z</time>
      </trkpt>
      <trkpt lat="49.95331" lon="5.39677">
        <ele>416</ele>
        <time>2015-04-12T10:30:22Z</time>
      </trkpt>
      <trkpt lat="49.95338" lon="5.39679">
        <ele>415</ele>
        <time>2015-04-12T10:30:28Z</time>
      </trkpt>
      <trkpt lat="49.95343" lon="5.39684">
        <ele>413</ele>
        <time>2015-04-12T10:30:34Z</time>
      </trkpt>
      <trkpt lat="49.95348" lon="5.39687">
        <ele>413</ele>
        <time>2015-04-12T10:30:39Z</time>
      </trkpt>
      <trkpt lat="49.95353" lon="5.3969">
        <ele>411</ele>
        <time>2015-04-12T10:30:45Z</time>
      </trkpt>
      <trkpt lat="49.95357" lon="5.39692">
        <ele>411</ele>
        <time>2015-04-12T10:30:51Z</time>
      </trkpt>
      <trkpt lat="49.95361" lon="5.39694">
        <ele>410</ele>
        <time>2015-04-12T10:30:57Z</time>
      </trkpt>
      <trkpt lat="49.95365" lon="5.39697">
        <ele>409</ele>
        <time>2015-04-12T10:31:02Z</time>
      </trkpt>
      <trkpt lat="49.95367" lon="5.39698">
        <ele>409</ele>
        <time>2015-04-12T10:31:07Z</time>
      </trkpt>
      <trkpt lat="49.95371" lon="5.39698">
        <ele>409</ele>
        <time>2015-04-12T10:31:13Z</time>
      </trkpt>
      <trkpt lat="49.95375" lon="5.397">
        <ele>408</ele>
        <time>2015-04-12T10:31:18Z</time>
      </trkpt>
      <trkpt lat="49.95379" lon="5.39702">
        <ele>407</ele>
        <time>2015-04-12T10:31:24Z</time>
      </trkpt>
      <trkpt lat="49.95383" lon="5.39706">
        <ele>406</ele>
        <time>2015-04-12T10:31:30Z</time>
      </trkpt>
      <trkpt lat="49.95389" lon="5.39709">
        <ele>405</ele>
        <time>2015-04-12T10:31:36Z</time>
      </trkpt>
      <trkpt lat="49.95396" lon="5.39712">
        <ele>405</ele>
        <time>2015-04-12T10:31:41Z</time>
      </trkpt>
      <trkpt lat="49.95401" lon="5.39717">
        <ele>403</ele>
        <time>2015-04-12T10:31:47Z</time>
      </trkpt>
      <trkpt lat="49.95408" lon="5.3972">
        <ele>403</ele>
        <time>2015-04-12T10:31:52Z</time>
      </trkpt>
      <trkpt lat="49.95414" lon="5.39723">
        <ele>402</ele>
        <time>2015-04-12T10:31:57Z</time>
      </trkpt>
      <trkpt lat="49.95421" lon="5.39725">
        <ele>401</ele>
        <time>2015-04-12T10:32:03Z</time>
      </trkpt>
      <trkpt lat="49.95425" lon="5.39727">
        <ele>400</ele>
        <time>2015-04-12T10:32:08Z</time>
      </trkpt>
      <trkpt lat="49.95431" lon="5.39728">
        <ele>399</ele>
        <time>2015-04-12T10:32:14Z</time>
      </trkpt>
      <trkpt lat="49.95435" lon="5.39729">
        <ele>399</ele>
        <time>2015-04-12T10:32:20Z</time>
      </trkpt>
      <trkpt lat="49.95438" lon="5.39731">
        <ele>399</ele>
        <time>2015-04-12T10:32:25Z</time>
      </trkpt>
      <trkpt lat="49.95444" lon="5.39733">
        <ele>398</ele>
        <time>2015-04-12T10:32:31Z</time>
      </trkpt>
      <trkpt lat="49.95447" lon="5.39738">
        <ele>398</ele>
        <time>2015-04-12T10:32:36Z</time>
      </trkpt>
      <trkpt lat="49.95449" lon="5.39746">
        <ele>398</ele>
        <time>2015-04-12T10:32:42Z</time>
      </trkpt>
      <trkpt lat="49.95452" lon="5.39756">
        <ele>398</ele>
        <time>2015-04-12T10:32:48Z</time>
      </trkpt>
      <trkpt lat="49.95452" lon="5.39766">
        <ele>398</ele>
        <time>2015-04-12T10:32:53Z</time>
      </trkpt>
      <trkpt lat="49.95453" lon="5.39776">
        <ele>398</ele>
        <time>2015-04-12T10:32:58Z</time>
      </trkpt>
      <trkpt lat="49.95456" lon="5.39786">
        <ele>398</ele>
        <time>2015-04-12T10:33:03Z</time>
      </trkpt>
      <trkpt lat="49.95457" lon="5.39798">
        <ele>398</ele>
        <time>2015-04-12T10:33:09Z</time>
      </trkpt>
      <trkpt lat="49.95459" lon="5.39807">
        <ele>398</ele>
        <time>2015-04-12T10:33:15Z</time>
      </trkpt>
      <trkpt lat="49.95461" lon="5.39815">
        <ele>399</ele>
        <time>2015-04-12T10:33:20Z</time>
      </trkpt>
      <trkpt lat="49.9546" lon="5.39823">
        <ele>398</ele>
        <time>2015-04-12T10:33:25Z</time>
      </trkpt>
      <trkpt lat="49.9546" lon="5.39832">
        <ele>399</ele>
        <time>2015-04-12T10:33:30Z</time>
      </trkpt>
      <trkpt lat="49.95459" lon="5.39843">
        <ele>399</ele>
        <time>2015-04-12T10:33:36Z</time>
      </trkpt>
      <trkpt lat="49.95458" lon="5.39852">
        <ele>399</ele>
        <time>2015-04-12T10:33:41Z</time>
      </trkpt>
      <trkpt lat="49.95459" lon="5.3986">
        <ele>399</ele>
        <time>2015-04-12T10:33:46Z</time>
      </trkpt>
      <trkpt lat="49.95459" lon="5.3987">
        <ele>399</ele>
        <time>2015-04-12T10:33:52Z</time>
      </trkpt>
      <trkpt lat="49.9546" lon="5.39881">
        <ele>400</ele>
        <time>2015-04-12T10:33:58Z</time>
      </trkpt>
      <trkpt lat="49.9546" lon="5.3989">
        <ele>400</ele>
        <time>2015-04-12T10:34:03Z</time>
      </trkpt>
      <trkpt lat="49.9546" lon="5.39903">
        <ele>400</ele>
        <time>2015-04-12T10:34:09Z</time>
      </trkpt>
      <trkpt lat="49.95458" lon="5.39915">
        <ele>400</ele>
        <time>2015-04-12T10:34:15Z</time>
      </trkpt>
      <trkpt lat="49.95458" lon="5.39923">
        <ele>400</ele>
        <time>2015-04-12T10:34:20Z</time>
      </trkpt>
      <trkpt lat="49.95457" lon="5.39933">
        <ele>400</ele>
        <time>2015-04-12T10:34:26Z</time>
      </trkpt>
      <trkpt lat="49.95456" lon="5.39944">
        <ele>401</ele>
        <time>2015-04-12T10:34:31Z</time>
      </trkpt>
      <trkpt lat="49.95455" lon="5.39955">
        <ele>401</ele>
        <time>2015-04-12T10:34:36Z</time>
      </trkpt>
      <trkpt lat="49.95455" lon="5.39966">
        <ele>401</ele>
        <time>2015-04-12T10:34:42Z</time>
      </trkpt>
      <trkpt lat="49.95456" lon="5.39978">
        <ele>401</ele>
        <time>2015-04-12T10:34:48Z</time>
      </trkpt>
      <trkpt lat="49.95456" lon="5.39988">
        <ele>401</ele>
        <time>2015-04-12T10:34:54Z</time>
      </trkpt>
      <trkpt lat="49.95455" lon="5.39998">
        <ele>401</ele>
        <time>2015-04-12T10:34:59Z</time>
      </trkpt>
      <trkpt lat="49.95454" lon="5.40011">
        <ele>401</ele>
        <time>2015-04-12T10:35:05Z</time>
      </trkpt>
      <trkpt lat="49.95454" lon="5.40021">
        <ele>401</ele>
        <time>2015-04-12T10:35:10Z</time>
      </trkpt>
      <trkpt lat="49.95452" lon="5.40032">
        <ele>401</ele>
        <time>2015-04-12T10:35:16Z</time>
      </trkpt>
      <trkpt lat="49.95451" lon="5.40042">
        <ele>401</ele>
        <time>2015-04-12T10:35:22Z</time>
      </trkpt>
      <trkpt lat="49.9545" lon="5.40056">
        <ele>401</ele>
        <time>2015-04-12T10:35:28Z</time>
      </trkpt>
      <trkpt lat="49.9545" lon="5.40068">
        <ele>401</ele>
        <time>2015-04-12T10:35:34Z</time>
      </trkpt>
      <trkpt lat="49.9545" lon="5.40078">
        <ele>402</ele>
        <time>2015-04-12T10:35:40Z</time>
      </trkpt>
      <trkpt lat="49.9545" lon="5.40088">
        <ele>402</ele>
        <time>2015-04-12T10:35:45Z</time>
      </trkpt>
      <trkpt lat="49.9545" lon="5.40099">
        <ele>402</ele>
        <time>2015-04-12T10:35:51Z</time>
      </trkpt>
      <trkpt lat="49.9545" lon="5.40107">
        <ele>402</ele>
        <time>2015-04-12T10:35:56Z</time>
      </trkpt>
      <trkpt lat="49.95452" lon="5.40116">
        <ele>402</ele>
        <time>2015-04-12T10:36:02Z</time>
      </trkpt>
      <trkpt lat="49.95451" lon="5.40127">
        <ele>402</ele>
        <time>2015-04-12T10:36:08Z</time>
      </trkpt>
      <trkpt lat="49.9545" lon="5.4014">
        <ele>402</ele>
        <time>2015-04-12T10:36:14Z</time>
      </trkpt>
      <trkpt lat="49.95451" lon="5.40148">
        <ele>402</ele>
        <time>2015-04-12T10:36:19Z</time>
      </trkpt>
      <trkpt lat="49.95452" lon="5.40159">
        <ele>402</ele>
        <time>2015-04-12T10:36:25Z</time>
      </trkpt>
      <trkpt lat="49.95452" lon="5.4017">
        <ele>402</ele>
        <time>2015-04-12T10:36:31Z</time>
      </trkpt>
      <trkpt lat="49.95451" lon="5.40182">
        <ele>402</ele>
        <time>2015-04-12T10:36:37Z</time>
      </trkpt>
      <trkpt lat="49.9545" lon="5.40195">
        <ele>402</ele>
        <time>2015-04-12T10:36:43Z</time>
      </trkpt>
      <trkpt lat="49.95448" lon="5.40209">
        <ele>403</ele>
        <time>2015-04-12T10:36:49Z</time>
      </trkpt>
      <trkpt lat="49.95447" lon="5.40222">
        <ele>402</ele>
        <time>2015-04-12T10:36:55Z</time>
      </trkpt>
      <trkpt lat="49.95446" lon="5.40235">
        <ele>402</ele>
        <time>2015-04-12T10:37:01Z</time>
      </trkpt>
      <trkpt lat="49.95445" lon="5.40246">
        <ele>402</ele>
        <time>2015-04-12T10:37:07Z</time>
      </trkpt>
      <trkpt lat="49.95444" lon="5.40257">
        <ele>402</ele>
        <time>2015-04-12T10:37:13Z</time>
      </trkpt>
      <trkpt lat="49.95442" lon="5.40267">
        <ele>402</ele>
        <time>2015-04-12T10:37:18Z</time>
      </trkpt>
      <trkpt lat="49.95441" lon="5.40278">
        <ele>402</ele>
        <time>2015-04-12T10:37:24Z</time>
      </trkpt>
      <trkpt lat="49.95441" lon="5.40287">
        <ele>402</ele>
        <time>2015-04-12T10:37:29Z</time>
      </trkpt>
      <trkpt lat="49.95441" lon="5.40297">
        <ele>402</ele>
        <time>2015-04-12T10:37:34Z</time>
      </trkpt>
      <trkpt lat="49.95439" lon="5.40309">
        <ele>401</ele>
        <time>2015-04-12T10:37:40Z</time>
      </trkpt>
      <trkpt lat="49.9544" lon="5.40322">
        <ele>401</ele>
        <time>2015-04-12T10:37:46Z</time>
      </trkpt>
      <trkpt lat="49.95445" lon="5.4033">
        <ele>401</ele>
        <time>2015-04-12T10:37:52Z</time>
      </trkpt>
      <trkpt lat="49.95449" lon="5.40332">
        <ele>400</ele>
        <time>2015-04-12T10:37:57Z</time>
      </trkpt>
      <trkpt lat="49.95453" lon="5.4034">
        <ele>400</ele>
        <time>2015-04-12T10:38:02Z</time>
      </trkpt>
      <trkpt lat="49.95455" lon="5.40348">
        <ele>400</ele>
        <time>2015-04-12T10:38:08Z</time>
      </trkpt>
      <trkpt lat="49.95456" lon="5.40354">
        <ele>401</ele>
        <time>2015-04-12T10:38:14Z</time>
      </trkpt>
      <trkpt lat="49.95458" lon="5.40362">
        <ele>401</ele>
        <time>2015-04-12T10:38:20Z</time>
      </trkpt>
      <trkpt lat="49.95461" lon="5.4037">
        <ele>400</ele>
        <time>2015-04-12T10:38:26Z</time>
      </trkpt>
      <trkpt lat="49.95461" lon="5.40378">
        <ele>400</ele>
        <time>2015-04-12T10:38:31Z</time>
      </trkpt>
      <trkpt lat="49.95461" lon="5.40387">
        <ele>401</ele>
        <time>2015-04-12T10:38:36Z</time>
      </trkpt>
      <trkpt lat="49.95461" lon="5.40398">
        <ele>400</ele>
        <time>2015-04-12T10:38:42Z</time>
      </trkpt>
      <trkpt lat="49.95464" lon="5.40409">
        <ele>400</ele>
        <time>2015-04-12T10:38:47Z</time>
      </trkpt>
      <trkpt lat="49.95472" lon="5.40426">
        <ele>399</ele>
        <time>2015-04-12T10:38:53Z</time>
      </trkpt>
      <trkpt lat="49.95477" lon="5.40433">
        <ele>399</ele>
        <time>2015-04-12T10:38:59Z</time>
      </trkpt>
      <trkpt lat="49.95481" lon="5.40433">
        <ele>400</ele>
        <time>2015-04-12T10:39:05Z</time>
      </trkpt>
      <trkpt lat="49.95483" lon="5.40437">
        <ele>399</ele>
        <time>2015-04-12T10:39:10Z</time>
      </trkpt>
      <trkpt lat="49.95488" lon="5.40448">
        <ele>400</ele>
        <time>2015-04-12T10:39:16Z</time>
      </trkpt>
      <trkpt lat="49.95491" lon="5.40458">
        <ele>400</ele>
        <time>2015-04-12T10:39:21Z</time>
      </trkpt>
      <trkpt lat="49.95494" lon="5.40469">
        <ele>399</ele>
        <time>2015-04-12T10:39:27Z</time>
      </trkpt>
      <trkpt lat="49.95493" lon="5.40477">
        <ele>399</ele>
        <time>2015-04-12T10:39:32Z</time>
      </trkpt>
      <trkpt lat="49.9549" lon="5.40483">
        <ele>399</ele>
        <time>2015-04-12T10:39:37Z</time>
      </trkpt>
      <trkpt lat="49.95484" lon="5.40487">
        <ele>399</ele>
        <time>2015-04-12T10:39:43Z</time>
      </trkpt>
      <trkpt lat="49.95478" lon="5.40489">
        <ele>400</ele>
        <time>2015-04-12T10:39:48Z</time>
      </trkpt>
      <trkpt lat="49.95471" lon="5.4049">
        <ele>400</ele>
        <time>2015-04-12T10:39:54Z</time>
      </trkpt>
      <trkpt lat="49.95464" lon="5.40492">
        <ele>400</ele>
        <time>2015-04-12T10:39:59Z</time>
      </trkpt>
      <trkpt lat="49.95456" lon="5.40491">
        <ele>401</ele>
        <time>2015-04-12T10:40:05Z</time>
      </trkpt>
      <trkpt lat="49.95448" lon="5.40491">
        <ele>401</ele>
        <time>2015-04-12T10:40:11Z</time>
      </trkpt>
      <trkpt lat="49.9544" lon="5.40489">
        <ele>401</ele>
        <time>2015-04-12T10:40:17Z</time>
      </trkpt>
      <trkpt lat="49.95433" lon="5.40492">
        <ele>401</ele>
        <time>2015-04-12T10:40:22Z</time>
      </trkpt>
      <trkpt lat="49.95424" lon="5.40492">
        <ele>401</ele>
        <time>2015-04-12T10:40:28Z</time>
      </trkpt>
      <trkpt lat="49.95417" lon="5.40493">
        <ele>402</ele>
        <time>2015-04-12T10:40:33Z</time>
      </trkpt>
      <trkpt lat="49.9541" lon="5.40496">
        <ele>401</ele>
        <time>2015-04-12T10:40:38Z</time>
      </trkpt>
      <trkpt lat="49.95406" lon="5.40497">
        <ele>402</ele>
        <time>2015-04-12T10:40:44Z</time>
      </trkpt>
      <trkpt lat="49.954" lon="5.40497">
        <ele>401</ele>
        <time>2015-04-12T10:40:49Z</time>
      </trkpt>
      <trkpt lat="49.95393" lon="5.40499">
        <ele>402</ele>
        <time>2015-04-12T10:40:54Z</time>
      </trkpt>
      <trkpt lat="49.95384" lon="5.40502">
        <ele>402</ele>
        <time>2015-04-12T10:41:00Z</time>
      </trkpt>
      <trkpt lat="49.95378" lon="5.40502">
        <ele>402</ele>
        <time>2015-04-12T10:41:05Z</time>
      </trkpt>
      <trkpt lat="49.95372" lon="5.40504">
        <ele>402</ele>
        <time>2015-04-12T10:41:10Z</time>
      </trkpt>
      <trkpt lat="49.95364" lon="5.40509">
        <ele>402</ele>
        <time>2015-04-12T10:41:16Z</time>
      </trkpt>
      <trkpt lat="49.9536" lon="5.4052">
        <ele>403</ele>
        <time>2015-04-12T10:41:22Z</time>
      </trkpt>
      <trkpt lat="49.9536" lon="5.40529">
        <ele>403</ele>
        <time>2015-04-12T10:41:27Z</time>
      </trkpt>
      <trkpt lat="49.95357" lon="5.40534">
        <ele>403</ele>
        <time>2015-04-12T10:41:33Z</time>
      </trkpt>
      <trkpt lat="49.95356" lon="5.40535">
        <ele>403</ele>
        <time>2015-04-12T10:41:38Z</time>
      </trkpt>
      <trkpt lat="49.95355" lon="5.40537">
        <ele>403</ele>
        <time>2015-04-12T10:41:44Z</time>
      </trkpt>
      <trkpt lat="49.95354" lon="5.40539">
        <ele>403</ele>
        <time>2015-04-12T10:41:50Z</time>
      </trkpt>
      <trkpt lat="49.95353" lon="5.4054">
        <ele>402</ele>
        <time>2015-04-12T10:41:56Z</time>
      </trkpt>
      <trkpt lat="49.95354" lon="5.40541">
        <ele>402</ele>
        <time>2015-04-12T10:42:02Z</time>
      </trkpt>
      <trkpt lat="49.95353" lon="5.40541">
        <ele>402</ele>
        <time>2015-04-12T10:42:08Z</time>
      </trkpt>
      <trkpt lat="49.95354" lon="5.40541">
        <ele>403</ele>
        <time>2015-04-12T10:42:13Z</time>
      </trkpt>
      <trkpt lat="49.95354" lon="5.40541">
        <ele>403</ele>
        <time>2015-04-12T10:42:18Z</time>
      </trkpt>
      <trkpt lat="49.95354" lon="5.40541">
        <ele>402</ele>
        <time>2015-04-12T10:42:23Z</time>
      </trkpt>
      <trkpt lat="49.95355" lon="5.40541">
        <ele>403</ele>
        <time>2015-04-12T10:42:29Z</time>
      </trkpt>
      <trkpt lat="49.95356" lon="5.40541">
        <ele>403</ele>
        <time>2015-04-12T10:42:35Z</time>
      </trkpt>
      <trkpt lat="49.95357" lon="5.40541">
        <ele>403</ele>
        <time>2015-04-12T10:42:40Z</time>
      </trkpt>
      <trkpt lat="49.95358" lon="5.40541">
        <ele>402</ele>
        <time>2015-04-12T10:42:46Z</time>
      </trkpt>
      <trkpt lat="49.95359" lon="5.4054">
        <ele>403</ele>
        <time>2015-04-12T10:42:53Z</time>
      </trkpt>
      <trkpt lat="49.95359" lon="5.40539">
        <ele>403</ele>
        <time>2015-04-12T10:42:58Z</time>
      </trkpt>
      <trkpt lat="49.95359" lon="5.40539">
        <ele>403</ele>
        <time>2015-04-12T10:43:04Z</time>
      </trkpt>
      <trkpt lat="49.95358" lon="5.40537">
        <ele>403</ele>
        <time>2015-04-12T10:43:09Z</time>
      </trkpt>
      <trkpt lat="49.95358" lon="5.40536">
        <ele>402</ele>
        <time>2015-04-12T10:43:15Z</time>
      </trkpt>
      <trkpt lat="49.95358" lon="5.40536">
        <ele>402</ele>
        <time>2015-04-12T10:43:20Z</time>
      </trkpt>
      <trkpt lat="49.95361" lon="5.40541">
        <ele>402</ele>
        <time>2015-04-12T10:43:26Z</time>
      </trkpt>
      <trkpt lat="49.95363" lon="5.40547">
        <ele>402</ele>
        <time>2015-04-12T10:43:31Z</time>
      </trkpt>
      <trkpt lat="49.95365" lon="5.40555">
        <ele>402</ele>
        <time>2015-04-12T10:43:37Z</time>
      </trkpt>
      <trkpt lat="49.95368" lon="5.40562">
        <ele>402</ele>
        <time>2015-04-12T10:43:42Z</time>
      </trkpt>
      <trkpt lat="49.95372" lon="5.40569">
        <ele>401</ele>
        <time>2015-04-12T10:43:47Z</time>
      </trkpt>
      <trkpt lat="49.95376" lon="5.40576">
        <ele>401</ele>
        <time>2015-04-12T10:43:52Z</time>
      </trkpt>
      <trkpt lat="49.9538" lon="5.40586">
        <ele>401</ele>
        <time>2015-04-12T10:43:58Z</time>
      </trkpt>
      <trkpt lat="49.95383" lon="5.40595">
        <ele>401</ele>
        <time>2015-04-12T10:44:04Z</time>
      </trkpt>
      <trkpt lat="49.95387" lon="5.40603">
        <ele>402</ele>
        <time>2015-04-12T10:44:10Z</time>
      </trkpt>
      <trkpt lat="49.95391" lon="5.40612">
        <ele>402</ele>
        <time>2015-04-12T10:44:16Z</time>
      </trkpt>
      <trkpt lat="49.95396" lon="5.40622">
        <ele>401</ele>
        <time>2015-04-12T10:44:22Z</time>
      </trkpt>
      <trkpt lat="49.95401" lon="5.4063">
        <ele>401</ele>
        <time>2015-04-12T10:44:27Z</time>
      </trkpt>
      <trkpt lat="49.95406" lon="5.4064">
        <ele>402</ele>
        <time>2015-04-12T10:44:33Z</time>
      </trkpt>
      <trkpt lat="49.95411" lon="5.40647">
        <ele>401</ele>
        <time>2015-04-12T10:44:38Z</time>
      </trkpt>
      <trkpt lat="49.95415" lon="5.40655">
        <ele>400</ele>
        <time>2015-04-12T10:44:43Z</time>
      </trkpt>
      <trkpt lat="49.95419" lon="5.40663">
        <ele>401</ele>
        <time>2015-04-12T10:44:48Z</time>
      </trkpt>
      <trkpt lat="49.95423" lon="5.40672">
        <ele>401</ele>
        <time>2015-04-12T10:44:54Z</time>
      </trkpt>
      <trkpt lat="49.95425" lon="5.40679">
        <ele>401</ele>
        <time>2015-04-12T10:44:59Z</time>
      </trkpt>
      <trkpt lat="49.95427" lon="5.40687">
        <ele>401</ele>
        <time>2015-04-12T10:45:05Z</time>
      </trkpt>
      <trkpt lat="49.9543" lon="5.40693">
        <ele>401</ele>
        <time>2015-04-12T10:45:10Z</time>
      </trkpt>
      <trkpt lat="49.95433" lon="5.40702">
        <ele>401</ele>
        <time>2015-04-12T10:45:16Z</time>
      </trkpt>
      <trkpt lat="49.95435" lon="5.40708">
        <ele>401</ele>
        <time>2015-04-12T10:45:22Z</time>
      </trkpt>
      <trkpt lat="49.95435" lon="5.40711">
        <ele>401</ele>
        <time>2015-04-12T10:45:27Z</time>
      </trkpt>
      <trkpt lat="49.95435" lon="5.40721">
        <ele>401</ele>
        <time>2015-04-12T10:45:33Z</time>
      </trkpt>
      <trkpt lat="49.95439" lon="5.4073">
        <ele>401</ele>
        <time>2015-04-12T10:45:39Z</time>
      </trkpt>
      <trkpt lat="49.95444" lon="5.4074">
        <ele>401</ele>
        <time>2015-04-12T10:45:45Z</time>
      </trkpt>
      <trkpt lat="49.95446" lon="5.40748">
        <ele>401</ele>
        <time>2015-04-12T10:45:50Z</time>
      </trkpt>
      <trkpt lat="49.95451" lon="5.40757">
        <ele>401</ele>
        <time>2015-04-12T10:45:56Z</time>
      </trkpt>
      <trkpt lat="49.95456" lon="5.40765">
        <ele>402</ele>
        <time>2015-04-12T10:46:02Z</time>
      </trkpt>
      <trkpt lat="49.95457" lon="5.40771">
        <ele>401</ele>
        <time>2015-04-12T10:46:07Z</time>
      </trkpt>
      <trkpt lat="49.95457" lon="5.40774">
        <ele>401</ele>
        <time>2015-04-12T10:46:12Z</time>
      </trkpt>
      <trkpt lat="49.95456" lon="5.40775">
        <ele>402</ele>
        <time>2015-04-12T10:46:17Z</time>
      </trkpt>
      <trkpt lat="49.95453" lon="5.40778">
        <ele>402</ele>
        <time>2015-04-12T10:46:23Z</time>
      </trkpt>
      <trkpt lat="49.95452" lon="5.40781">
        <ele>402</ele>
        <time>2015-04-12T10:46:28Z</time>
      </trkpt>
      <trkpt lat="49.95453" lon="5.40784">
        <ele>402</ele>
        <time>2015-04-12T10:46:33Z</time>
      </trkpt>
      <trkpt lat="49.95457" lon="5.40788">
        <ele>402</ele>
        <time>2015-04-12T10:46:39Z</time>
      </trkpt>
      <trkpt lat="49.9546" lon="5.40793">
        <ele>401</ele>
        <time>2015-04-12T10:46:44Z</time>
      </trkpt>
      <trkpt lat="49.95462" lon="5.40799">
        <ele>401</ele>
        <time>2015-04-12T10:46:50Z</time>
      </trkpt>
      <trkpt lat="49.95465" lon="5.40805">
        <ele>402</ele>
        <time>2015-04-12T10:46:55Z</time>
      </trkpt>
      <trkpt lat="49.95471" lon="5.40812">
        <ele>402</ele>
        <time>2015-04-12T10:47:01Z</time>
      </trkpt>
      <trkpt lat="49.95476" lon="5.40823">
        <ele>402</ele>
        <time>2015-04-12T10:47:07Z</time>
      </trkpt>
      <trkpt lat="49.95481" lon="5.40832">
        <ele>402</ele>
        <time>2015-04-12T10:47:13Z</time>
      </trkpt>
      <trkpt lat="49.95484" lon="5.40839">
        <ele>402</ele>
        <time>2015-04-12T10:47:18Z</time>
      </trkpt>
      <trkpt lat="49.95489" lon="5.40849">
        <ele>403</ele>
        <time>2015-04-12T10:47:24Z</time>
      </trkpt>
      <trkpt lat="49.95493" lon="5.40859">
        <ele>403</ele>
        <time>2015-04-12T10:47:29Z</time>
      </trkpt>
      <trkpt lat="49.95496" lon="5.40868">
        <ele>402</ele>
        <time>2015-04-12T10:47:34Z</time>
      </trkpt>
      <trkpt lat="49.95501" lon="5.40877">
        <ele>402</ele>
        <time>2015-04-12T10:47:40Z</time>
      </trkpt>
      <trkpt lat="49.95506" lon="5.40886">
        <ele>402</ele>
        <time>2015-04-12T10:47:45Z</time>
      </trkpt>
      <trkpt lat="49.9551" lon="5.40895">
        <ele>402</ele>
        <time>2015-04-12T10:47:50Z</time>
      </trkpt>
      <trkpt lat="49.95516" lon="5.40906">
        <ele>402</ele>
        <time>2015-04-12T10:47:56Z</time>
      </trkpt>
      <trkpt lat="49.9552" lon="5.40915">
        <ele>402</ele>
        <time>2015-04-12T10:48:01Z</time>
      </trkpt>
      <trkpt lat="49.95523" lon="5.40926">
        <ele>402</ele>
        <time>2015-04-12T10:48:07Z</time>
      </trkpt>
      <trkpt lat="49.95527" lon="5.40935">
        <ele>401</ele>
        <time>2015-04-12T10:48:12Z</time>
      </trkpt>
      <trkpt lat="49.9553" lon="5.40945">
        <ele>401</ele>
        <time>2015-04-12T10:48:18Z</time>
      </trkpt>
      <trkpt lat="49.95533" lon="5.40953">
        <ele>401</ele>
        <time>2015-04-12T10:48:23Z</time>
      </trkpt>
      <trkpt lat="49.95536" lon="5.40962">
        <ele>401</ele>
        <time>2015-04-12T10:48:28Z</time>
      </trkpt>
      <trkpt lat="49.95539" lon="5.40971">
        <ele>401</ele>
        <time>2015-04-12T10:48:33Z</time>
      </trkpt>
      <trkpt lat="49.95544" lon="5.40979">
        <ele>401</ele>
        <time>2015-04-12T10:48:39Z</time>
      </trkpt>
      <trkpt lat="49.95549" lon="5.40987">
        <ele>401</ele>
        <time>2015-04-12T10:48:45Z</time>
      </trkpt>
      <trkpt lat="49.95553" lon="5.40993">
        <ele>400</ele>
        <time>2015-04-12T10:48:50Z</time>
      </trkpt>
      <trkpt lat="49.95555" lon="5.40999">
        <ele>400</ele>
        <time>2015-04-12T10:48:55Z</time>
      </trkpt>
      <trkpt lat="49.95558" lon="5.41006">
        <ele>400</ele>
        <time>2015-04-12T10:49:00Z</time>
      </trkpt>
      <trkpt lat="49.95563" lon="5.41013">
        <ele>400</ele>
        <time>2015-04-12T10:49:06Z</time>
      </trkpt>
      <trkpt lat="49.95568" lon="5.41022">
        <ele>400</ele>
        <time>2015-04-12T10:49:12Z</time>
      </trkpt>
      <trkpt lat="49.95573" lon="5.4103">
        <ele>400</ele>
        <time>2015-04-12T10:49:17Z</time>
      </trkpt>
      <trkpt lat="49.95578" lon="5.41039">
        <ele>400</ele>
        <time>2015-04-12T10:49:23Z</time>
      </trkpt>
      <trkpt lat="49.95582" lon="5.41046">
        <ele>399</ele>
        <time>2015-04-12T10:49:29Z</time>
      </trkpt>
      <trkpt lat="49.95586" lon="5.41053">
        <ele>399</ele>
        <time>2015-04-12T10:49:34Z</time>
      </trkpt>
      <trkpt lat="49.95589" lon="5.41059">
        <ele>399</ele>
        <time>2015-04-12T10:49:39Z</time>
      </trkpt>
      <trkpt lat="49.95591" lon="5.41066">
        <ele>399</ele>
        <time>2015-04-12T10:49:44Z</time>
      </trkpt>
      <trkpt lat="49.95595" lon="5.41074">
        <ele>398</ele>
        <time>2015-04-12T10:49:50Z</time>
      </trkpt>
      <trkpt lat="49.95601" lon="5.4108">
        <ele>399</ele>
        <time>2015-04-12T10:49:55Z</time>
      </trkpt>
      <trkpt lat="49.95606" lon="5.41088">
        <ele>399</ele>
        <time>2015-04-12T10:50:01Z</time>
      </trkpt>
      <trkpt lat="49.9561" lon="5.41095">
        <ele>398</ele>
        <time>2015-04-12T10:50:07Z</time>
      </trkpt>
      <trkpt lat="49.95613" lon="5.41102">
        <ele>398</ele>
        <time>2015-04-12T10:50:13Z</time>
      </trkpt>
      <trkpt lat="49.95615" lon="5.41105">
        <ele>398</ele>
        <time>2015-04-12T10:50:18Z</time>
      </trkpt>
      <trkpt lat="49.95618" lon="5.41107">
        <ele>398</ele>
        <time>2015-04-12T10:50:24Z</time>
      </trkpt>
      <trkpt lat="49.95619" lon="5.41109">
        <ele>398</ele>
        <time>2015-04-12T10:50:29Z</time>
      </trkpt>
      <trkpt lat="49.9562" lon="5.41111">
        <ele>398</ele>
        <time>2015-04-12T10:50:35Z</time>
      </trkpt>
      <trkpt lat="49.9562" lon="5.41112">
        <ele>398</ele>
        <time>2015-04-12T10:50:40Z</time>
      </trkpt>
      <trkpt lat="49.95621" lon="5.41113">
        <ele>399</ele>
        <time>2015-04-12T10:50:45Z</time>
      </trkpt>
      <trkpt lat="49.95622" lon="5.41113">
        <ele>398</ele>
        <time>2015-04-12T10:50:50Z</time>
      </trkpt>
      <trkpt lat="49.95624" lon="5.41114">
        <ele>398</ele>
        <time>2015-04-12T10:50:56Z</time>
      </trkpt>
      <trkpt lat="49.95625" lon="5.41113">
        <ele>397</ele>
        <time>2015-04-12T10:51:01Z</time>
      </trkpt>
      <trkpt lat="49.95625" lon="5.41112">
        <ele>398</ele>
        <time>2015-04-12T10:51:06Z</time>
      </trkpt>
      <trkpt lat="49.95625" lon="5.41111">
        <ele>398</ele>
        <time>2015-04-12T10:51:12Z</time>
      </trkpt>
      <trkpt lat="49.95625" lon="5.4111">
        <ele>397</ele>
        <time>2015-04-12T10:51:17Z</time>
      </trkpt>
      <trkpt lat="49.95625" lon="5.41109">
        <ele>397</ele>
        <time>2015-04-12T10:51:23Z</time>
      </trkpt>
      <trkpt lat="49.95624" lon="5.41109">
        <ele>398</ele>
        <time>2015-04-12T10:51:28Z</time>
      </trkpt>
      <trkpt lat="49.95623" lon="5.41108">
        <ele>398</ele>
        <time>2015-04-12T10:51:33Z</time>
      </trkpt>
      <trkpt lat="49.95623" lon="5.41108">
        <ele>398</ele>
        <time>2015-04-12T10:51:40Z</time>
      </trkpt>
      <trkpt lat="49.95623" lon="5.41109">
        <ele>397</ele>
        <time>2015-04-12T10:51:45Z</time>
      </trkpt>
      <trkpt lat="49.95622" lon="5.4111">
        <ele>397</ele>
        <time>2015-04-12T10:51:50Z</time>
      </trkpt>
      <trkpt lat="49.9562" lon="5.41111">
        <ele>397</ele>
        <time>2015-04-12T10:51:56Z</time>
      </trkpt>
      <trkpt lat="49.9562" lon="5.41112">
        <ele>398</ele>
        <time>2015-04-12T10:52:05Z</time>
      </trkpt>
      <trkpt lat="49.9562" lon="5.41111">
        <ele>398</ele>
        <time>2015-04-12T10:52:11Z</time>
      </trkpt>
      <trkpt lat="49.9562" lon="5.41111">
        <ele>398</ele>
        <time>2015-04-12T10:52:16Z</time>
      </trkpt>
      <trkpt lat="49.95621" lon="5.4111">
        <ele>398</ele>
        <time>2015-04-12T10:52:22Z</time>
      </trkpt>
      <trkpt lat="49.95622" lon="5.41109">
        <ele>397</ele>
        <time>2015-04-12T10:52:27Z</time>
      </trkpt>
      <trkpt lat="49.95623" lon="5.41109">
        <ele>397</ele>
        <time>2015-04-12T10:52:33Z</time>
      </trkpt>
      <trkpt lat="49.95623" lon="5.41109">
        <ele>397</ele>
        <time>2015-04-12T10:52:38Z</time>
      </trkpt>
      <trkpt lat="49.95623" lon="5.41109">
        <ele>397</ele>
        <time>2015-04-12T10:52:43Z</time>
      </trkpt>
      <trkpt lat="49.95623" lon="5.4111">
        <ele>397</ele>
        <time>2015-04-12T10:52:49Z</time>
      </trkpt>
      <trkpt lat="49.95623" lon="5.4111">
        <ele>397</ele>
        <time>2015-04-12T10:52:54Z</time>
      </trkpt>
      <trkpt lat="49.95623" lon="5.41112">
        <ele>398</ele>
        <time>2015-04-12T10:53:00Z</time>
      </trkpt>
      <trkpt lat="49.95623" lon="5.41114">
        <ele>398</ele>
        <time>2015-04-12T10:53:05Z</time>
      </trkpt>
      <trkpt lat="49.95623" lon="5.41117">
        <ele>397</ele>
        <time>2015-04-12T10:53:11Z</time>
      </trkpt>
      <trkpt lat="49.95623" lon="5.41118">
        <ele>398</ele>
        <time>2015-04-12T10:53:17Z</time>
      </trkpt>
      <trkpt lat="49.95623" lon="5.41119">
        <ele>398</ele>
        <time>2015-04-12T10:53:22Z</time>
      </trkpt>
      <trkpt lat="49.95624" lon="5.41122">
        <ele>398</ele>
        <time>2015-04-12T10:53:28Z</time>
      </trkpt>
      <trkpt lat="49.95625" lon="5.41124">
        <ele>397</ele>
        <time>2015-04-12T10:53:34Z</time>
      </trkpt>
      <trkpt lat="49.95626" lon="5.41125">
        <ele>398</ele>
        <time>2015-04-12T10:53:39Z</time>
      </trkpt>
      <trkpt lat="49.95625" lon="5.41126">
        <ele>397</ele>
        <time>2015-04-12T10:53:46Z</time>
      </trkpt>
      <trkpt lat="49.95625" lon="5.41127">
        <ele>398</ele>
        <time>2015-04-12T10:53:53Z</time>
      </trkpt>
      <trkpt lat="49.95625" lon="5.41127">
        <ele>398</ele>
        <time>2015-04-12T10:53:58Z</time>
      </trkpt>
      <trkpt lat="49.95625" lon="5.41127">
        <ele>398</ele>
        <time>2015-04-12T10:54:04Z</time>
      </trkpt>
      <trkpt lat="49.95625" lon="5.41127">
        <ele>398</ele>
        <time>2015-04-12T10:54:09Z</time>
      </trkpt>
      <trkpt lat="49.95625" lon="5.41126">
        <ele>398</ele>
        <time>2015-04-12T10:54:14Z</time>
      </trkpt>
      <trkpt lat="49.95624" lon="5.41125">
        <ele>398</ele>
        <time>2015-04-12T10:54:20Z</time>
      </trkpt>
      <trkpt lat="49.95623" lon="5.41123">
        <ele>398</ele>
        <time>2015-04-12T10:54:26Z</time>
      </trkpt>
      <trkpt lat="49.95621" lon="5.41122">
        <ele>398</ele>
        <time>2015-04-12T10:54:31Z</time>
      </trkpt>
      <trkpt lat="49.9562" lon="5.41122">
        <ele>398</ele>
        <time>2015-04-12T10:54:36Z</time>
      </trkpt>
      <trkpt lat="49.9562" lon="5.41122">
        <ele>398</ele>
        <time>2015-04-12T10:54:44Z</time>
      </trkpt>
      <trkpt lat="49.9562" lon="5.41123">
        <ele>398</ele>
        <time>2015-04-12T10:54:49Z</time>
      </trkpt>
      <trkpt lat="49.9562" lon="5.41122">
        <ele>398</ele>
        <time>2015-04-12T10:54:54Z</time>
      </trkpt>
      <trkpt lat="49.95621" lon="5.41123">
        <ele>398</ele>
        <time>2015-04-12T10:55:00Z</time>
      </trkpt>
      <trkpt lat="49.95621" lon="5.41123">
        <ele>398</ele>
        <time>2015-04-12T10:55:05Z</time>
      </trkpt>
      <trkpt lat="49.95622" lon="5.41123">
        <ele>398</ele>
        <time>2015-04-12T10:55:10Z</time>
      </trkpt>
      <trkpt lat="49.95624" lon="5.41125">
        <ele>398</ele>
        <time>2015-04-12T10:55:16Z</time>
      </trkpt>
      <trkpt lat="49.95625" lon="5.41126">
        <ele>398</ele>
        <time>2015-04-12T10:55:22Z</time>
      </trkpt>
      <trkpt lat="49.95626" lon="5.41125">
        <ele>398</ele>
        <time>2015-04-12T10:55:27Z</time>
      </trkpt>
      <trkpt lat="49.95625" lon="5.41125">
        <ele>398</ele>
        <time>2015-04-12T10:55:33Z</time>
      </trkpt>
      <trkpt lat="49.95625" lon="5.41126">
        <ele>398</ele>
        <time>2015-04-12T10:55:39Z</time>
      </trkpt>
      <trkpt lat="49.95626" lon="5.41125">
        <ele>398</ele>
        <time>2015-04-12T10:55:45Z</time>
      </trkpt>
      <trkpt lat="49.95626" lon="5.41124">
        <ele>398</ele>
        <time>2015-04-12T10:55:50Z</time>
      </trkpt>
      <trkpt lat="49.95627" lon="5.41123">
        <ele>397</ele>
        <time>2015-04-12T10:55:57Z</time>
      </trkpt>
      <trkpt lat="49.95627" lon="5.41121">
        <ele>398</ele>
        <time>2015-04-12T10:56:03Z</time>
      </trkpt>
      <trkpt lat="49.95626" lon="5.41119">
        <ele>398</ele>
        <time>2015-04-12T10:56:08Z</time>
      </trkpt>
      <trkpt lat="49.95627" lon="5.41118">
        <ele>398</ele>
        <time>2015-04-12T10:56:13Z</time>
      </trkpt>
      <trkpt lat="49.95628" lon="5.41117">
        <ele>398</ele>
        <time>2015-04-12T10:56:19Z</time>
      </trkpt>
      <trkpt lat="49.95628" lon="5.41116">
        <ele>397</ele>
        <time>2015-04-12T10:56:25Z</time>
      </trkpt>
      <trkpt lat="49.95629" lon="5.41114">
        <ele>398</ele>
        <time>2015-04-12T10:56:30Z</time>
      </trkpt>
      <trkpt lat="49.9563" lon="5.41114">
        <ele>397</ele>
        <time>2015-04-12T10:56:35Z</time>
      </trkpt>
      <trkpt lat="49.9563" lon="5.41114">
        <ele>398</ele>
        <time>2015-04-12T10:56:41Z</time>
      </trkpt>
      <trkpt lat="49.9563" lon="5.41113">
        <ele>398</ele>
        <time>2015-04-12T10:56:46Z</time>
      </trkpt>
      <trkpt lat="49.95631" lon="5.41113">
        <ele>398</ele>
        <time>2015-04-12T10:56:51Z</time>
      </trkpt>
      <trkpt lat="49.9563" lon="5.41114">
        <ele>397</ele>
        <time>2015-04-12T10:56:56Z</time>
      </trkpt>
      <trkpt lat="49.95631" lon="5.41114">
        <ele>398</ele>
        <time>2015-04-12T10:57:02Z</time>
      </trkpt>
      <trkpt lat="49.95631" lon="5.41115">
        <ele>397</ele>
        <time>2015-04-12T10:57:07Z</time>
      </trkpt>
      <trkpt lat="49.95633" lon="5.41115">
        <ele>397</ele>
        <time>2015-04-12T10:57:13Z</time>
      </trkpt>
      <trkpt lat="49.95633" lon="5.41115">
        <ele>397</ele>
        <time>2015-04-12T10:57:18Z</time>
      </trkpt>
      <trkpt lat="49.95633" lon="5.41116">
        <ele>398</ele>
        <time>2015-04-12T10:57:24Z</time>
      </trkpt>
      <trkpt lat="49.95633" lon="5.41116">
        <ele>398</ele>
        <time>2015-04-12T10:57:30Z</time>
      </trkpt>
      <trkpt lat="49.95633" lon="5.41116">
        <ele>397</ele>
        <time>2015-04-12T10:57:36Z</time>
      </trkpt>
      <trkpt lat="49.95634" lon="5.41116">
        <ele>398</ele>
        <time>2015-04-12T10:57:41Z</time>
      </trkpt>
      <trkpt lat="49.95634" lon="5.41116">
        <ele>398</ele>
        <time>2015-04-12T10:57:48Z</time>
      </trkpt>
      <trkpt lat="49.95634" lon="5.41116">
        <ele>398</ele>
        <time>2015-04-12T10:57:54Z</time>
      </trkpt>
      <trkpt lat="49.95635" lon="5.41116">
        <ele>398</ele>
        <time>2015-04-12T10:57:59Z</time>
      </trkpt>
      <trkpt lat="49.95634" lon="5.41117">
        <ele>397</ele>
        <time>2015-04-12T10:58:04Z</time>
      </trkpt>
      <trkpt lat="49.95635" lon="5.41117">
        <ele>398</ele>
        <time>2015-04-12T10:58:09Z</time>
      </trkpt>
      <trkpt lat="49.95635" lon="5.41117">
        <ele>398</ele>
        <time>2015-04-12T10:58:15Z</time>
      </trkpt>
      <trkpt lat="49.95634" lon="5.41117">
        <ele>398</ele>
        <time>2015-04-12T10:58:20Z</time>
      </trkpt>
      <trkpt lat="49.95634" lon="5.41118">
        <ele>398</ele>
        <time>2015-04-12T10:58:25Z</time>
      </trkpt>
      <trkpt lat="49.95634" lon="5.41117">
        <ele>398</ele>
        <time>2015-04-12T10:58:32Z</time>
      </trkpt>
      <trkpt lat="49.95634" lon="5.41117">
        <ele>398</ele>
        <time>2015-04-12T10:58:37Z</time>
      </trkpt>
      <trkpt lat="49.95634" lon="5.41117">
        <ele>398</ele>
        <time>2015-04-12T10:58:42Z</time>
      </trkpt>
      <trkpt lat="49.95634" lon="5.41118">
        <ele>398</ele>
        <time>2015-04-12T10:58:49Z</time>
      </trkpt>
      <trkpt lat="49.95635" lon="5.41118">
        <ele>398</ele>
        <time>2015-04-12T10:58:55Z</time>
      </trkpt>
      <trkpt lat="49.95635" lon="5.41119">
        <ele>398</ele>
        <time>2015-04-12T10:59:00Z</time>
      </trkpt>
      <trkpt lat="49.95636" lon="5.41119">
        <ele>398</ele>
        <time>2015-04-12T10:59:07Z</time>
      </trkpt>
      <trkpt lat="49.95636" lon="5.41119">
        <ele>398</ele>
        <time>2015-04-12T10:59:14Z</time>
      </trkpt>
      <trkpt lat="49.95637" lon="5.41119">
        <ele>398</ele>
        <time>2015-04-12T10:59:20Z</time>
      </trkpt>
      <trkpt lat="49.95637" lon="5.41119">
        <ele>398</ele>
        <time>2015-04-12T10:59:25Z</time>
      </trkpt>
      <trkpt lat="49.95635" lon="5.41118">
        <ele>397</ele>
        <time>2015-04-12T10:59:31Z</time>
      </trkpt>
      <trkpt lat="49.95633" lon="5.41118">
        <ele>398</ele>
        <time>2015-04-12T10:59:37Z</time>
      </trkpt>
      <trkpt lat="49.95632" lon="5.41118">
        <ele>398</ele>
        <time>2015-04-12T10:59:44Z</time>
      </trkpt>
      <trkpt lat="49.95632" lon="5.41119">
        <ele>398</ele>
        <time>2015-04-12T10:59:51Z</time>
      </trkpt>
      <trkpt lat="49.95632" lon="5.41119">
        <ele>398</ele>
        <time>2015-04-12T10:59:58Z</time>
      </trkpt>
      <trkpt lat="49.95631" lon="5.41119">
        <ele>398</ele>
        <time>2015-04-12T11:00:04Z</time>
      </trkpt>
      <trkpt lat="49.95631" lon="5.41119">
        <ele>398</ele>
        <time>2015-04-12T11:00:09Z</time>
      </trkpt>
      <trkpt lat="49.9563" lon="5.41118">
        <ele>398</ele>
        <time>2015-04-12T11:00:16Z</time>
      </trkpt>
      <trkpt lat="49.9563" lon="5.41117">
        <ele>398</ele>
        <time>2015-04-12T11:00:21Z</time>
      </trkpt>
      <trkpt lat="49.95631" lon="5.41117">
        <ele>398</ele>
        <time>2015-04-12T11:00:26Z</time>
      </trkpt>
      <trkpt lat="49.95634" lon="5.41116">
        <ele>397</ele>
        <time>2015-04-12T11:00:32Z</time>
      </trkpt>
      <trkpt lat="49.95636" lon="5.41116">
        <ele>398</ele>
        <time>2015-04-12T11:00:37Z</time>
      </trkpt>
      <trkpt lat="49.95639" lon="5.41116">
        <ele>398</ele>
        <time>2015-04-12T11:00:42Z</time>
      </trkpt>
      <trkpt lat="49.95641" lon="5.41116">
        <ele>398</ele>
        <time>2015-04-12T11:00:48Z</time>
      </trkpt>
      <trkpt lat="49.95642" lon="5.41116">
        <ele>398</ele>
        <time>2015-04-12T11:00:53Z</time>
      </trkpt>
      <trkpt lat="49.95644" lon="5.41116">
        <ele>398</ele>
        <time>2015-04-12T11:00:59Z</time>
      </trkpt>
      <trkpt lat="49.95644" lon="5.41116">
        <ele>398</ele>
        <time>2015-04-12T11:01:04Z</time>
      </trkpt>
      <trkpt lat="49.95645" lon="5.41116">
        <ele>398</ele>
        <time>2015-04-12T11:01:10Z</time>
      </trkpt>
      <trkpt lat="49.95645" lon="5.41116">
        <ele>398</ele>
        <time>2015-04-12T11:01:18Z</time>
      </trkpt>
      <trkpt lat="49.95646" lon="5.41116">
        <ele>398</ele>
        <time>2015-04-12T11:01:24Z</time>
      </trkpt>
      <trkpt lat="49.95646" lon="5.41116">
        <ele>398</ele>
        <time>2015-04-12T11:01:30Z</time>
      </trkpt>
      <trkpt lat="49.95647" lon="5.41117">
        <ele>398</ele>
        <time>2015-04-12T11:01:36Z</time>
      </trkpt>
      <trkpt lat="49.95646" lon="5.41117">
        <ele>398</ele>
        <time>2015-04-12T11:01:42Z</time>
      </trkpt>
      <trkpt lat="49.95647" lon="5.41117">
        <ele>398</ele>
        <time>2015-04-12T11:01:48Z</time>
      </trkpt>
      <trkpt lat="49.95647" lon="5.41116">
        <ele>398</ele>
        <time>2015-04-12T11:01:54Z</time>
      </trkpt>
      <trkpt lat="49.95647" lon="5.41116">
        <ele>399</ele>
        <time>2015-04-12T11:01:59Z</time>
      </trkpt>
      <trkpt lat="49.95647" lon="5.41116">
        <ele>398</ele>
        <time>2015-04-12T11:02:05Z</time>
      </trkpt>
      <trkpt lat="49.95646" lon="5.41116">
        <ele>399</ele>
        <time>2015-04-12T11:02:11Z</time>
      </trkpt>
      <trkpt lat="49.95645" lon="5.41116">
        <ele>399</ele>
        <time>2015-04-12T11:02:16Z</time>
      </trkpt>
      <trkpt lat="49.95644" lon="5.41116">
        <ele>398</ele>
        <time>2015-04-12T11:02:22Z</time>
      </trkpt>
      <trkpt lat="49.95644" lon="5.41115">
        <ele>398</ele>
        <time>2015-04-12T11:02:27Z</time>
      </trkpt>
      <trkpt lat="49.95644" lon="5.41115">
        <ele>399</ele>
        <time>2015-04-12T11:02:35Z</time>
      </trkpt>
      <trkpt lat="49.95644" lon="5.41115">
        <ele>399</ele>
        <time>2015-04-12T11:02:40Z</time>
      </trkpt>
      <trkpt lat="49.95644" lon="5.41115">
        <ele>399</ele>
        <time>2015-04-12T11:02:45Z</time>
      </trkpt>
      <trkpt lat="49.95644" lon="5.41116">
        <ele>399</ele>
        <time>2015-04-12T11:02:50Z</time>
      </trkpt>
      <trkpt lat="49.95643" lon="5.41116">
        <ele>399</ele>
        <time>2015-04-12T11:02:59Z</time>
      </trkpt>
      <trkpt lat="49.95643" lon="5.41117">
        <ele>399</ele>
        <time>2015-04-12T11:03:04Z</time>
      </trkpt>
      <trkpt lat="49.9564" lon="5.41118">
        <ele>399</ele>
        <time>2015-04-12T11:03:10Z</time>
      </trkpt>
    </trkseg>
  </trk>
</gpx>